<?xml version="1.0" encoding="UTF-8" standalone="no" ?>
<gpx xmlns="http://www.topografix.com/GPX/1/1" xmlns:xsi="http://www.w3.org/2001/XMLSchema-instance" xsi:schemaLocation="http://www.topografix.com/GPX/1/1 http://www.topografix.com/GPX/1/1/gpx.xsd" version="1.1" creator="VisuGPX - https://www.visugpx.com">
  <metadata>
    <name>Turriers/Breziers/Le Puy/La Citta /Maladrech</name>
    <desc><![CDATA[Circuit fait antérieurement à VTT refait à e-VTT beaucoup mieux adapté surtout pour la montée de 700m de D+ à partir de Rochebrune
[b]ATTENTION : la ferme du Puy a privatisée le chemin traversant un champ sur 100 m , pourtant marqué PR sur IGN (il parait que le maire est d'accord !!!???)[/b]
Une vilaine montée shunte le passage .
Ceci étant le circuit est roulant par pistes forestières , mais pentu : 1170 m de D+ et un peu monotone .On peut pimenter en descendant par le très joli monotrace du Serre de Lachau]]></desc>
  </metadata>
  <trk>
    <name><![CDATA[03/09/2019 10:07:27]]></name>
    <extensions>
      <line xmlns="http://www.topografix.com/GPX/gpx_style/0/2">
        <color>0000FF</color>
        <width>4</width>
      </line>
    </extensions>
    <trkseg>
      <trkpt lat="44.39793" lon="6.17118">
        <ele>1012</ele>
        <time>2019-09-03T08:07:27Z</time>
      </trkpt>
      <trkpt lat="44.39793" lon="6.17118">
        <ele>1012</ele>
        <time>2019-09-03T08:07:28Z</time>
      </trkpt>
      <trkpt lat="44.39794" lon="6.17116">
        <ele>1012.2</ele>
        <time>2019-09-03T08:07:33Z</time>
      </trkpt>
      <trkpt lat="44.39813" lon="6.17076">
        <ele>1015</ele>
        <time>2019-09-03T08:07:44Z</time>
      </trkpt>
      <trkpt lat="44.39815" lon="6.17071">
        <ele>1015.4</ele>
        <time>2019-09-03T08:07:45Z</time>
      </trkpt>
      <trkpt lat="44.39827" lon="6.17045">
        <ele>1017.4</ele>
        <time>2019-09-03T08:07:53Z</time>
      </trkpt>
      <trkpt lat="44.39831" lon="6.17045">
        <ele>1017.7</ele>
        <time>2019-09-03T08:07:54Z</time>
      </trkpt>
      <trkpt lat="44.39834" lon="6.17045">
        <ele>1017.9</ele>
        <time>2019-09-03T08:07:55Z</time>
      </trkpt>
      <trkpt lat="44.39837" lon="6.17046">
        <ele>1017.9</ele>
        <time>2019-09-03T08:07:56Z</time>
      </trkpt>
      <trkpt lat="44.39841" lon="6.17046">
        <ele>1017.9</ele>
        <time>2019-09-03T08:07:57Z</time>
      </trkpt>
      <trkpt lat="44.39844" lon="6.17046">
        <ele>1018</ele>
        <time>2019-09-03T08:07:58Z</time>
      </trkpt>
      <trkpt lat="44.39896" lon="6.17043">
        <ele>1018.4</ele>
        <time>2019-09-03T08:08:14Z</time>
      </trkpt>
      <trkpt lat="44.3994" lon="6.17025">
        <ele>1020.1</ele>
        <time>2019-09-03T08:08:28Z</time>
      </trkpt>
      <trkpt lat="44.39985" lon="6.1705">
        <ele>1021.9</ele>
        <time>2019-09-03T08:08:43Z</time>
      </trkpt>
      <trkpt lat="44.4001" lon="6.1709">
        <ele>1020.8</ele>
        <time>2019-09-03T08:08:54Z</time>
      </trkpt>
      <trkpt lat="44.40038" lon="6.17138">
        <ele>1016.2</ele>
        <time>2019-09-03T08:09:07Z</time>
      </trkpt>
      <trkpt lat="44.40066" lon="6.17168">
        <ele>1011.1</ele>
        <time>2019-09-03T08:09:20Z</time>
      </trkpt>
      <trkpt lat="44.40069" lon="6.17169">
        <ele>1010.9</ele>
        <time>2019-09-03T08:09:26Z</time>
      </trkpt>
      <trkpt lat="44.40076" lon="6.17171">
        <ele>1010.1</ele>
        <time>2019-09-03T08:09:54Z</time>
      </trkpt>
      <trkpt lat="44.40099" lon="6.17175">
        <ele>1008.7</ele>
        <time>2019-09-03T08:10:01Z</time>
      </trkpt>
      <trkpt lat="44.40154" lon="6.17176">
        <ele>1007</ele>
        <time>2019-09-03T08:10:14Z</time>
      </trkpt>
      <trkpt lat="44.40211" lon="6.17179">
        <ele>1004.6</ele>
        <time>2019-09-03T08:10:27Z</time>
      </trkpt>
      <trkpt lat="44.40264" lon="6.17181">
        <ele>1002.8</ele>
        <time>2019-09-03T08:10:39Z</time>
      </trkpt>
      <trkpt lat="44.40289" lon="6.17187">
        <ele>1002.1</ele>
        <time>2019-09-03T08:10:45Z</time>
      </trkpt>
      <trkpt lat="44.40315" lon="6.17195">
        <ele>1000.9</ele>
        <time>2019-09-03T08:10:51Z</time>
      </trkpt>
      <trkpt lat="44.40319" lon="6.17196">
        <ele>1000.8</ele>
        <time>2019-09-03T08:10:52Z</time>
      </trkpt>
      <trkpt lat="44.40328" lon="6.17199">
        <ele>1000.3</ele>
        <time>2019-09-03T08:10:54Z</time>
      </trkpt>
      <trkpt lat="44.40337" lon="6.17203">
        <ele>999.3</ele>
        <time>2019-09-03T08:10:56Z</time>
      </trkpt>
      <trkpt lat="44.40341" lon="6.17204">
        <ele>998.7</ele>
        <time>2019-09-03T08:10:57Z</time>
      </trkpt>
      <trkpt lat="44.40346" lon="6.17204">
        <ele>998.2</ele>
        <time>2019-09-03T08:10:58Z</time>
      </trkpt>
      <trkpt lat="44.40351" lon="6.17204">
        <ele>997.8</ele>
        <time>2019-09-03T08:10:59Z</time>
      </trkpt>
      <trkpt lat="44.40355" lon="6.17203">
        <ele>997.5</ele>
        <time>2019-09-03T08:11:00Z</time>
      </trkpt>
      <trkpt lat="44.4036" lon="6.17203">
        <ele>997.1</ele>
        <time>2019-09-03T08:11:01Z</time>
      </trkpt>
      <trkpt lat="44.40364" lon="6.17203">
        <ele>996.5</ele>
        <time>2019-09-03T08:11:02Z</time>
      </trkpt>
      <trkpt lat="44.40379" lon="6.17203">
        <ele>995.2</ele>
        <time>2019-09-03T08:11:05Z</time>
      </trkpt>
      <trkpt lat="44.40389" lon="6.17201">
        <ele>994.5</ele>
        <time>2019-09-03T08:11:07Z</time>
      </trkpt>
      <trkpt lat="44.40394" lon="6.17201">
        <ele>994.1</ele>
        <time>2019-09-03T08:11:08Z</time>
      </trkpt>
      <trkpt lat="44.40427" lon="6.17209">
        <ele>990.4</ele>
        <time>2019-09-03T08:11:17Z</time>
      </trkpt>
      <trkpt lat="44.40471" lon="6.17252">
        <ele>985.8</ele>
        <time>2019-09-03T08:11:30Z</time>
      </trkpt>
      <trkpt lat="44.4051" lon="6.17292">
        <ele>981.1</ele>
        <time>2019-09-03T08:11:43Z</time>
      </trkpt>
      <trkpt lat="44.40514" lon="6.17295">
        <ele>980.7</ele>
        <time>2019-09-03T08:11:44Z</time>
      </trkpt>
      <trkpt lat="44.40557" lon="6.17312">
        <ele>977.9</ele>
        <time>2019-09-03T08:11:55Z</time>
      </trkpt>
      <trkpt lat="44.4056" lon="6.17313">
        <ele>977.7</ele>
        <time>2019-09-03T08:11:56Z</time>
      </trkpt>
      <trkpt lat="44.40564" lon="6.17314">
        <ele>977.6</ele>
        <time>2019-09-03T08:11:57Z</time>
      </trkpt>
      <trkpt lat="44.4061" lon="6.17328">
        <ele>973.9</ele>
        <time>2019-09-03T08:12:10Z</time>
      </trkpt>
      <trkpt lat="44.40651" lon="6.17339">
        <ele>969.6</ele>
        <time>2019-09-03T08:12:22Z</time>
      </trkpt>
      <trkpt lat="44.40686" lon="6.17351">
        <ele>965.8</ele>
        <time>2019-09-03T08:12:34Z</time>
      </trkpt>
      <trkpt lat="44.40718" lon="6.17362">
        <ele>962.9</ele>
        <time>2019-09-03T08:12:45Z</time>
      </trkpt>
      <trkpt lat="44.40724" lon="6.17359">
        <ele>963</ele>
        <time>2019-09-03T08:12:48Z</time>
      </trkpt>
      <trkpt lat="44.40725" lon="6.17358">
        <ele>963.2</ele>
        <time>2019-09-03T08:12:49Z</time>
      </trkpt>
      <trkpt lat="44.40727" lon="6.17356">
        <ele>963.4</ele>
        <time>2019-09-03T08:12:50Z</time>
      </trkpt>
      <trkpt lat="44.40727" lon="6.17352">
        <ele>963.7</ele>
        <time>2019-09-03T08:12:51Z</time>
      </trkpt>
      <trkpt lat="44.40728" lon="6.1735">
        <ele>964</ele>
        <time>2019-09-03T08:12:52Z</time>
      </trkpt>
      <trkpt lat="44.40728" lon="6.17347">
        <ele>964.3</ele>
        <time>2019-09-03T08:12:53Z</time>
      </trkpt>
      <trkpt lat="44.40728" lon="6.17344">
        <ele>964.7</ele>
        <time>2019-09-03T08:12:54Z</time>
      </trkpt>
      <trkpt lat="44.40728" lon="6.17342">
        <ele>965</ele>
        <time>2019-09-03T08:12:55Z</time>
      </trkpt>
      <trkpt lat="44.40727" lon="6.1734">
        <ele>965.4</ele>
        <time>2019-09-03T08:12:56Z</time>
      </trkpt>
      <trkpt lat="44.40725" lon="6.17338">
        <ele>965.6</ele>
        <time>2019-09-03T08:12:57Z</time>
      </trkpt>
      <trkpt lat="44.40724" lon="6.17338">
        <ele>965.7</ele>
        <time>2019-09-03T08:12:58Z</time>
      </trkpt>
      <trkpt lat="44.40723" lon="6.17337">
        <ele>965.9</ele>
        <time>2019-09-03T08:12:59Z</time>
      </trkpt>
      <trkpt lat="44.40699" lon="6.1733">
        <ele>967.2</ele>
        <time>2019-09-03T08:13:11Z</time>
      </trkpt>
      <trkpt lat="44.40686" lon="6.17312">
        <ele>967.1</ele>
        <time>2019-09-03T08:13:18Z</time>
      </trkpt>
      <trkpt lat="44.40685" lon="6.1728">
        <ele>965.7</ele>
        <time>2019-09-03T08:13:28Z</time>
      </trkpt>
      <trkpt lat="44.40691" lon="6.17236">
        <ele>962</ele>
        <time>2019-09-03T08:13:39Z</time>
      </trkpt>
      <trkpt lat="44.40688" lon="6.17201">
        <ele>958.6</ele>
        <time>2019-09-03T08:13:49Z</time>
      </trkpt>
      <trkpt lat="44.40674" lon="6.17183">
        <ele>958.7</ele>
        <time>2019-09-03T08:13:58Z</time>
      </trkpt>
      <trkpt lat="44.40673" lon="6.1718">
        <ele>958.5</ele>
        <time>2019-09-03T08:13:59Z</time>
      </trkpt>
      <trkpt lat="44.40673" lon="6.17177">
        <ele>958.2</ele>
        <time>2019-09-03T08:14:00Z</time>
      </trkpt>
      <trkpt lat="44.40685" lon="6.17149">
        <ele>955.1</ele>
        <time>2019-09-03T08:14:10Z</time>
      </trkpt>
      <trkpt lat="44.40708" lon="6.17125">
        <ele>950.4</ele>
        <time>2019-09-03T08:14:19Z</time>
      </trkpt>
      <trkpt lat="44.40718" lon="6.17091">
        <ele>946.6</ele>
        <time>2019-09-03T08:14:29Z</time>
      </trkpt>
      <trkpt lat="44.4071" lon="6.17051">
        <ele>946.5</ele>
        <time>2019-09-03T08:14:39Z</time>
      </trkpt>
      <trkpt lat="44.40702" lon="6.17014">
        <ele>946.7</ele>
        <time>2019-09-03T08:14:49Z</time>
      </trkpt>
      <trkpt lat="44.407" lon="6.16964">
        <ele>942.9</ele>
        <time>2019-09-03T08:15:00Z</time>
      </trkpt>
      <trkpt lat="44.40703" lon="6.1693">
        <ele>938.8</ele>
        <time>2019-09-03T08:15:10Z</time>
      </trkpt>
      <trkpt lat="44.4069" lon="6.16905">
        <ele>939</ele>
        <time>2019-09-03T08:15:20Z</time>
      </trkpt>
      <trkpt lat="44.40682" lon="6.16873">
        <ele>936.7</ele>
        <time>2019-09-03T08:15:31Z</time>
      </trkpt>
      <trkpt lat="44.40687" lon="6.16828">
        <ele>931.3</ele>
        <time>2019-09-03T08:15:42Z</time>
      </trkpt>
      <trkpt lat="44.40677" lon="6.16801">
        <ele>931.7</ele>
        <time>2019-09-03T08:15:54Z</time>
      </trkpt>
      <trkpt lat="44.40664" lon="6.16796">
        <ele>932.9</ele>
        <time>2019-09-03T08:15:59Z</time>
      </trkpt>
      <trkpt lat="44.40661" lon="6.16792">
        <ele>933.4</ele>
        <time>2019-09-03T08:16:00Z</time>
      </trkpt>
      <trkpt lat="44.40655" lon="6.16782">
        <ele>934.7</ele>
        <time>2019-09-03T08:16:08Z</time>
      </trkpt>
      <trkpt lat="44.40659" lon="6.1678">
        <ele>933.3</ele>
        <time>2019-09-03T08:16:20Z</time>
      </trkpt>
      <trkpt lat="44.4067" lon="6.1676">
        <ele>929.9</ele>
        <time>2019-09-03T08:16:45Z</time>
      </trkpt>
      <trkpt lat="44.4067" lon="6.16755">
        <ele>929.7</ele>
        <time>2019-09-03T08:16:55Z</time>
      </trkpt>
      <trkpt lat="44.4068" lon="6.16747">
        <ele>931.1</ele>
        <time>2019-09-03T08:17:14Z</time>
      </trkpt>
      <trkpt lat="44.40691" lon="6.16748">
        <ele>932.5</ele>
        <time>2019-09-03T08:17:19Z</time>
      </trkpt>
      <trkpt lat="44.40693" lon="6.1675">
        <ele>932.5</ele>
        <time>2019-09-03T08:17:20Z</time>
      </trkpt>
      <trkpt lat="44.40694" lon="6.16751">
        <ele>932.6</ele>
        <time>2019-09-03T08:17:21Z</time>
      </trkpt>
      <trkpt lat="44.40695" lon="6.16753">
        <ele>932.6</ele>
        <time>2019-09-03T08:17:22Z</time>
      </trkpt>
      <trkpt lat="44.40697" lon="6.16755">
        <ele>932.8</ele>
        <time>2019-09-03T08:17:23Z</time>
      </trkpt>
      <trkpt lat="44.40699" lon="6.16757">
        <ele>932.9</ele>
        <time>2019-09-03T08:17:24Z</time>
      </trkpt>
      <trkpt lat="44.407" lon="6.16758">
        <ele>933.1</ele>
        <time>2019-09-03T08:17:25Z</time>
      </trkpt>
      <trkpt lat="44.40703" lon="6.16761">
        <ele>933.2</ele>
        <time>2019-09-03T08:17:26Z</time>
      </trkpt>
      <trkpt lat="44.40736" lon="6.16789">
        <ele>931.9</ele>
        <time>2019-09-03T08:17:39Z</time>
      </trkpt>
      <trkpt lat="44.40762" lon="6.16821">
        <ele>925.4</ele>
        <time>2019-09-03T08:17:50Z</time>
      </trkpt>
      <trkpt lat="44.408" lon="6.16829">
        <ele>922.6</ele>
        <time>2019-09-03T08:18:01Z</time>
      </trkpt>
      <trkpt lat="44.40854" lon="6.16811">
        <ele>926.4</ele>
        <time>2019-09-03T08:18:15Z</time>
      </trkpt>
      <trkpt lat="44.40892" lon="6.16802">
        <ele>926.7</ele>
        <time>2019-09-03T08:18:25Z</time>
      </trkpt>
      <trkpt lat="44.40953" lon="6.16819">
        <ele>921.5</ele>
        <time>2019-09-03T08:18:41Z</time>
      </trkpt>
      <trkpt lat="44.41005" lon="6.16856">
        <ele>918.2</ele>
        <time>2019-09-03T08:18:58Z</time>
      </trkpt>
      <trkpt lat="44.41067" lon="6.16895">
        <ele>914.2</ele>
        <time>2019-09-03T08:19:11Z</time>
      </trkpt>
      <trkpt lat="44.41076" lon="6.16907">
        <ele>912.5</ele>
        <time>2019-09-03T08:19:13Z</time>
      </trkpt>
      <trkpt lat="44.4108" lon="6.16913">
        <ele>911.6</ele>
        <time>2019-09-03T08:19:14Z</time>
      </trkpt>
      <trkpt lat="44.41084" lon="6.16918">
        <ele>910.8</ele>
        <time>2019-09-03T08:19:15Z</time>
      </trkpt>
      <trkpt lat="44.41089" lon="6.16924">
        <ele>910.2</ele>
        <time>2019-09-03T08:19:16Z</time>
      </trkpt>
      <trkpt lat="44.41095" lon="6.16928">
        <ele>909.6</ele>
        <time>2019-09-03T08:19:17Z</time>
      </trkpt>
      <trkpt lat="44.411" lon="6.16932">
        <ele>909.1</ele>
        <time>2019-09-03T08:19:18Z</time>
      </trkpt>
      <trkpt lat="44.41105" lon="6.16935">
        <ele>908.7</ele>
        <time>2019-09-03T08:19:19Z</time>
      </trkpt>
      <trkpt lat="44.41111" lon="6.16936">
        <ele>908.3</ele>
        <time>2019-09-03T08:19:20Z</time>
      </trkpt>
      <trkpt lat="44.41116" lon="6.16937">
        <ele>908</ele>
        <time>2019-09-03T08:19:21Z</time>
      </trkpt>
      <trkpt lat="44.41195" lon="6.16933">
        <ele>906.1</ele>
        <time>2019-09-03T08:19:32Z</time>
      </trkpt>
      <trkpt lat="44.41257" lon="6.1693">
        <ele>904.5</ele>
        <time>2019-09-03T08:19:39Z</time>
      </trkpt>
      <trkpt lat="44.4131" lon="6.16958">
        <ele>903.8</ele>
        <time>2019-09-03T08:19:45Z</time>
      </trkpt>
      <trkpt lat="44.41344" lon="6.16999">
        <ele>901.7</ele>
        <time>2019-09-03T08:19:50Z</time>
      </trkpt>
      <trkpt lat="44.41349" lon="6.1701">
        <ele>900.8</ele>
        <time>2019-09-03T08:19:51Z</time>
      </trkpt>
      <trkpt lat="44.41353" lon="6.17021">
        <ele>899.7</ele>
        <time>2019-09-03T08:19:52Z</time>
      </trkpt>
      <trkpt lat="44.41357" lon="6.17032">
        <ele>898.8</ele>
        <time>2019-09-03T08:19:53Z</time>
      </trkpt>
      <trkpt lat="44.41362" lon="6.17043">
        <ele>898.1</ele>
        <time>2019-09-03T08:19:54Z</time>
      </trkpt>
      <trkpt lat="44.41408" lon="6.17143">
        <ele>894.2</ele>
        <time>2019-09-03T08:20:04Z</time>
      </trkpt>
      <trkpt lat="44.41427" lon="6.17198">
        <ele>890.7</ele>
        <time>2019-09-03T08:20:09Z</time>
      </trkpt>
      <trkpt lat="44.41441" lon="6.17237">
        <ele>889</ele>
        <time>2019-09-03T08:20:13Z</time>
      </trkpt>
      <trkpt lat="44.41446" lon="6.17245">
        <ele>889.2</ele>
        <time>2019-09-03T08:20:14Z</time>
      </trkpt>
      <trkpt lat="44.41451" lon="6.17252">
        <ele>889.5</ele>
        <time>2019-09-03T08:20:15Z</time>
      </trkpt>
      <trkpt lat="44.41457" lon="6.17259">
        <ele>889.7</ele>
        <time>2019-09-03T08:20:16Z</time>
      </trkpt>
      <trkpt lat="44.41463" lon="6.17266">
        <ele>890</ele>
        <time>2019-09-03T08:20:17Z</time>
      </trkpt>
      <trkpt lat="44.41475" lon="6.17282">
        <ele>890.1</ele>
        <time>2019-09-03T08:20:19Z</time>
      </trkpt>
      <trkpt lat="44.4148" lon="6.1729">
        <ele>889.8</ele>
        <time>2019-09-03T08:20:20Z</time>
      </trkpt>
      <trkpt lat="44.41528" lon="6.1738">
        <ele>881.4</ele>
        <time>2019-09-03T08:20:30Z</time>
      </trkpt>
      <trkpt lat="44.41534" lon="6.17386">
        <ele>880.9</ele>
        <time>2019-09-03T08:20:31Z</time>
      </trkpt>
      <trkpt lat="44.41541" lon="6.17391">
        <ele>880.6</ele>
        <time>2019-09-03T08:20:32Z</time>
      </trkpt>
      <trkpt lat="44.41548" lon="6.17396">
        <ele>880.4</ele>
        <time>2019-09-03T08:20:33Z</time>
      </trkpt>
      <trkpt lat="44.41555" lon="6.174">
        <ele>880.4</ele>
        <time>2019-09-03T08:20:34Z</time>
      </trkpt>
      <trkpt lat="44.41562" lon="6.17404">
        <ele>880.4</ele>
        <time>2019-09-03T08:20:35Z</time>
      </trkpt>
      <trkpt lat="44.4161" lon="6.17412">
        <ele>880.2</ele>
        <time>2019-09-03T08:20:41Z</time>
      </trkpt>
      <trkpt lat="44.41619" lon="6.17415">
        <ele>879.5</ele>
        <time>2019-09-03T08:20:42Z</time>
      </trkpt>
      <trkpt lat="44.41694" lon="6.17442">
        <ele>870.4</ele>
        <time>2019-09-03T08:20:50Z</time>
      </trkpt>
      <trkpt lat="44.4172" lon="6.17454">
        <ele>867.3</ele>
        <time>2019-09-03T08:20:53Z</time>
      </trkpt>
      <trkpt lat="44.41754" lon="6.17463">
        <ele>865.4</ele>
        <time>2019-09-03T08:20:57Z</time>
      </trkpt>
      <trkpt lat="44.41803" lon="6.17471">
        <ele>864</ele>
        <time>2019-09-03T08:21:03Z</time>
      </trkpt>
      <trkpt lat="44.41846" lon="6.17481">
        <ele>861.7</ele>
        <time>2019-09-03T08:21:09Z</time>
      </trkpt>
      <trkpt lat="44.41864" lon="6.17487">
        <ele>859.7</ele>
        <time>2019-09-03T08:21:13Z</time>
      </trkpt>
      <trkpt lat="44.41868" lon="6.17487">
        <ele>859.3</ele>
        <time>2019-09-03T08:21:14Z</time>
      </trkpt>
      <trkpt lat="44.41881" lon="6.17495">
        <ele>858.4</ele>
        <time>2019-09-03T08:21:18Z</time>
      </trkpt>
      <trkpt lat="44.41883" lon="6.17501">
        <ele>858.4</ele>
        <time>2019-09-03T08:21:19Z</time>
      </trkpt>
      <trkpt lat="44.41885" lon="6.17507">
        <ele>858.3</ele>
        <time>2019-09-03T08:21:20Z</time>
      </trkpt>
      <trkpt lat="44.4191" lon="6.17584">
        <ele>861.3</ele>
        <time>2019-09-03T08:21:32Z</time>
      </trkpt>
      <trkpt lat="44.41906" lon="6.17609">
        <ele>861.8</ele>
        <time>2019-09-03T08:21:41Z</time>
      </trkpt>
      <trkpt lat="44.41907" lon="6.17612">
        <ele>862</ele>
        <time>2019-09-03T08:21:42Z</time>
      </trkpt>
      <trkpt lat="44.41908" lon="6.17614">
        <ele>862.3</ele>
        <time>2019-09-03T08:21:43Z</time>
      </trkpt>
      <trkpt lat="44.4191" lon="6.17615">
        <ele>862.7</ele>
        <time>2019-09-03T08:21:44Z</time>
      </trkpt>
      <trkpt lat="44.41912" lon="6.17616">
        <ele>863.1</ele>
        <time>2019-09-03T08:21:45Z</time>
      </trkpt>
      <trkpt lat="44.41914" lon="6.17616">
        <ele>863.6</ele>
        <time>2019-09-03T08:21:46Z</time>
      </trkpt>
      <trkpt lat="44.41922" lon="6.17625">
        <ele>863.9</ele>
        <time>2019-09-03T08:21:50Z</time>
      </trkpt>
      <trkpt lat="44.41922" lon="6.17629">
        <ele>864.1</ele>
        <time>2019-09-03T08:21:51Z</time>
      </trkpt>
      <trkpt lat="44.41922" lon="6.17633">
        <ele>864.4</ele>
        <time>2019-09-03T08:21:52Z</time>
      </trkpt>
      <trkpt lat="44.41921" lon="6.17637">
        <ele>864.9</ele>
        <time>2019-09-03T08:21:53Z</time>
      </trkpt>
      <trkpt lat="44.41919" lon="6.17641">
        <ele>865.3</ele>
        <time>2019-09-03T08:21:54Z</time>
      </trkpt>
      <trkpt lat="44.41917" lon="6.17645">
        <ele>865.6</ele>
        <time>2019-09-03T08:21:55Z</time>
      </trkpt>
      <trkpt lat="44.41915" lon="6.17648">
        <ele>865.5</ele>
        <time>2019-09-03T08:21:56Z</time>
      </trkpt>
      <trkpt lat="44.41914" lon="6.17651">
        <ele>865.3</ele>
        <time>2019-09-03T08:21:57Z</time>
      </trkpt>
      <trkpt lat="44.41913" lon="6.17655">
        <ele>865.3</ele>
        <time>2019-09-03T08:21:58Z</time>
      </trkpt>
      <trkpt lat="44.41912" lon="6.17659">
        <ele>865.4</ele>
        <time>2019-09-03T08:21:59Z</time>
      </trkpt>
      <trkpt lat="44.41912" lon="6.17663">
        <ele>865.4</ele>
        <time>2019-09-03T08:22:00Z</time>
      </trkpt>
      <trkpt lat="44.41912" lon="6.1771">
        <ele>862.9</ele>
        <time>2019-09-03T08:22:13Z</time>
      </trkpt>
      <trkpt lat="44.41925" lon="6.17756">
        <ele>861.1</ele>
        <time>2019-09-03T08:22:24Z</time>
      </trkpt>
      <trkpt lat="44.41941" lon="6.17796">
        <ele>854.8</ele>
        <time>2019-09-03T08:22:35Z</time>
      </trkpt>
      <trkpt lat="44.41949" lon="6.17801">
        <ele>853.6</ele>
        <time>2019-09-03T08:22:38Z</time>
      </trkpt>
      <trkpt lat="44.41952" lon="6.17801">
        <ele>853.6</ele>
        <time>2019-09-03T08:22:39Z</time>
      </trkpt>
      <trkpt lat="44.41955" lon="6.17799">
        <ele>853.7</ele>
        <time>2019-09-03T08:22:40Z</time>
      </trkpt>
      <trkpt lat="44.41959" lon="6.17797">
        <ele>853.9</ele>
        <time>2019-09-03T08:22:41Z</time>
      </trkpt>
      <trkpt lat="44.41961" lon="6.17794">
        <ele>854.2</ele>
        <time>2019-09-03T08:22:42Z</time>
      </trkpt>
      <trkpt lat="44.4196" lon="6.17794">
        <ele>854.3</ele>
        <time>2019-09-03T08:22:48Z</time>
      </trkpt>
      <trkpt lat="44.41955" lon="6.178">
        <ele>853.6</ele>
        <time>2019-09-03T08:23:09Z</time>
      </trkpt>
      <trkpt lat="44.41949" lon="6.17805">
        <ele>853.1</ele>
        <time>2019-09-03T08:23:17Z</time>
      </trkpt>
      <trkpt lat="44.41952" lon="6.17816">
        <ele>851.2</ele>
        <time>2019-09-03T08:23:50Z</time>
      </trkpt>
      <trkpt lat="44.41968" lon="6.17847">
        <ele>845.2</ele>
        <time>2019-09-03T08:24:04Z</time>
      </trkpt>
      <trkpt lat="44.41975" lon="6.17871">
        <ele>840.8</ele>
        <time>2019-09-03T08:24:14Z</time>
      </trkpt>
      <trkpt lat="44.41981" lon="6.17895">
        <ele>836.5</ele>
        <time>2019-09-03T08:24:24Z</time>
      </trkpt>
      <trkpt lat="44.41982" lon="6.17898">
        <ele>836.1</ele>
        <time>2019-09-03T08:24:25Z</time>
      </trkpt>
      <trkpt lat="44.41983" lon="6.179">
        <ele>835.6</ele>
        <time>2019-09-03T08:24:26Z</time>
      </trkpt>
      <trkpt lat="44.41988" lon="6.17915">
        <ele>832.9</ele>
        <time>2019-09-03T08:24:32Z</time>
      </trkpt>
      <trkpt lat="44.41993" lon="6.1793">
        <ele>829.9</ele>
        <time>2019-09-03T08:24:38Z</time>
      </trkpt>
      <trkpt lat="44.42" lon="6.17943">
        <ele>826.9</ele>
        <time>2019-09-03T08:24:47Z</time>
      </trkpt>
      <trkpt lat="44.42001" lon="6.17943">
        <ele>826.7</ele>
        <time>2019-09-03T08:24:48Z</time>
      </trkpt>
      <trkpt lat="44.42011" lon="6.17938">
        <ele>824.8</ele>
        <time>2019-09-03T08:24:56Z</time>
      </trkpt>
      <trkpt lat="44.42012" lon="6.17936">
        <ele>824.6</ele>
        <time>2019-09-03T08:24:57Z</time>
      </trkpt>
      <trkpt lat="44.42023" lon="6.17928">
        <ele>822.9</ele>
        <time>2019-09-03T08:25:02Z</time>
      </trkpt>
      <trkpt lat="44.42026" lon="6.17926">
        <ele>822.4</ele>
        <time>2019-09-03T08:25:03Z</time>
      </trkpt>
      <trkpt lat="44.42028" lon="6.17923">
        <ele>822.1</ele>
        <time>2019-09-03T08:25:04Z</time>
      </trkpt>
      <trkpt lat="44.4203" lon="6.17921">
        <ele>821.9</ele>
        <time>2019-09-03T08:25:05Z</time>
      </trkpt>
      <trkpt lat="44.42033" lon="6.17919">
        <ele>821.5</ele>
        <time>2019-09-03T08:25:06Z</time>
      </trkpt>
      <trkpt lat="44.42035" lon="6.17918">
        <ele>820.9</ele>
        <time>2019-09-03T08:25:07Z</time>
      </trkpt>
      <trkpt lat="44.42051" lon="6.17907">
        <ele>817.9</ele>
        <time>2019-09-03T08:25:14Z</time>
      </trkpt>
      <trkpt lat="44.42066" lon="6.17897">
        <ele>815.1</ele>
        <time>2019-09-03T08:25:21Z</time>
      </trkpt>
      <trkpt lat="44.42075" lon="6.17895">
        <ele>812.8</ele>
        <time>2019-09-03T08:25:25Z</time>
      </trkpt>
      <trkpt lat="44.42094" lon="6.17889">
        <ele>810.1</ele>
        <time>2019-09-03T08:25:36Z</time>
      </trkpt>
      <trkpt lat="44.42107" lon="6.17868">
        <ele>811.8</ele>
        <time>2019-09-03T08:25:44Z</time>
      </trkpt>
      <trkpt lat="44.42115" lon="6.17853">
        <ele>812.6</ele>
        <time>2019-09-03T08:25:51Z</time>
      </trkpt>
      <trkpt lat="44.42116" lon="6.17852">
        <ele>812.5</ele>
        <time>2019-09-03T08:25:55Z</time>
      </trkpt>
      <trkpt lat="44.42117" lon="6.17861">
        <ele>811.1</ele>
        <time>2019-09-03T08:26:14Z</time>
      </trkpt>
      <trkpt lat="44.42116" lon="6.17864">
        <ele>810.9</ele>
        <time>2019-09-03T08:26:15Z</time>
      </trkpt>
      <trkpt lat="44.42115" lon="6.17867">
        <ele>810.6</ele>
        <time>2019-09-03T08:26:16Z</time>
      </trkpt>
      <trkpt lat="44.42115" lon="6.17871">
        <ele>810.2</ele>
        <time>2019-09-03T08:26:17Z</time>
      </trkpt>
      <trkpt lat="44.42114" lon="6.17875">
        <ele>809.7</ele>
        <time>2019-09-03T08:26:18Z</time>
      </trkpt>
      <trkpt lat="44.42114" lon="6.17879">
        <ele>809.2</ele>
        <time>2019-09-03T08:26:19Z</time>
      </trkpt>
      <trkpt lat="44.42114" lon="6.17883">
        <ele>808.7</ele>
        <time>2019-09-03T08:26:20Z</time>
      </trkpt>
      <trkpt lat="44.42113" lon="6.17909">
        <ele>805.3</ele>
        <time>2019-09-03T08:26:28Z</time>
      </trkpt>
      <trkpt lat="44.42111" lon="6.17932">
        <ele>803</ele>
        <time>2019-09-03T08:26:36Z</time>
      </trkpt>
      <trkpt lat="44.42129" lon="6.17946">
        <ele>800.8</ele>
        <time>2019-09-03T08:26:44Z</time>
      </trkpt>
      <trkpt lat="44.42137" lon="6.17952">
        <ele>800.1</ele>
        <time>2019-09-03T08:26:52Z</time>
      </trkpt>
      <trkpt lat="44.42137" lon="6.17961">
        <ele>799.4</ele>
        <time>2019-09-03T08:27:04Z</time>
      </trkpt>
      <trkpt lat="44.42141" lon="6.1802">
        <ele>795</ele>
        <time>2019-09-03T08:27:14Z</time>
      </trkpt>
      <trkpt lat="44.42137" lon="6.18138">
        <ele>788.6</ele>
        <time>2019-09-03T08:27:27Z</time>
      </trkpt>
      <trkpt lat="44.42135" lon="6.18224">
        <ele>784.2</ele>
        <time>2019-09-03T08:27:34Z</time>
      </trkpt>
      <trkpt lat="44.42133" lon="6.18286">
        <ele>784.7</ele>
        <time>2019-09-03T08:27:39Z</time>
      </trkpt>
      <trkpt lat="44.42133" lon="6.18295">
        <ele>785.1</ele>
        <time>2019-09-03T08:27:40Z</time>
      </trkpt>
      <trkpt lat="44.42135" lon="6.18303">
        <ele>785.4</ele>
        <time>2019-09-03T08:27:41Z</time>
      </trkpt>
      <trkpt lat="44.42137" lon="6.1831">
        <ele>785.5</ele>
        <time>2019-09-03T08:27:42Z</time>
      </trkpt>
      <trkpt lat="44.42141" lon="6.18315">
        <ele>785.4</ele>
        <time>2019-09-03T08:27:43Z</time>
      </trkpt>
      <trkpt lat="44.42145" lon="6.1832">
        <ele>785.1</ele>
        <time>2019-09-03T08:27:44Z</time>
      </trkpt>
      <trkpt lat="44.42149" lon="6.18324">
        <ele>784.8</ele>
        <time>2019-09-03T08:27:45Z</time>
      </trkpt>
      <trkpt lat="44.42196" lon="6.18371">
        <ele>784.2</ele>
        <time>2019-09-03T08:27:56Z</time>
      </trkpt>
      <trkpt lat="44.42245" lon="6.18462">
        <ele>781.1</ele>
        <time>2019-09-03T08:28:13Z</time>
      </trkpt>
      <trkpt lat="44.42247" lon="6.18468">
        <ele>781</ele>
        <time>2019-09-03T08:28:14Z</time>
      </trkpt>
      <trkpt lat="44.42249" lon="6.18475">
        <ele>781.1</ele>
        <time>2019-09-03T08:28:15Z</time>
      </trkpt>
      <trkpt lat="44.4225" lon="6.18481">
        <ele>781.2</ele>
        <time>2019-09-03T08:28:16Z</time>
      </trkpt>
      <trkpt lat="44.4225" lon="6.18488">
        <ele>781.4</ele>
        <time>2019-09-03T08:28:17Z</time>
      </trkpt>
      <trkpt lat="44.42252" lon="6.18508">
        <ele>781.9</ele>
        <time>2019-09-03T08:28:20Z</time>
      </trkpt>
      <trkpt lat="44.42252" lon="6.18514">
        <ele>781.9</ele>
        <time>2019-09-03T08:28:21Z</time>
      </trkpt>
      <trkpt lat="44.42247" lon="6.18574">
        <ele>782.5</ele>
        <time>2019-09-03T08:28:30Z</time>
      </trkpt>
      <trkpt lat="44.42249" lon="6.1858">
        <ele>782.2</ele>
        <time>2019-09-03T08:28:31Z</time>
      </trkpt>
      <trkpt lat="44.4225" lon="6.18586">
        <ele>782.2</ele>
        <time>2019-09-03T08:28:32Z</time>
      </trkpt>
      <trkpt lat="44.42253" lon="6.18592">
        <ele>782.5</ele>
        <time>2019-09-03T08:28:33Z</time>
      </trkpt>
      <trkpt lat="44.42256" lon="6.18597">
        <ele>782.8</ele>
        <time>2019-09-03T08:28:34Z</time>
      </trkpt>
      <trkpt lat="44.42259" lon="6.18601">
        <ele>783</ele>
        <time>2019-09-03T08:28:35Z</time>
      </trkpt>
      <trkpt lat="44.42264" lon="6.18604">
        <ele>783.2</ele>
        <time>2019-09-03T08:28:36Z</time>
      </trkpt>
      <trkpt lat="44.42268" lon="6.18606">
        <ele>783.4</ele>
        <time>2019-09-03T08:28:37Z</time>
      </trkpt>
      <trkpt lat="44.42273" lon="6.18608">
        <ele>783.5</ele>
        <time>2019-09-03T08:28:38Z</time>
      </trkpt>
      <trkpt lat="44.42277" lon="6.18608">
        <ele>783.6</ele>
        <time>2019-09-03T08:28:39Z</time>
      </trkpt>
      <trkpt lat="44.42282" lon="6.18609">
        <ele>783.7</ele>
        <time>2019-09-03T08:28:40Z</time>
      </trkpt>
      <trkpt lat="44.42352" lon="6.18618">
        <ele>787.4</ele>
        <time>2019-09-03T08:28:56Z</time>
      </trkpt>
      <trkpt lat="44.42354" lon="6.18621">
        <ele>788.2</ele>
        <time>2019-09-03T08:28:57Z</time>
      </trkpt>
      <trkpt lat="44.42356" lon="6.18625">
        <ele>789.1</ele>
        <time>2019-09-03T08:28:58Z</time>
      </trkpt>
      <trkpt lat="44.42356" lon="6.1863">
        <ele>789.9</ele>
        <time>2019-09-03T08:28:59Z</time>
      </trkpt>
      <trkpt lat="44.42354" lon="6.18634">
        <ele>790.4</ele>
        <time>2019-09-03T08:29:00Z</time>
      </trkpt>
      <trkpt lat="44.42351" lon="6.18637">
        <ele>790.6</ele>
        <time>2019-09-03T08:29:01Z</time>
      </trkpt>
      <trkpt lat="44.42348" lon="6.1864">
        <ele>790.7</ele>
        <time>2019-09-03T08:29:02Z</time>
      </trkpt>
      <trkpt lat="44.42345" lon="6.18643">
        <ele>790.7</ele>
        <time>2019-09-03T08:29:03Z</time>
      </trkpt>
      <trkpt lat="44.42319" lon="6.18678">
        <ele>793.8</ele>
        <time>2019-09-03T08:29:13Z</time>
      </trkpt>
      <trkpt lat="44.42299" lon="6.18729">
        <ele>798.6</ele>
        <time>2019-09-03T08:29:25Z</time>
      </trkpt>
      <trkpt lat="44.42273" lon="6.18827">
        <ele>802.6</ele>
        <time>2019-09-03T08:29:46Z</time>
      </trkpt>
      <trkpt lat="44.42265" lon="6.18897">
        <ele>804.7</ele>
        <time>2019-09-03T08:30:01Z</time>
      </trkpt>
      <trkpt lat="44.42254" lon="6.18983">
        <ele>805.3</ele>
        <time>2019-09-03T08:30:20Z</time>
      </trkpt>
      <trkpt lat="44.42253" lon="6.19044">
        <ele>809</ele>
        <time>2019-09-03T08:30:34Z</time>
      </trkpt>
      <trkpt lat="44.42225" lon="6.19096">
        <ele>808.7</ele>
        <time>2019-09-03T08:30:48Z</time>
      </trkpt>
      <trkpt lat="44.42183" lon="6.19156">
        <ele>808.2</ele>
        <time>2019-09-03T08:31:06Z</time>
      </trkpt>
      <trkpt lat="44.42163" lon="6.19219">
        <ele>811.1</ele>
        <time>2019-09-03T08:31:21Z</time>
      </trkpt>
      <trkpt lat="44.4216" lon="6.19307">
        <ele>815</ele>
        <time>2019-09-03T08:31:40Z</time>
      </trkpt>
      <trkpt lat="44.42192" lon="6.19377">
        <ele>818.1</ele>
        <time>2019-09-03T08:31:57Z</time>
      </trkpt>
      <trkpt lat="44.42228" lon="6.19454">
        <ele>818.1</ele>
        <time>2019-09-03T08:32:16Z</time>
      </trkpt>
      <trkpt lat="44.42261" lon="6.19529">
        <ele>818.8</ele>
        <time>2019-09-03T08:32:36Z</time>
      </trkpt>
      <trkpt lat="44.42286" lon="6.19589">
        <ele>822.5</ele>
        <time>2019-09-03T08:32:54Z</time>
      </trkpt>
      <trkpt lat="44.4231" lon="6.19646">
        <ele>825.8</ele>
        <time>2019-09-03T08:33:12Z</time>
      </trkpt>
      <trkpt lat="44.42333" lon="6.19702">
        <ele>827.1</ele>
        <time>2019-09-03T08:33:30Z</time>
      </trkpt>
      <trkpt lat="44.42368" lon="6.19767">
        <ele>827.7</ele>
        <time>2019-09-03T08:33:51Z</time>
      </trkpt>
      <trkpt lat="44.4241" lon="6.19817">
        <ele>829.7</ele>
        <time>2019-09-03T08:34:10Z</time>
      </trkpt>
      <trkpt lat="44.42447" lon="6.19826">
        <ele>835.2</ele>
        <time>2019-09-03T08:34:24Z</time>
      </trkpt>
      <trkpt lat="44.42475" lon="6.19792">
        <ele>837.4</ele>
        <time>2019-09-03T08:34:38Z</time>
      </trkpt>
      <trkpt lat="44.42505" lon="6.19753">
        <ele>837</ele>
        <time>2019-09-03T08:34:54Z</time>
      </trkpt>
      <trkpt lat="44.42552" lon="6.19708">
        <ele>839.6</ele>
        <time>2019-09-03T08:35:17Z</time>
      </trkpt>
      <trkpt lat="44.42603" lon="6.19684">
        <ele>840.9</ele>
        <time>2019-09-03T08:35:38Z</time>
      </trkpt>
      <trkpt lat="44.42651" lon="6.19668">
        <ele>842.1</ele>
        <time>2019-09-03T08:35:58Z</time>
      </trkpt>
      <trkpt lat="44.42689" lon="6.19678">
        <ele>843.8</ele>
        <time>2019-09-03T08:36:15Z</time>
      </trkpt>
      <trkpt lat="44.42731" lon="6.19707">
        <ele>845.1</ele>
        <time>2019-09-03T08:36:36Z</time>
      </trkpt>
      <trkpt lat="44.42765" lon="6.1974">
        <ele>847.4</ele>
        <time>2019-09-03T08:36:56Z</time>
      </trkpt>
      <trkpt lat="44.42794" lon="6.19765">
        <ele>850.6</ele>
        <time>2019-09-03T08:37:13Z</time>
      </trkpt>
      <trkpt lat="44.42828" lon="6.198">
        <ele>853.7</ele>
        <time>2019-09-03T08:37:32Z</time>
      </trkpt>
      <trkpt lat="44.42868" lon="6.19851">
        <ele>855.3</ele>
        <time>2019-09-03T08:37:47Z</time>
      </trkpt>
      <trkpt lat="44.42911" lon="6.19907">
        <ele>855.4</ele>
        <time>2019-09-03T08:38:02Z</time>
      </trkpt>
      <trkpt lat="44.42917" lon="6.19915">
        <ele>855</ele>
        <time>2019-09-03T08:38:04Z</time>
      </trkpt>
      <trkpt lat="44.42979" lon="6.19978">
        <ele>853.8</ele>
        <time>2019-09-03T08:38:19Z</time>
      </trkpt>
      <trkpt lat="44.43063" lon="6.20038">
        <ele>846.5</ele>
        <time>2019-09-03T08:38:34Z</time>
      </trkpt>
      <trkpt lat="44.43095" lon="6.20072">
        <ele>842.1</ele>
        <time>2019-09-03T08:38:40Z</time>
      </trkpt>
      <trkpt lat="44.4312" lon="6.20103">
        <ele>840.4</ele>
        <time>2019-09-03T08:38:45Z</time>
      </trkpt>
      <trkpt lat="44.43125" lon="6.20108">
        <ele>840.1</ele>
        <time>2019-09-03T08:38:46Z</time>
      </trkpt>
      <trkpt lat="44.43131" lon="6.20113">
        <ele>839.7</ele>
        <time>2019-09-03T08:38:47Z</time>
      </trkpt>
      <trkpt lat="44.43137" lon="6.20116">
        <ele>839.3</ele>
        <time>2019-09-03T08:38:48Z</time>
      </trkpt>
      <trkpt lat="44.43143" lon="6.20119">
        <ele>838.9</ele>
        <time>2019-09-03T08:38:49Z</time>
      </trkpt>
      <trkpt lat="44.4315" lon="6.20121">
        <ele>838.5</ele>
        <time>2019-09-03T08:38:50Z</time>
      </trkpt>
      <trkpt lat="44.43156" lon="6.20123">
        <ele>838.1</ele>
        <time>2019-09-03T08:38:51Z</time>
      </trkpt>
      <trkpt lat="44.43163" lon="6.20124">
        <ele>837.7</ele>
        <time>2019-09-03T08:38:52Z</time>
      </trkpt>
      <trkpt lat="44.43169" lon="6.20124">
        <ele>837.4</ele>
        <time>2019-09-03T08:38:53Z</time>
      </trkpt>
      <trkpt lat="44.43273" lon="6.20131">
        <ele>834.1</ele>
        <time>2019-09-03T08:39:08Z</time>
      </trkpt>
      <trkpt lat="44.43307" lon="6.20135">
        <ele>832.9</ele>
        <time>2019-09-03T08:39:13Z</time>
      </trkpt>
      <trkpt lat="44.43313" lon="6.20137">
        <ele>832.4</ele>
        <time>2019-09-03T08:39:14Z</time>
      </trkpt>
      <trkpt lat="44.43319" lon="6.2014">
        <ele>831.9</ele>
        <time>2019-09-03T08:39:15Z</time>
      </trkpt>
      <trkpt lat="44.43325" lon="6.20145">
        <ele>831.2</ele>
        <time>2019-09-03T08:39:16Z</time>
      </trkpt>
      <trkpt lat="44.43331" lon="6.20149">
        <ele>830.3</ele>
        <time>2019-09-03T08:39:17Z</time>
      </trkpt>
      <trkpt lat="44.434" lon="6.20196">
        <ele>824.3</ele>
        <time>2019-09-03T08:39:28Z</time>
      </trkpt>
      <trkpt lat="44.43454" lon="6.20244">
        <ele>817</ele>
        <time>2019-09-03T08:39:36Z</time>
      </trkpt>
      <trkpt lat="44.43482" lon="6.20269">
        <ele>813.1</ele>
        <time>2019-09-03T08:39:41Z</time>
      </trkpt>
      <trkpt lat="44.43488" lon="6.20271">
        <ele>812.7</ele>
        <time>2019-09-03T08:39:42Z</time>
      </trkpt>
      <trkpt lat="44.43493" lon="6.20271">
        <ele>812.6</ele>
        <time>2019-09-03T08:39:43Z</time>
      </trkpt>
      <trkpt lat="44.43499" lon="6.2027">
        <ele>812.6</ele>
        <time>2019-09-03T08:39:44Z</time>
      </trkpt>
      <trkpt lat="44.43503" lon="6.20267">
        <ele>812.6</ele>
        <time>2019-09-03T08:39:45Z</time>
      </trkpt>
      <trkpt lat="44.43508" lon="6.20264">
        <ele>812.6</ele>
        <time>2019-09-03T08:39:46Z</time>
      </trkpt>
      <trkpt lat="44.43512" lon="6.2026">
        <ele>812.7</ele>
        <time>2019-09-03T08:39:47Z</time>
      </trkpt>
      <trkpt lat="44.43516" lon="6.20255">
        <ele>812.8</ele>
        <time>2019-09-03T08:39:48Z</time>
      </trkpt>
      <trkpt lat="44.43519" lon="6.2025">
        <ele>813.1</ele>
        <time>2019-09-03T08:39:49Z</time>
      </trkpt>
      <trkpt lat="44.43521" lon="6.20245">
        <ele>813.8</ele>
        <time>2019-09-03T08:39:50Z</time>
      </trkpt>
      <trkpt lat="44.43526" lon="6.20228">
        <ele>816.5</ele>
        <time>2019-09-03T08:39:53Z</time>
      </trkpt>
      <trkpt lat="44.43527" lon="6.20222">
        <ele>817.5</ele>
        <time>2019-09-03T08:39:54Z</time>
      </trkpt>
      <trkpt lat="44.4353" lon="6.20195">
        <ele>822.4</ele>
        <time>2019-09-03T08:40:00Z</time>
      </trkpt>
      <trkpt lat="44.43532" lon="6.20192">
        <ele>823</ele>
        <time>2019-09-03T08:40:01Z</time>
      </trkpt>
      <trkpt lat="44.43534" lon="6.2019">
        <ele>823.4</ele>
        <time>2019-09-03T08:40:02Z</time>
      </trkpt>
      <trkpt lat="44.43569" lon="6.20179">
        <ele>825.7</ele>
        <time>2019-09-03T08:40:13Z</time>
      </trkpt>
      <trkpt lat="44.43585" lon="6.20199">
        <ele>820.7</ele>
        <time>2019-09-03T08:40:22Z</time>
      </trkpt>
      <trkpt lat="44.43601" lon="6.20206">
        <ele>820.8</ele>
        <time>2019-09-03T08:40:29Z</time>
      </trkpt>
      <trkpt lat="44.43605" lon="6.20206">
        <ele>821.3</ele>
        <time>2019-09-03T08:40:31Z</time>
      </trkpt>
      <trkpt lat="44.43611" lon="6.20206">
        <ele>822</ele>
        <time>2019-09-03T08:40:34Z</time>
      </trkpt>
      <trkpt lat="44.43637" lon="6.2019">
        <ele>828.6</ele>
        <time>2019-09-03T08:40:48Z</time>
      </trkpt>
      <trkpt lat="44.4365" lon="6.20175">
        <ele>833.6</ele>
        <time>2019-09-03T08:40:57Z</time>
      </trkpt>
      <trkpt lat="44.43654" lon="6.20169">
        <ele>835.4</ele>
        <time>2019-09-03T08:41:00Z</time>
      </trkpt>
      <trkpt lat="44.43657" lon="6.20166">
        <ele>836.3</ele>
        <time>2019-09-03T08:41:02Z</time>
      </trkpt>
      <trkpt lat="44.43674" lon="6.20176">
        <ele>835.5</ele>
        <time>2019-09-03T08:41:12Z</time>
      </trkpt>
      <trkpt lat="44.43687" lon="6.2018">
        <ele>835.1</ele>
        <time>2019-09-03T08:41:19Z</time>
      </trkpt>
      <trkpt lat="44.43705" lon="6.20179">
        <ele>836.5</ele>
        <time>2019-09-03T08:41:29Z</time>
      </trkpt>
      <trkpt lat="44.43729" lon="6.20176">
        <ele>838.4</ele>
        <time>2019-09-03T08:41:42Z</time>
      </trkpt>
      <trkpt lat="44.43754" lon="6.20165">
        <ele>842.3</ele>
        <time>2019-09-03T08:41:55Z</time>
      </trkpt>
      <trkpt lat="44.43786" lon="6.20148">
        <ele>845.5</ele>
        <time>2019-09-03T08:42:08Z</time>
      </trkpt>
      <trkpt lat="44.43792" lon="6.2014">
        <ele>847.3</ele>
        <time>2019-09-03T08:42:10Z</time>
      </trkpt>
      <trkpt lat="44.4381" lon="6.2012">
        <ele>851.2</ele>
        <time>2019-09-03T08:42:17Z</time>
      </trkpt>
      <trkpt lat="44.43813" lon="6.2012">
        <ele>850.9</ele>
        <time>2019-09-03T08:42:18Z</time>
      </trkpt>
      <trkpt lat="44.43816" lon="6.20122">
        <ele>850.3</ele>
        <time>2019-09-03T08:42:19Z</time>
      </trkpt>
      <trkpt lat="44.43817" lon="6.20124">
        <ele>849.7</ele>
        <time>2019-09-03T08:42:20Z</time>
      </trkpt>
      <trkpt lat="44.43819" lon="6.20126">
        <ele>849.1</ele>
        <time>2019-09-03T08:42:21Z</time>
      </trkpt>
      <trkpt lat="44.4382" lon="6.20128">
        <ele>848.6</ele>
        <time>2019-09-03T08:42:22Z</time>
      </trkpt>
      <trkpt lat="44.43822" lon="6.2013">
        <ele>848.1</ele>
        <time>2019-09-03T08:42:23Z</time>
      </trkpt>
      <trkpt lat="44.43824" lon="6.20131">
        <ele>847.6</ele>
        <time>2019-09-03T08:42:24Z</time>
      </trkpt>
      <trkpt lat="44.43826" lon="6.20133">
        <ele>847.1</ele>
        <time>2019-09-03T08:42:25Z</time>
      </trkpt>
      <trkpt lat="44.43828" lon="6.20134">
        <ele>846.8</ele>
        <time>2019-09-03T08:42:26Z</time>
      </trkpt>
      <trkpt lat="44.43831" lon="6.20134">
        <ele>846.6</ele>
        <time>2019-09-03T08:42:27Z</time>
      </trkpt>
      <trkpt lat="44.43833" lon="6.20134">
        <ele>846.5</ele>
        <time>2019-09-03T08:42:28Z</time>
      </trkpt>
      <trkpt lat="44.43835" lon="6.20133">
        <ele>846.7</ele>
        <time>2019-09-03T08:42:29Z</time>
      </trkpt>
      <trkpt lat="44.43859" lon="6.20117">
        <ele>850.9</ele>
        <time>2019-09-03T08:42:41Z</time>
      </trkpt>
      <trkpt lat="44.43882" lon="6.20101">
        <ele>854.6</ele>
        <time>2019-09-03T08:42:54Z</time>
      </trkpt>
      <trkpt lat="44.43904" lon="6.20075">
        <ele>859</ele>
        <time>2019-09-03T08:43:07Z</time>
      </trkpt>
      <trkpt lat="44.43922" lon="6.20056">
        <ele>860.8</ele>
        <time>2019-09-03T08:43:19Z</time>
      </trkpt>
      <trkpt lat="44.43938" lon="6.20047">
        <ele>861.2</ele>
        <time>2019-09-03T08:43:26Z</time>
      </trkpt>
      <trkpt lat="44.4394" lon="6.20046">
        <ele>861.2</ele>
        <time>2019-09-03T08:43:27Z</time>
      </trkpt>
      <trkpt lat="44.43941" lon="6.20045">
        <ele>861.3</ele>
        <time>2019-09-03T08:43:28Z</time>
      </trkpt>
      <trkpt lat="44.43964" lon="6.20035">
        <ele>861.4</ele>
        <time>2019-09-03T08:43:41Z</time>
      </trkpt>
      <trkpt lat="44.43988" lon="6.20024">
        <ele>861.5</ele>
        <time>2019-09-03T08:43:54Z</time>
      </trkpt>
      <trkpt lat="44.44012" lon="6.2001">
        <ele>859.7</ele>
        <time>2019-09-03T08:44:07Z</time>
      </trkpt>
      <trkpt lat="44.44045" lon="6.19978">
        <ele>854.3</ele>
        <time>2019-09-03T08:44:19Z</time>
      </trkpt>
      <trkpt lat="44.4405" lon="6.19969">
        <ele>853.3</ele>
        <time>2019-09-03T08:44:21Z</time>
      </trkpt>
      <trkpt lat="44.44052" lon="6.19964">
        <ele>852.9</ele>
        <time>2019-09-03T08:44:22Z</time>
      </trkpt>
      <trkpt lat="44.44054" lon="6.19958">
        <ele>852.6</ele>
        <time>2019-09-03T08:44:23Z</time>
      </trkpt>
      <trkpt lat="44.44059" lon="6.19935">
        <ele>851.4</ele>
        <time>2019-09-03T08:44:27Z</time>
      </trkpt>
      <trkpt lat="44.44064" lon="6.19899">
        <ele>852</ele>
        <time>2019-09-03T08:44:32Z</time>
      </trkpt>
      <trkpt lat="44.44064" lon="6.19891">
        <ele>852.9</ele>
        <time>2019-09-03T08:44:33Z</time>
      </trkpt>
      <trkpt lat="44.44064" lon="6.19883">
        <ele>853.9</ele>
        <time>2019-09-03T08:44:34Z</time>
      </trkpt>
      <trkpt lat="44.44063" lon="6.19875">
        <ele>855</ele>
        <time>2019-09-03T08:44:35Z</time>
      </trkpt>
      <trkpt lat="44.44061" lon="6.19868">
        <ele>856.1</ele>
        <time>2019-09-03T08:44:36Z</time>
      </trkpt>
      <trkpt lat="44.4406" lon="6.19861">
        <ele>857.1</ele>
        <time>2019-09-03T08:44:37Z</time>
      </trkpt>
      <trkpt lat="44.44061" lon="6.1984">
        <ele>859.2</ele>
        <time>2019-09-03T08:44:41Z</time>
      </trkpt>
      <trkpt lat="44.44066" lon="6.19829">
        <ele>859.5</ele>
        <time>2019-09-03T08:44:44Z</time>
      </trkpt>
      <trkpt lat="44.4409" lon="6.19832">
        <ele>855.4</ele>
        <time>2019-09-03T08:44:54Z</time>
      </trkpt>
      <trkpt lat="44.44124" lon="6.19844">
        <ele>853.7</ele>
        <time>2019-09-03T08:45:12Z</time>
      </trkpt>
      <trkpt lat="44.44154" lon="6.19841">
        <ele>854.4</ele>
        <time>2019-09-03T08:45:26Z</time>
      </trkpt>
      <trkpt lat="44.44186" lon="6.19834">
        <ele>855.3</ele>
        <time>2019-09-03T08:45:42Z</time>
      </trkpt>
      <trkpt lat="44.44209" lon="6.19826">
        <ele>856.4</ele>
        <time>2019-09-03T08:45:54Z</time>
      </trkpt>
      <trkpt lat="44.44233" lon="6.19811">
        <ele>858.2</ele>
        <time>2019-09-03T08:46:07Z</time>
      </trkpt>
      <trkpt lat="44.44258" lon="6.19782">
        <ele>859.7</ele>
        <time>2019-09-03T08:46:23Z</time>
      </trkpt>
      <trkpt lat="44.44269" lon="6.19745">
        <ele>860.5</ele>
        <time>2019-09-03T08:46:38Z</time>
      </trkpt>
      <trkpt lat="44.44272" lon="6.19695">
        <ele>863.4</ele>
        <time>2019-09-03T08:46:53Z</time>
      </trkpt>
      <trkpt lat="44.44274" lon="6.19651">
        <ele>865.1</ele>
        <time>2019-09-03T08:47:01Z</time>
      </trkpt>
      <trkpt lat="44.44275" lon="6.19645">
        <ele>865</ele>
        <time>2019-09-03T08:47:02Z</time>
      </trkpt>
      <trkpt lat="44.44275" lon="6.19639">
        <ele>865</ele>
        <time>2019-09-03T08:47:03Z</time>
      </trkpt>
      <trkpt lat="44.44274" lon="6.19633">
        <ele>865.2</ele>
        <time>2019-09-03T08:47:04Z</time>
      </trkpt>
      <trkpt lat="44.44273" lon="6.19627">
        <ele>865.6</ele>
        <time>2019-09-03T08:47:05Z</time>
      </trkpt>
      <trkpt lat="44.44271" lon="6.19622">
        <ele>865.9</ele>
        <time>2019-09-03T08:47:06Z</time>
      </trkpt>
      <trkpt lat="44.44269" lon="6.19618">
        <ele>866.4</ele>
        <time>2019-09-03T08:47:07Z</time>
      </trkpt>
      <trkpt lat="44.44267" lon="6.19613">
        <ele>866.9</ele>
        <time>2019-09-03T08:47:08Z</time>
      </trkpt>
      <trkpt lat="44.44265" lon="6.19609">
        <ele>867.3</ele>
        <time>2019-09-03T08:47:09Z</time>
      </trkpt>
      <trkpt lat="44.44263" lon="6.19572">
        <ele>867.5</ele>
        <time>2019-09-03T08:47:17Z</time>
      </trkpt>
      <trkpt lat="44.44246" lon="6.19525">
        <ele>870.9</ele>
        <time>2019-09-03T08:47:28Z</time>
      </trkpt>
      <trkpt lat="44.44245" lon="6.19511">
        <ele>871</ele>
        <time>2019-09-03T08:47:32Z</time>
      </trkpt>
      <trkpt lat="44.44247" lon="6.19508">
        <ele>870.2</ele>
        <time>2019-09-03T08:47:33Z</time>
      </trkpt>
      <trkpt lat="44.4425" lon="6.19507">
        <ele>869.2</ele>
        <time>2019-09-03T08:47:34Z</time>
      </trkpt>
      <trkpt lat="44.44252" lon="6.19507">
        <ele>868.9</ele>
        <time>2019-09-03T08:47:35Z</time>
      </trkpt>
      <trkpt lat="44.44255" lon="6.19508">
        <ele>868.6</ele>
        <time>2019-09-03T08:47:36Z</time>
      </trkpt>
      <trkpt lat="44.44258" lon="6.19509">
        <ele>868.4</ele>
        <time>2019-09-03T08:47:37Z</time>
      </trkpt>
      <trkpt lat="44.4426" lon="6.19511">
        <ele>868.1</ele>
        <time>2019-09-03T08:47:38Z</time>
      </trkpt>
      <trkpt lat="44.44283" lon="6.1951">
        <ele>865.8</ele>
        <time>2019-09-03T08:47:48Z</time>
      </trkpt>
      <trkpt lat="44.44285" lon="6.19506">
        <ele>865.8</ele>
        <time>2019-09-03T08:47:49Z</time>
      </trkpt>
      <trkpt lat="44.44285" lon="6.19503">
        <ele>865.9</ele>
        <time>2019-09-03T08:47:50Z</time>
      </trkpt>
      <trkpt lat="44.44286" lon="6.19499">
        <ele>866.2</ele>
        <time>2019-09-03T08:47:51Z</time>
      </trkpt>
      <trkpt lat="44.44286" lon="6.19495">
        <ele>866.7</ele>
        <time>2019-09-03T08:47:52Z</time>
      </trkpt>
      <trkpt lat="44.44285" lon="6.19492">
        <ele>867.2</ele>
        <time>2019-09-03T08:47:53Z</time>
      </trkpt>
      <trkpt lat="44.44285" lon="6.19489">
        <ele>867.7</ele>
        <time>2019-09-03T08:47:54Z</time>
      </trkpt>
      <trkpt lat="44.44284" lon="6.19486">
        <ele>868.2</ele>
        <time>2019-09-03T08:47:55Z</time>
      </trkpt>
      <trkpt lat="44.44283" lon="6.19482">
        <ele>868.7</ele>
        <time>2019-09-03T08:47:56Z</time>
      </trkpt>
      <trkpt lat="44.4428" lon="6.19466">
        <ele>871.3</ele>
        <time>2019-09-03T08:48:01Z</time>
      </trkpt>
      <trkpt lat="44.44281" lon="6.19462">
        <ele>871.7</ele>
        <time>2019-09-03T08:48:02Z</time>
      </trkpt>
      <trkpt lat="44.44283" lon="6.1946">
        <ele>871.9</ele>
        <time>2019-09-03T08:48:03Z</time>
      </trkpt>
      <trkpt lat="44.44285" lon="6.19458">
        <ele>872</ele>
        <time>2019-09-03T08:48:04Z</time>
      </trkpt>
      <trkpt lat="44.44287" lon="6.19457">
        <ele>872.1</ele>
        <time>2019-09-03T08:48:05Z</time>
      </trkpt>
      <trkpt lat="44.4429" lon="6.19456">
        <ele>872</ele>
        <time>2019-09-03T08:48:06Z</time>
      </trkpt>
      <trkpt lat="44.44292" lon="6.19456">
        <ele>871.8</ele>
        <time>2019-09-03T08:48:07Z</time>
      </trkpt>
      <trkpt lat="44.44336" lon="6.19451">
        <ele>869.4</ele>
        <time>2019-09-03T08:48:24Z</time>
      </trkpt>
      <trkpt lat="44.44373" lon="6.19428">
        <ele>868.5</ele>
        <time>2019-09-03T08:48:35Z</time>
      </trkpt>
      <trkpt lat="44.44375" lon="6.19423">
        <ele>868.8</ele>
        <time>2019-09-03T08:48:36Z</time>
      </trkpt>
      <trkpt lat="44.44377" lon="6.19418">
        <ele>869.1</ele>
        <time>2019-09-03T08:48:37Z</time>
      </trkpt>
      <trkpt lat="44.44378" lon="6.19412">
        <ele>870</ele>
        <time>2019-09-03T08:48:38Z</time>
      </trkpt>
      <trkpt lat="44.44378" lon="6.19406">
        <ele>871</ele>
        <time>2019-09-03T08:48:39Z</time>
      </trkpt>
      <trkpt lat="44.44396" lon="6.19383">
        <ele>872.9</ele>
        <time>2019-09-03T08:48:47Z</time>
      </trkpt>
      <trkpt lat="44.44446" lon="6.19356">
        <ele>876.1</ele>
        <time>2019-09-03T08:49:06Z</time>
      </trkpt>
      <trkpt lat="44.44475" lon="6.19338">
        <ele>881</ele>
        <time>2019-09-03T08:49:19Z</time>
      </trkpt>
      <trkpt lat="44.44502" lon="6.1934">
        <ele>881.2</ele>
        <time>2019-09-03T08:49:30Z</time>
      </trkpt>
      <trkpt lat="44.4455" lon="6.19364">
        <ele>870.5</ele>
        <time>2019-09-03T08:49:49Z</time>
      </trkpt>
      <trkpt lat="44.4457" lon="6.19338">
        <ele>875.9</ele>
        <time>2019-09-03T08:49:56Z</time>
      </trkpt>
      <trkpt lat="44.44574" lon="6.19334">
        <ele>876.5</ele>
        <time>2019-09-03T08:49:57Z</time>
      </trkpt>
      <trkpt lat="44.44591" lon="6.1932">
        <ele>877.8</ele>
        <time>2019-09-03T08:50:01Z</time>
      </trkpt>
      <trkpt lat="44.44612" lon="6.1929">
        <ele>881.2</ele>
        <time>2019-09-03T08:50:07Z</time>
      </trkpt>
      <trkpt lat="44.44614" lon="6.19284">
        <ele>882</ele>
        <time>2019-09-03T08:50:08Z</time>
      </trkpt>
      <trkpt lat="44.44632" lon="6.19241">
        <ele>887.4</ele>
        <time>2019-09-03T08:50:18Z</time>
      </trkpt>
      <trkpt lat="44.44636" lon="6.19237">
        <ele>887.4</ele>
        <time>2019-09-03T08:50:20Z</time>
      </trkpt>
      <trkpt lat="44.44639" lon="6.19238">
        <ele>887.1</ele>
        <time>2019-09-03T08:50:21Z</time>
      </trkpt>
      <trkpt lat="44.44642" lon="6.19239">
        <ele>886.6</ele>
        <time>2019-09-03T08:50:22Z</time>
      </trkpt>
      <trkpt lat="44.44645" lon="6.19241">
        <ele>886.2</ele>
        <time>2019-09-03T08:50:23Z</time>
      </trkpt>
      <trkpt lat="44.44648" lon="6.19243">
        <ele>885.6</ele>
        <time>2019-09-03T08:50:24Z</time>
      </trkpt>
      <trkpt lat="44.4465" lon="6.19247">
        <ele>885</ele>
        <time>2019-09-03T08:50:25Z</time>
      </trkpt>
      <trkpt lat="44.44652" lon="6.1925">
        <ele>884.3</ele>
        <time>2019-09-03T08:50:26Z</time>
      </trkpt>
      <trkpt lat="44.44685" lon="6.19308">
        <ele>876.5</ele>
        <time>2019-09-03T08:50:42Z</time>
      </trkpt>
      <trkpt lat="44.44695" lon="6.19315">
        <ele>877.1</ele>
        <time>2019-09-03T08:50:47Z</time>
      </trkpt>
      <trkpt lat="44.44697" lon="6.19313">
        <ele>877.9</ele>
        <time>2019-09-03T08:50:48Z</time>
      </trkpt>
      <trkpt lat="44.44698" lon="6.19309">
        <ele>878.6</ele>
        <time>2019-09-03T08:50:49Z</time>
      </trkpt>
      <trkpt lat="44.44698" lon="6.19305">
        <ele>879.3</ele>
        <time>2019-09-03T08:50:50Z</time>
      </trkpt>
      <trkpt lat="44.44698" lon="6.19301">
        <ele>880</ele>
        <time>2019-09-03T08:50:51Z</time>
      </trkpt>
      <trkpt lat="44.44696" lon="6.19258">
        <ele>886.7</ele>
        <time>2019-09-03T08:51:02Z</time>
      </trkpt>
      <trkpt lat="44.44696" lon="6.19251">
        <ele>887.8</ele>
        <time>2019-09-03T08:51:04Z</time>
      </trkpt>
      <trkpt lat="44.44695" lon="6.19222">
        <ele>890.7</ele>
        <time>2019-09-03T08:51:12Z</time>
      </trkpt>
      <trkpt lat="44.44684" lon="6.19184">
        <ele>892.8</ele>
        <time>2019-09-03T08:51:22Z</time>
      </trkpt>
      <trkpt lat="44.44672" lon="6.19154">
        <ele>894.1</ele>
        <time>2019-09-03T08:51:31Z</time>
      </trkpt>
      <trkpt lat="44.44671" lon="6.19131">
        <ele>896.1</ele>
        <time>2019-09-03T08:51:39Z</time>
      </trkpt>
      <trkpt lat="44.44672" lon="6.19105">
        <ele>899</ele>
        <time>2019-09-03T08:51:50Z</time>
      </trkpt>
      <trkpt lat="44.44671" lon="6.19117">
        <ele>897.6</ele>
        <time>2019-09-03T08:53:31Z</time>
      </trkpt>
      <trkpt lat="44.44668" lon="6.19144">
        <ele>894.5</ele>
        <time>2019-09-03T08:53:38Z</time>
      </trkpt>
      <trkpt lat="44.44691" lon="6.19202">
        <ele>892.1</ele>
        <time>2019-09-03T08:53:53Z</time>
      </trkpt>
      <trkpt lat="44.44697" lon="6.19228">
        <ele>890.3</ele>
        <time>2019-09-03T08:53:58Z</time>
      </trkpt>
      <trkpt lat="44.44698" lon="6.19293">
        <ele>881.3</ele>
        <time>2019-09-03T08:54:10Z</time>
      </trkpt>
      <trkpt lat="44.44697" lon="6.19312">
        <ele>878</ele>
        <time>2019-09-03T08:54:15Z</time>
      </trkpt>
      <trkpt lat="44.44695" lon="6.19313">
        <ele>877.3</ele>
        <time>2019-09-03T08:54:16Z</time>
      </trkpt>
      <trkpt lat="44.44692" lon="6.19314">
        <ele>876.8</ele>
        <time>2019-09-03T08:54:17Z</time>
      </trkpt>
      <trkpt lat="44.44689" lon="6.19312">
        <ele>876.5</ele>
        <time>2019-09-03T08:54:18Z</time>
      </trkpt>
      <trkpt lat="44.44686" lon="6.1931">
        <ele>876.5</ele>
        <time>2019-09-03T08:54:19Z</time>
      </trkpt>
      <trkpt lat="44.44684" lon="6.19306">
        <ele>876.6</ele>
        <time>2019-09-03T08:54:20Z</time>
      </trkpt>
      <trkpt lat="44.44682" lon="6.19302">
        <ele>877</ele>
        <time>2019-09-03T08:54:21Z</time>
      </trkpt>
      <trkpt lat="44.4468" lon="6.19297">
        <ele>877.5</ele>
        <time>2019-09-03T08:54:22Z</time>
      </trkpt>
      <trkpt lat="44.44678" lon="6.19291">
        <ele>878.1</ele>
        <time>2019-09-03T08:54:23Z</time>
      </trkpt>
      <trkpt lat="44.44676" lon="6.19286">
        <ele>878.6</ele>
        <time>2019-09-03T08:54:24Z</time>
      </trkpt>
      <trkpt lat="44.44673" lon="6.19281">
        <ele>878.9</ele>
        <time>2019-09-03T08:54:25Z</time>
      </trkpt>
      <trkpt lat="44.4467" lon="6.19277">
        <ele>879</ele>
        <time>2019-09-03T08:54:26Z</time>
      </trkpt>
      <trkpt lat="44.44653" lon="6.19252">
        <ele>884.1</ele>
        <time>2019-09-03T08:54:32Z</time>
      </trkpt>
      <trkpt lat="44.44647" lon="6.19244">
        <ele>885.5</ele>
        <time>2019-09-03T08:54:35Z</time>
      </trkpt>
      <trkpt lat="44.44638" lon="6.19238">
        <ele>887.2</ele>
        <time>2019-09-03T08:54:40Z</time>
      </trkpt>
      <trkpt lat="44.44632" lon="6.19234">
        <ele>888.2</ele>
        <time>2019-09-03T08:54:43Z</time>
      </trkpt>
      <trkpt lat="44.44631" lon="6.19232">
        <ele>888.6</ele>
        <time>2019-09-03T08:54:44Z</time>
      </trkpt>
      <trkpt lat="44.4463" lon="6.19229">
        <ele>889</ele>
        <time>2019-09-03T08:54:45Z</time>
      </trkpt>
      <trkpt lat="44.44628" lon="6.19227">
        <ele>889.4</ele>
        <time>2019-09-03T08:54:50Z</time>
      </trkpt>
      <trkpt lat="44.44617" lon="6.19165">
        <ele>898.1</ele>
        <time>2019-09-03T08:56:00Z</time>
      </trkpt>
      <trkpt lat="44.44615" lon="6.19154">
        <ele>898.9</ele>
        <time>2019-09-03T08:56:12Z</time>
      </trkpt>
      <trkpt lat="44.44607" lon="6.1909">
        <ele>903.2</ele>
        <time>2019-09-03T08:57:10Z</time>
      </trkpt>
      <trkpt lat="44.44606" lon="6.19082">
        <ele>903.7</ele>
        <time>2019-09-03T08:57:21Z</time>
      </trkpt>
      <trkpt lat="44.44586" lon="6.19024">
        <ele>907.2</ele>
        <time>2019-09-03T08:58:33Z</time>
      </trkpt>
      <trkpt lat="44.44576" lon="6.19002">
        <ele>910.2</ele>
        <time>2019-09-03T08:58:56Z</time>
      </trkpt>
      <trkpt lat="44.44569" lon="6.18989">
        <ele>912.5</ele>
        <time>2019-09-03T08:59:12Z</time>
      </trkpt>
      <trkpt lat="44.44564" lon="6.18979">
        <ele>914</ele>
        <time>2019-09-03T08:59:25Z</time>
      </trkpt>
      <trkpt lat="44.4456" lon="6.18917">
        <ele>916.4</ele>
        <time>2019-09-03T09:00:30Z</time>
      </trkpt>
      <trkpt lat="44.44559" lon="6.18889">
        <ele>917</ele>
        <time>2019-09-03T09:00:55Z</time>
      </trkpt>
      <trkpt lat="44.44557" lon="6.18864">
        <ele>917.7</ele>
        <time>2019-09-03T09:01:17Z</time>
      </trkpt>
      <trkpt lat="44.44557" lon="6.18862">
        <ele>917.8</ele>
        <time>2019-09-03T09:01:22Z</time>
      </trkpt>
      <trkpt lat="44.44555" lon="6.18852">
        <ele>918.1</ele>
        <time>2019-09-03T09:01:39Z</time>
      </trkpt>
      <trkpt lat="44.44539" lon="6.18802">
        <ele>917.3</ele>
        <time>2019-09-03T09:01:55Z</time>
      </trkpt>
      <trkpt lat="44.44508" lon="6.18777">
        <ele>913.9</ele>
        <time>2019-09-03T09:02:07Z</time>
      </trkpt>
      <trkpt lat="44.44475" lon="6.18754">
        <ele>913.3</ele>
        <time>2019-09-03T09:02:20Z</time>
      </trkpt>
      <trkpt lat="44.4447" lon="6.18744">
        <ele>912.5</ele>
        <time>2019-09-03T09:02:25Z</time>
      </trkpt>
      <trkpt lat="44.44471" lon="6.18741">
        <ele>912.1</ele>
        <time>2019-09-03T09:02:26Z</time>
      </trkpt>
      <trkpt lat="44.44472" lon="6.18739">
        <ele>911.8</ele>
        <time>2019-09-03T09:02:27Z</time>
      </trkpt>
      <trkpt lat="44.44473" lon="6.18738">
        <ele>911.4</ele>
        <time>2019-09-03T09:02:28Z</time>
      </trkpt>
      <trkpt lat="44.44475" lon="6.18738">
        <ele>911.1</ele>
        <time>2019-09-03T09:02:29Z</time>
      </trkpt>
      <trkpt lat="44.44477" lon="6.18738">
        <ele>910.9</ele>
        <time>2019-09-03T09:02:30Z</time>
      </trkpt>
      <trkpt lat="44.44478" lon="6.18739">
        <ele>910.7</ele>
        <time>2019-09-03T09:02:31Z</time>
      </trkpt>
      <trkpt lat="44.44481" lon="6.1874">
        <ele>910.6</ele>
        <time>2019-09-03T09:02:32Z</time>
      </trkpt>
      <trkpt lat="44.44483" lon="6.18742">
        <ele>910.5</ele>
        <time>2019-09-03T09:02:33Z</time>
      </trkpt>
      <trkpt lat="44.44485" lon="6.18744">
        <ele>910.4</ele>
        <time>2019-09-03T09:02:34Z</time>
      </trkpt>
      <trkpt lat="44.44511" lon="6.18757">
        <ele>911.2</ele>
        <time>2019-09-03T09:02:47Z</time>
      </trkpt>
      <trkpt lat="44.44512" lon="6.18758">
        <ele>911.4</ele>
        <time>2019-09-03T09:02:52Z</time>
      </trkpt>
      <trkpt lat="44.44519" lon="6.18763">
        <ele>912.7</ele>
        <time>2019-09-03T09:03:19Z</time>
      </trkpt>
      <trkpt lat="44.4452" lon="6.18762">
        <ele>912.7</ele>
        <time>2019-09-03T09:03:20Z</time>
      </trkpt>
      <trkpt lat="44.44548" lon="6.18778">
        <ele>915.8</ele>
        <time>2019-09-03T09:03:31Z</time>
      </trkpt>
      <trkpt lat="44.44557" lon="6.1878">
        <ele>916.3</ele>
        <time>2019-09-03T09:03:35Z</time>
      </trkpt>
      <trkpt lat="44.44559" lon="6.18781">
        <ele>916.4</ele>
        <time>2019-09-03T09:03:36Z</time>
      </trkpt>
      <trkpt lat="44.44562" lon="6.18782">
        <ele>916.5</ele>
        <time>2019-09-03T09:03:37Z</time>
      </trkpt>
      <trkpt lat="44.44564" lon="6.18782">
        <ele>916.6</ele>
        <time>2019-09-03T09:03:38Z</time>
      </trkpt>
      <trkpt lat="44.44567" lon="6.18781">
        <ele>916.7</ele>
        <time>2019-09-03T09:03:39Z</time>
      </trkpt>
      <trkpt lat="44.44569" lon="6.1878">
        <ele>916.7</ele>
        <time>2019-09-03T09:03:40Z</time>
      </trkpt>
      <trkpt lat="44.44571" lon="6.18778">
        <ele>916.8</ele>
        <time>2019-09-03T09:03:41Z</time>
      </trkpt>
      <trkpt lat="44.44572" lon="6.18775">
        <ele>916.9</ele>
        <time>2019-09-03T09:03:42Z</time>
      </trkpt>
      <trkpt lat="44.44573" lon="6.18772">
        <ele>916.9</ele>
        <time>2019-09-03T09:03:43Z</time>
      </trkpt>
      <trkpt lat="44.44573" lon="6.18768">
        <ele>916.9</ele>
        <time>2019-09-03T09:03:44Z</time>
      </trkpt>
      <trkpt lat="44.44571" lon="6.18765">
        <ele>916.7</ele>
        <time>2019-09-03T09:03:45Z</time>
      </trkpt>
      <trkpt lat="44.4457" lon="6.18763">
        <ele>916.6</ele>
        <time>2019-09-03T09:03:46Z</time>
      </trkpt>
      <trkpt lat="44.44568" lon="6.1876">
        <ele>916.5</ele>
        <time>2019-09-03T09:03:47Z</time>
      </trkpt>
      <trkpt lat="44.44566" lon="6.18757">
        <ele>916.3</ele>
        <time>2019-09-03T09:03:48Z</time>
      </trkpt>
      <trkpt lat="44.44565" lon="6.18754">
        <ele>916.1</ele>
        <time>2019-09-03T09:03:49Z</time>
      </trkpt>
      <trkpt lat="44.44563" lon="6.1875">
        <ele>915.8</ele>
        <time>2019-09-03T09:03:50Z</time>
      </trkpt>
      <trkpt lat="44.44561" lon="6.18746">
        <ele>915.5</ele>
        <time>2019-09-03T09:03:51Z</time>
      </trkpt>
      <trkpt lat="44.44551" lon="6.18722">
        <ele>913.6</ele>
        <time>2019-09-03T09:03:56Z</time>
      </trkpt>
      <trkpt lat="44.44543" lon="6.18641">
        <ele>908.2</ele>
        <time>2019-09-03T09:04:12Z</time>
      </trkpt>
      <trkpt lat="44.4453" lon="6.1859">
        <ele>901.2</ele>
        <time>2019-09-03T09:04:27Z</time>
      </trkpt>
      <trkpt lat="44.44537" lon="6.18526">
        <ele>894.1</ele>
        <time>2019-09-03T09:04:42Z</time>
      </trkpt>
      <trkpt lat="44.44564" lon="6.18494">
        <ele>895.4</ele>
        <time>2019-09-03T09:04:51Z</time>
      </trkpt>
      <trkpt lat="44.44603" lon="6.18481">
        <ele>896.5</ele>
        <time>2019-09-03T09:05:03Z</time>
      </trkpt>
      <trkpt lat="44.44653" lon="6.18482">
        <ele>896.7</ele>
        <time>2019-09-03T09:05:16Z</time>
      </trkpt>
      <trkpt lat="44.44657" lon="6.18484">
        <ele>897.2</ele>
        <time>2019-09-03T09:05:17Z</time>
      </trkpt>
      <trkpt lat="44.44678" lon="6.18498">
        <ele>900.3</ele>
        <time>2019-09-03T09:05:22Z</time>
      </trkpt>
      <trkpt lat="44.44682" lon="6.18502">
        <ele>901</ele>
        <time>2019-09-03T09:05:23Z</time>
      </trkpt>
      <trkpt lat="44.44705" lon="6.18515">
        <ele>902.9</ele>
        <time>2019-09-03T09:05:29Z</time>
      </trkpt>
      <trkpt lat="44.44709" lon="6.18513">
        <ele>902.3</ele>
        <time>2019-09-03T09:05:30Z</time>
      </trkpt>
      <trkpt lat="44.44712" lon="6.18511">
        <ele>901.7</ele>
        <time>2019-09-03T09:05:31Z</time>
      </trkpt>
      <trkpt lat="44.44714" lon="6.18508">
        <ele>901</ele>
        <time>2019-09-03T09:05:32Z</time>
      </trkpt>
      <trkpt lat="44.44716" lon="6.18504">
        <ele>900.2</ele>
        <time>2019-09-03T09:05:33Z</time>
      </trkpt>
      <trkpt lat="44.44718" lon="6.18501">
        <ele>899.3</ele>
        <time>2019-09-03T09:05:34Z</time>
      </trkpt>
      <trkpt lat="44.44719" lon="6.18496">
        <ele>898.4</ele>
        <time>2019-09-03T09:05:35Z</time>
      </trkpt>
      <trkpt lat="44.44721" lon="6.18492">
        <ele>897.5</ele>
        <time>2019-09-03T09:05:36Z</time>
      </trkpt>
      <trkpt lat="44.44723" lon="6.18487">
        <ele>896.6</ele>
        <time>2019-09-03T09:05:37Z</time>
      </trkpt>
      <trkpt lat="44.44725" lon="6.18484">
        <ele>895.8</ele>
        <time>2019-09-03T09:05:38Z</time>
      </trkpt>
      <trkpt lat="44.44728" lon="6.1848">
        <ele>895.1</ele>
        <time>2019-09-03T09:05:39Z</time>
      </trkpt>
      <trkpt lat="44.44761" lon="6.18442">
        <ele>888.5</ele>
        <time>2019-09-03T09:05:53Z</time>
      </trkpt>
      <trkpt lat="44.44767" lon="6.1844">
        <ele>888.3</ele>
        <time>2019-09-03T09:05:56Z</time>
      </trkpt>
      <trkpt lat="44.44769" lon="6.18441">
        <ele>888.6</ele>
        <time>2019-09-03T09:05:57Z</time>
      </trkpt>
      <trkpt lat="44.44771" lon="6.18442">
        <ele>888.9</ele>
        <time>2019-09-03T09:05:58Z</time>
      </trkpt>
      <trkpt lat="44.44795" lon="6.18452">
        <ele>891.8</ele>
        <time>2019-09-03T09:06:09Z</time>
      </trkpt>
      <trkpt lat="44.44803" lon="6.18446">
        <ele>890.8</ele>
        <time>2019-09-03T09:06:12Z</time>
      </trkpt>
      <trkpt lat="44.44804" lon="6.18443">
        <ele>890.1</ele>
        <time>2019-09-03T09:06:13Z</time>
      </trkpt>
      <trkpt lat="44.44804" lon="6.1844">
        <ele>889.3</ele>
        <time>2019-09-03T09:06:14Z</time>
      </trkpt>
      <trkpt lat="44.44805" lon="6.18437">
        <ele>888.7</ele>
        <time>2019-09-03T09:06:15Z</time>
      </trkpt>
      <trkpt lat="44.44807" lon="6.18434">
        <ele>888</ele>
        <time>2019-09-03T09:06:16Z</time>
      </trkpt>
      <trkpt lat="44.44808" lon="6.1843">
        <ele>887.2</ele>
        <time>2019-09-03T09:06:17Z</time>
      </trkpt>
      <trkpt lat="44.44837" lon="6.184">
        <ele>880.6</ele>
        <time>2019-09-03T09:06:30Z</time>
      </trkpt>
      <trkpt lat="44.44867" lon="6.18389">
        <ele>881.5</ele>
        <time>2019-09-03T09:06:40Z</time>
      </trkpt>
      <trkpt lat="44.44885" lon="6.18367">
        <ele>879.1</ele>
        <time>2019-09-03T09:06:49Z</time>
      </trkpt>
      <trkpt lat="44.449" lon="6.18346">
        <ele>877.1</ele>
        <time>2019-09-03T09:06:59Z</time>
      </trkpt>
      <trkpt lat="44.449" lon="6.18343">
        <ele>876.6</ele>
        <time>2019-09-03T09:07:00Z</time>
      </trkpt>
      <trkpt lat="44.449" lon="6.18341">
        <ele>876.2</ele>
        <time>2019-09-03T09:07:01Z</time>
      </trkpt>
      <trkpt lat="44.44899" lon="6.18339">
        <ele>875.8</ele>
        <time>2019-09-03T09:07:02Z</time>
      </trkpt>
      <trkpt lat="44.44898" lon="6.18338">
        <ele>875.4</ele>
        <time>2019-09-03T09:07:03Z</time>
      </trkpt>
      <trkpt lat="44.44896" lon="6.18337">
        <ele>875</ele>
        <time>2019-09-03T09:07:04Z</time>
      </trkpt>
      <trkpt lat="44.44894" lon="6.18336">
        <ele>874.5</ele>
        <time>2019-09-03T09:07:05Z</time>
      </trkpt>
      <trkpt lat="44.44892" lon="6.18336">
        <ele>874.1</ele>
        <time>2019-09-03T09:07:06Z</time>
      </trkpt>
      <trkpt lat="44.44889" lon="6.18336">
        <ele>873.9</ele>
        <time>2019-09-03T09:07:07Z</time>
      </trkpt>
      <trkpt lat="44.44887" lon="6.18337">
        <ele>873.8</ele>
        <time>2019-09-03T09:07:08Z</time>
      </trkpt>
      <trkpt lat="44.44884" lon="6.18338">
        <ele>873.6</ele>
        <time>2019-09-03T09:07:09Z</time>
      </trkpt>
      <trkpt lat="44.44882" lon="6.1834">
        <ele>873.7</ele>
        <time>2019-09-03T09:07:10Z</time>
      </trkpt>
      <trkpt lat="44.44881" lon="6.18342">
        <ele>873.8</ele>
        <time>2019-09-03T09:07:11Z</time>
      </trkpt>
      <trkpt lat="44.44879" lon="6.18344">
        <ele>874</ele>
        <time>2019-09-03T09:07:12Z</time>
      </trkpt>
      <trkpt lat="44.44878" lon="6.18346">
        <ele>874.2</ele>
        <time>2019-09-03T09:07:13Z</time>
      </trkpt>
      <trkpt lat="44.44869" lon="6.18356">
        <ele>875</ele>
        <time>2019-09-03T09:07:18Z</time>
      </trkpt>
      <trkpt lat="44.44838" lon="6.18352">
        <ele>870.7</ele>
        <time>2019-09-03T09:07:29Z</time>
      </trkpt>
      <trkpt lat="44.44812" lon="6.18356">
        <ele>871.7</ele>
        <time>2019-09-03T09:07:41Z</time>
      </trkpt>
      <trkpt lat="44.4481" lon="6.18354">
        <ele>871.3</ele>
        <time>2019-09-03T09:07:42Z</time>
      </trkpt>
      <trkpt lat="44.44809" lon="6.18351">
        <ele>870.8</ele>
        <time>2019-09-03T09:07:43Z</time>
      </trkpt>
      <trkpt lat="44.44808" lon="6.18348">
        <ele>870.2</ele>
        <time>2019-09-03T09:07:44Z</time>
      </trkpt>
      <trkpt lat="44.44807" lon="6.18344">
        <ele>869.5</ele>
        <time>2019-09-03T09:07:45Z</time>
      </trkpt>
      <trkpt lat="44.44795" lon="6.18296">
        <ele>861.9</ele>
        <time>2019-09-03T09:07:58Z</time>
      </trkpt>
      <trkpt lat="44.44776" lon="6.18252">
        <ele>854.6</ele>
        <time>2019-09-03T09:08:08Z</time>
      </trkpt>
      <trkpt lat="44.44768" lon="6.18232">
        <ele>852.2</ele>
        <time>2019-09-03T09:08:14Z</time>
      </trkpt>
      <trkpt lat="44.44757" lon="6.18216">
        <ele>850.4</ele>
        <time>2019-09-03T09:08:20Z</time>
      </trkpt>
      <trkpt lat="44.44738" lon="6.18173">
        <ele>846.1</ele>
        <time>2019-09-03T09:08:31Z</time>
      </trkpt>
      <trkpt lat="44.44727" lon="6.18134">
        <ele>843</ele>
        <time>2019-09-03T09:08:40Z</time>
      </trkpt>
      <trkpt lat="44.44716" lon="6.18082">
        <ele>838.6</ele>
        <time>2019-09-03T09:08:52Z</time>
      </trkpt>
      <trkpt lat="44.44708" lon="6.18048">
        <ele>833.3</ele>
        <time>2019-09-03T09:09:03Z</time>
      </trkpt>
      <trkpt lat="44.44689" lon="6.18034">
        <ele>831.4</ele>
        <time>2019-09-03T09:09:13Z</time>
      </trkpt>
      <trkpt lat="44.44685" lon="6.18039">
        <ele>832.3</ele>
        <time>2019-09-03T09:09:15Z</time>
      </trkpt>
      <trkpt lat="44.44684" lon="6.18043">
        <ele>832.9</ele>
        <time>2019-09-03T09:09:16Z</time>
      </trkpt>
      <trkpt lat="44.44683" lon="6.18047">
        <ele>833.6</ele>
        <time>2019-09-03T09:09:17Z</time>
      </trkpt>
      <trkpt lat="44.44683" lon="6.18051">
        <ele>834.3</ele>
        <time>2019-09-03T09:09:18Z</time>
      </trkpt>
      <trkpt lat="44.44683" lon="6.18056">
        <ele>835</ele>
        <time>2019-09-03T09:09:19Z</time>
      </trkpt>
      <trkpt lat="44.44676" lon="6.18085">
        <ele>839.9</ele>
        <time>2019-09-03T09:09:30Z</time>
      </trkpt>
      <trkpt lat="44.44674" lon="6.18085">
        <ele>840</ele>
        <time>2019-09-03T09:09:31Z</time>
      </trkpt>
      <trkpt lat="44.44672" lon="6.18085">
        <ele>840</ele>
        <time>2019-09-03T09:09:32Z</time>
      </trkpt>
      <trkpt lat="44.4467" lon="6.18084">
        <ele>840</ele>
        <time>2019-09-03T09:09:33Z</time>
      </trkpt>
      <trkpt lat="44.44668" lon="6.18083">
        <ele>839.8</ele>
        <time>2019-09-03T09:09:34Z</time>
      </trkpt>
      <trkpt lat="44.44648" lon="6.18047">
        <ele>832.4</ele>
        <time>2019-09-03T09:09:45Z</time>
      </trkpt>
      <trkpt lat="44.44635" lon="6.18001">
        <ele>824.2</ele>
        <time>2019-09-03T09:09:57Z</time>
      </trkpt>
      <trkpt lat="44.44632" lon="6.17949">
        <ele>814.9</ele>
        <time>2019-09-03T09:10:10Z</time>
      </trkpt>
      <trkpt lat="44.4462" lon="6.17919">
        <ele>809.3</ele>
        <time>2019-09-03T09:10:22Z</time>
      </trkpt>
      <trkpt lat="44.44621" lon="6.17917">
        <ele>808.9</ele>
        <time>2019-09-03T09:10:23Z</time>
      </trkpt>
      <trkpt lat="44.44624" lon="6.17914">
        <ele>808.4</ele>
        <time>2019-09-03T09:10:25Z</time>
      </trkpt>
      <trkpt lat="44.44626" lon="6.17914">
        <ele>808.3</ele>
        <time>2019-09-03T09:10:26Z</time>
      </trkpt>
      <trkpt lat="44.44628" lon="6.17914">
        <ele>808.4</ele>
        <time>2019-09-03T09:10:27Z</time>
      </trkpt>
      <trkpt lat="44.44629" lon="6.17915">
        <ele>808.7</ele>
        <time>2019-09-03T09:10:28Z</time>
      </trkpt>
      <trkpt lat="44.44631" lon="6.17916">
        <ele>809</ele>
        <time>2019-09-03T09:10:29Z</time>
      </trkpt>
      <trkpt lat="44.44648" lon="6.17947">
        <ele>815.1</ele>
        <time>2019-09-03T09:10:41Z</time>
      </trkpt>
      <trkpt lat="44.44657" lon="6.17962">
        <ele>818.3</ele>
        <time>2019-09-03T09:10:48Z</time>
      </trkpt>
      <trkpt lat="44.44659" lon="6.17963">
        <ele>818.5</ele>
        <time>2019-09-03T09:10:49Z</time>
      </trkpt>
      <trkpt lat="44.44661" lon="6.17963">
        <ele>818.6</ele>
        <time>2019-09-03T09:10:50Z</time>
      </trkpt>
      <trkpt lat="44.44663" lon="6.17962">
        <ele>818.5</ele>
        <time>2019-09-03T09:10:51Z</time>
      </trkpt>
      <trkpt lat="44.44664" lon="6.17961">
        <ele>818.4</ele>
        <time>2019-09-03T09:10:52Z</time>
      </trkpt>
      <trkpt lat="44.44666" lon="6.17959">
        <ele>818.1</ele>
        <time>2019-09-03T09:10:53Z</time>
      </trkpt>
      <trkpt lat="44.44667" lon="6.17957">
        <ele>817.8</ele>
        <time>2019-09-03T09:10:54Z</time>
      </trkpt>
      <trkpt lat="44.44668" lon="6.17955">
        <ele>817.3</ele>
        <time>2019-09-03T09:10:55Z</time>
      </trkpt>
      <trkpt lat="44.44669" lon="6.17952">
        <ele>816.7</ele>
        <time>2019-09-03T09:10:56Z</time>
      </trkpt>
      <trkpt lat="44.4467" lon="6.17949">
        <ele>816.1</ele>
        <time>2019-09-03T09:10:57Z</time>
      </trkpt>
      <trkpt lat="44.44671" lon="6.17946">
        <ele>815.5</ele>
        <time>2019-09-03T09:10:58Z</time>
      </trkpt>
      <trkpt lat="44.44671" lon="6.17943">
        <ele>814.9</ele>
        <time>2019-09-03T09:10:59Z</time>
      </trkpt>
      <trkpt lat="44.4468" lon="6.17908">
        <ele>807.5</ele>
        <time>2019-09-03T09:11:11Z</time>
      </trkpt>
      <trkpt lat="44.44712" lon="6.17896">
        <ele>803.7</ele>
        <time>2019-09-03T09:11:23Z</time>
      </trkpt>
      <trkpt lat="44.44737" lon="6.179">
        <ele>803.5</ele>
        <time>2019-09-03T09:11:32Z</time>
      </trkpt>
      <trkpt lat="44.44741" lon="6.179">
        <ele>803.4</ele>
        <time>2019-09-03T09:11:33Z</time>
      </trkpt>
      <trkpt lat="44.44775" lon="6.17898">
        <ele>800.8</ele>
        <time>2019-09-03T09:11:44Z</time>
      </trkpt>
      <trkpt lat="44.44793" lon="6.17894">
        <ele>798.7</ele>
        <time>2019-09-03T09:11:54Z</time>
      </trkpt>
      <trkpt lat="44.44793" lon="6.17879">
        <ele>795.4</ele>
        <time>2019-09-03T09:12:02Z</time>
      </trkpt>
      <trkpt lat="44.44766" lon="6.17868">
        <ele>794.5</ele>
        <time>2019-09-03T09:12:14Z</time>
      </trkpt>
      <trkpt lat="44.44738" lon="6.17853">
        <ele>792.5</ele>
        <time>2019-09-03T09:12:24Z</time>
      </trkpt>
      <trkpt lat="44.447" lon="6.17839">
        <ele>791.4</ele>
        <time>2019-09-03T09:12:36Z</time>
      </trkpt>
      <trkpt lat="44.4468" lon="6.17842">
        <ele>793</ele>
        <time>2019-09-03T09:12:46Z</time>
      </trkpt>
      <trkpt lat="44.44667" lon="6.17814">
        <ele>784.2</ele>
        <time>2019-09-03T09:12:56Z</time>
      </trkpt>
      <trkpt lat="44.4464" lon="6.17794">
        <ele>777.1</ele>
        <time>2019-09-03T09:13:08Z</time>
      </trkpt>
      <trkpt lat="44.44607" lon="6.17791">
        <ele>776.6</ele>
        <time>2019-09-03T09:13:20Z</time>
      </trkpt>
      <trkpt lat="44.44595" lon="6.178">
        <ele>779.4</ele>
        <time>2019-09-03T09:13:26Z</time>
      </trkpt>
      <trkpt lat="44.44594" lon="6.17801">
        <ele>779.8</ele>
        <time>2019-09-03T09:13:27Z</time>
      </trkpt>
      <trkpt lat="44.44592" lon="6.17803">
        <ele>780.4</ele>
        <time>2019-09-03T09:13:28Z</time>
      </trkpt>
      <trkpt lat="44.4456" lon="6.17833">
        <ele>791.7</ele>
        <time>2019-09-03T09:13:42Z</time>
      </trkpt>
      <trkpt lat="44.44549" lon="6.17838">
        <ele>794.2</ele>
        <time>2019-09-03T09:13:47Z</time>
      </trkpt>
      <trkpt lat="44.44547" lon="6.17837">
        <ele>794.3</ele>
        <time>2019-09-03T09:13:48Z</time>
      </trkpt>
      <trkpt lat="44.44546" lon="6.17835">
        <ele>794.1</ele>
        <time>2019-09-03T09:13:49Z</time>
      </trkpt>
      <trkpt lat="44.44545" lon="6.17833">
        <ele>793.8</ele>
        <time>2019-09-03T09:13:50Z</time>
      </trkpt>
      <trkpt lat="44.44545" lon="6.1783">
        <ele>793.3</ele>
        <time>2019-09-03T09:13:51Z</time>
      </trkpt>
      <trkpt lat="44.44545" lon="6.17826">
        <ele>792.6</ele>
        <time>2019-09-03T09:13:52Z</time>
      </trkpt>
      <trkpt lat="44.44546" lon="6.17823">
        <ele>791.7</ele>
        <time>2019-09-03T09:13:53Z</time>
      </trkpt>
      <trkpt lat="44.44547" lon="6.17819">
        <ele>790.8</ele>
        <time>2019-09-03T09:13:54Z</time>
      </trkpt>
      <trkpt lat="44.44552" lon="6.17768">
        <ele>779.5</ele>
        <time>2019-09-03T09:14:06Z</time>
      </trkpt>
      <trkpt lat="44.44555" lon="6.17749">
        <ele>774.7</ele>
        <time>2019-09-03T09:14:11Z</time>
      </trkpt>
      <trkpt lat="44.44555" lon="6.17746">
        <ele>773.8</ele>
        <time>2019-09-03T09:14:12Z</time>
      </trkpt>
      <trkpt lat="44.4455" lon="6.17697">
        <ele>763.2</ele>
        <time>2019-09-03T09:14:26Z</time>
      </trkpt>
      <trkpt lat="44.44517" lon="6.17669">
        <ele>765.1</ele>
        <time>2019-09-03T09:14:38Z</time>
      </trkpt>
      <trkpt lat="44.44473" lon="6.1766">
        <ele>761.8</ele>
        <time>2019-09-03T09:14:51Z</time>
      </trkpt>
      <trkpt lat="44.44447" lon="6.17649">
        <ele>752.1</ele>
        <time>2019-09-03T09:15:00Z</time>
      </trkpt>
      <trkpt lat="44.44444" lon="6.17649">
        <ele>751.4</ele>
        <time>2019-09-03T09:15:01Z</time>
      </trkpt>
      <trkpt lat="44.44406" lon="6.17656">
        <ele>751.1</ele>
        <time>2019-09-03T09:15:14Z</time>
      </trkpt>
      <trkpt lat="44.44373" lon="6.17677">
        <ele>756.7</ele>
        <time>2019-09-03T09:15:24Z</time>
      </trkpt>
      <trkpt lat="44.44352" lon="6.17688">
        <ele>758.5</ele>
        <time>2019-09-03T09:15:32Z</time>
      </trkpt>
      <trkpt lat="44.44336" lon="6.17685">
        <ele>755.1</ele>
        <time>2019-09-03T09:15:38Z</time>
      </trkpt>
      <trkpt lat="44.44305" lon="6.17689">
        <ele>760.4</ele>
        <time>2019-09-03T09:15:49Z</time>
      </trkpt>
      <trkpt lat="44.44276" lon="6.17654">
        <ele>748.8</ele>
        <time>2019-09-03T09:16:01Z</time>
      </trkpt>
      <trkpt lat="44.44245" lon="6.17643">
        <ele>748.6</ele>
        <time>2019-09-03T09:16:10Z</time>
      </trkpt>
      <trkpt lat="44.44216" lon="6.17624">
        <ele>745</ele>
        <time>2019-09-03T09:16:18Z</time>
      </trkpt>
      <trkpt lat="44.44199" lon="6.17601">
        <ele>738.2</ele>
        <time>2019-09-03T09:16:25Z</time>
      </trkpt>
      <trkpt lat="44.44183" lon="6.17574">
        <ele>730.2</ele>
        <time>2019-09-03T09:16:35Z</time>
      </trkpt>
      <trkpt lat="44.44182" lon="6.17566">
        <ele>728.2</ele>
        <time>2019-09-03T09:16:42Z</time>
      </trkpt>
      <trkpt lat="44.442" lon="6.1757">
        <ele>727.2</ele>
        <time>2019-09-03T09:18:02Z</time>
      </trkpt>
      <trkpt lat="44.44203" lon="6.17574">
        <ele>727.9</ele>
        <time>2019-09-03T09:18:03Z</time>
      </trkpt>
      <trkpt lat="44.44218" lon="6.17591">
        <ele>731.7</ele>
        <time>2019-09-03T09:18:09Z</time>
      </trkpt>
      <trkpt lat="44.44246" lon="6.17598">
        <ele>731.1</ele>
        <time>2019-09-03T09:18:15Z</time>
      </trkpt>
      <trkpt lat="44.44277" lon="6.17607">
        <ele>729.8</ele>
        <time>2019-09-03T09:18:23Z</time>
      </trkpt>
      <trkpt lat="44.44289" lon="6.17614">
        <ele>730.6</ele>
        <time>2019-09-03T09:18:26Z</time>
      </trkpt>
      <trkpt lat="44.44309" lon="6.17622">
        <ele>730.9</ele>
        <time>2019-09-03T09:18:32Z</time>
      </trkpt>
      <trkpt lat="44.4431" lon="6.1762">
        <ele>729.7</ele>
        <time>2019-09-03T09:18:33Z</time>
      </trkpt>
      <trkpt lat="44.44312" lon="6.17617">
        <ele>728.5</ele>
        <time>2019-09-03T09:18:34Z</time>
      </trkpt>
      <trkpt lat="44.44312" lon="6.17614">
        <ele>727.2</ele>
        <time>2019-09-03T09:18:35Z</time>
      </trkpt>
      <trkpt lat="44.44312" lon="6.17611">
        <ele>726.1</ele>
        <time>2019-09-03T09:18:36Z</time>
      </trkpt>
      <trkpt lat="44.44311" lon="6.17609">
        <ele>725.1</ele>
        <time>2019-09-03T09:18:37Z</time>
      </trkpt>
      <trkpt lat="44.44309" lon="6.17607">
        <ele>724.7</ele>
        <time>2019-09-03T09:18:38Z</time>
      </trkpt>
      <trkpt lat="44.44307" lon="6.17606">
        <ele>724.5</ele>
        <time>2019-09-03T09:18:39Z</time>
      </trkpt>
      <trkpt lat="44.44305" lon="6.17604">
        <ele>724.2</ele>
        <time>2019-09-03T09:18:40Z</time>
      </trkpt>
      <trkpt lat="44.44274" lon="6.17577">
        <ele>719.3</ele>
        <time>2019-09-03T09:18:52Z</time>
      </trkpt>
      <trkpt lat="44.4426" lon="6.17563">
        <ele>718.2</ele>
        <time>2019-09-03T09:19:00Z</time>
      </trkpt>
      <trkpt lat="44.4426" lon="6.17561">
        <ele>717.6</ele>
        <time>2019-09-03T09:19:01Z</time>
      </trkpt>
      <trkpt lat="44.44261" lon="6.17559">
        <ele>716.9</ele>
        <time>2019-09-03T09:19:02Z</time>
      </trkpt>
      <trkpt lat="44.44262" lon="6.17557">
        <ele>716.2</ele>
        <time>2019-09-03T09:19:03Z</time>
      </trkpt>
      <trkpt lat="44.44264" lon="6.17556">
        <ele>715.7</ele>
        <time>2019-09-03T09:19:04Z</time>
      </trkpt>
      <trkpt lat="44.44266" lon="6.17556">
        <ele>715.4</ele>
        <time>2019-09-03T09:19:05Z</time>
      </trkpt>
      <trkpt lat="44.44268" lon="6.17556">
        <ele>715.1</ele>
        <time>2019-09-03T09:19:06Z</time>
      </trkpt>
      <trkpt lat="44.44271" lon="6.17557">
        <ele>714.9</ele>
        <time>2019-09-03T09:19:07Z</time>
      </trkpt>
      <trkpt lat="44.44274" lon="6.17559">
        <ele>714.7</ele>
        <time>2019-09-03T09:19:08Z</time>
      </trkpt>
      <trkpt lat="44.44276" lon="6.1756">
        <ele>714.7</ele>
        <time>2019-09-03T09:19:09Z</time>
      </trkpt>
      <trkpt lat="44.44278" lon="6.17561">
        <ele>714.7</ele>
        <time>2019-09-03T09:19:10Z</time>
      </trkpt>
      <trkpt lat="44.44296" lon="6.17571">
        <ele>713.9</ele>
        <time>2019-09-03T09:19:17Z</time>
      </trkpt>
      <trkpt lat="44.44327" lon="6.17587">
        <ele>713.4</ele>
        <time>2019-09-03T09:19:28Z</time>
      </trkpt>
      <trkpt lat="44.44329" lon="6.17587">
        <ele>713.3</ele>
        <time>2019-09-03T09:19:29Z</time>
      </trkpt>
      <trkpt lat="44.44332" lon="6.17587">
        <ele>712.7</ele>
        <time>2019-09-03T09:19:30Z</time>
      </trkpt>
      <trkpt lat="44.44334" lon="6.17585">
        <ele>711.9</ele>
        <time>2019-09-03T09:19:31Z</time>
      </trkpt>
      <trkpt lat="44.44335" lon="6.17583">
        <ele>711</ele>
        <time>2019-09-03T09:19:32Z</time>
      </trkpt>
      <trkpt lat="44.44336" lon="6.1758">
        <ele>710.2</ele>
        <time>2019-09-03T09:19:33Z</time>
      </trkpt>
      <trkpt lat="44.44337" lon="6.17577">
        <ele>709.3</ele>
        <time>2019-09-03T09:19:34Z</time>
      </trkpt>
      <trkpt lat="44.44336" lon="6.17575">
        <ele>708.8</ele>
        <time>2019-09-03T09:19:35Z</time>
      </trkpt>
      <trkpt lat="44.44334" lon="6.17574">
        <ele>708.5</ele>
        <time>2019-09-03T09:19:36Z</time>
      </trkpt>
      <trkpt lat="44.44332" lon="6.17573">
        <ele>708.5</ele>
        <time>2019-09-03T09:19:37Z</time>
      </trkpt>
      <trkpt lat="44.4433" lon="6.17572">
        <ele>708.6</ele>
        <time>2019-09-03T09:19:38Z</time>
      </trkpt>
      <trkpt lat="44.44327" lon="6.1757">
        <ele>708.7</ele>
        <time>2019-09-03T09:19:39Z</time>
      </trkpt>
      <trkpt lat="44.443" lon="6.17538">
        <ele>704.9</ele>
        <time>2019-09-03T09:19:50Z</time>
      </trkpt>
      <trkpt lat="44.44271" lon="6.17518">
        <ele>704.8</ele>
        <time>2019-09-03T09:20:01Z</time>
      </trkpt>
      <trkpt lat="44.44242" lon="6.17496">
        <ele>704.8</ele>
        <time>2019-09-03T09:20:10Z</time>
      </trkpt>
      <trkpt lat="44.44232" lon="6.17485">
        <ele>706.8</ele>
        <time>2019-09-03T09:20:14Z</time>
      </trkpt>
      <trkpt lat="44.44224" lon="6.17481">
        <ele>708.4</ele>
        <time>2019-09-03T09:20:17Z</time>
      </trkpt>
      <trkpt lat="44.44222" lon="6.17479">
        <ele>709.1</ele>
        <time>2019-09-03T09:20:18Z</time>
      </trkpt>
      <trkpt lat="44.4422" lon="6.17477">
        <ele>709.7</ele>
        <time>2019-09-03T09:20:19Z</time>
      </trkpt>
      <trkpt lat="44.44218" lon="6.17474">
        <ele>710.3</ele>
        <time>2019-09-03T09:20:20Z</time>
      </trkpt>
      <trkpt lat="44.44217" lon="6.17472">
        <ele>711</ele>
        <time>2019-09-03T09:20:21Z</time>
      </trkpt>
      <trkpt lat="44.44215" lon="6.17469">
        <ele>711.6</ele>
        <time>2019-09-03T09:20:22Z</time>
      </trkpt>
      <trkpt lat="44.44215" lon="6.17466">
        <ele>712.1</ele>
        <time>2019-09-03T09:20:23Z</time>
      </trkpt>
      <trkpt lat="44.44215" lon="6.17463">
        <ele>712.6</ele>
        <time>2019-09-03T09:20:24Z</time>
      </trkpt>
      <trkpt lat="44.44216" lon="6.17461">
        <ele>713</ele>
        <time>2019-09-03T09:20:25Z</time>
      </trkpt>
      <trkpt lat="44.44217" lon="6.17459">
        <ele>713</ele>
        <time>2019-09-03T09:20:26Z</time>
      </trkpt>
      <trkpt lat="44.44218" lon="6.17457">
        <ele>712.9</ele>
        <time>2019-09-03T09:20:27Z</time>
      </trkpt>
      <trkpt lat="44.4422" lon="6.17456">
        <ele>712.8</ele>
        <time>2019-09-03T09:20:28Z</time>
      </trkpt>
      <trkpt lat="44.44226" lon="6.17453">
        <ele>711.7</ele>
        <time>2019-09-03T09:20:31Z</time>
      </trkpt>
      <trkpt lat="44.44229" lon="6.17453">
        <ele>711</ele>
        <time>2019-09-03T09:20:32Z</time>
      </trkpt>
      <trkpt lat="44.44262" lon="6.17465">
        <ele>703.1</ele>
        <time>2019-09-03T09:20:42Z</time>
      </trkpt>
      <trkpt lat="44.44266" lon="6.17464">
        <ele>702.4</ele>
        <time>2019-09-03T09:20:44Z</time>
      </trkpt>
      <trkpt lat="44.44272" lon="6.17458">
        <ele>701.5</ele>
        <time>2019-09-03T09:20:53Z</time>
      </trkpt>
      <trkpt lat="44.44281" lon="6.17457">
        <ele>699.8</ele>
        <time>2019-09-03T09:21:01Z</time>
      </trkpt>
      <trkpt lat="44.44286" lon="6.1745">
        <ele>699.1</ele>
        <time>2019-09-03T09:21:05Z</time>
      </trkpt>
      <trkpt lat="44.44289" lon="6.17449">
        <ele>698.5</ele>
        <time>2019-09-03T09:21:06Z</time>
      </trkpt>
      <trkpt lat="44.44292" lon="6.17447">
        <ele>698</ele>
        <time>2019-09-03T09:21:07Z</time>
      </trkpt>
      <trkpt lat="44.44296" lon="6.17446">
        <ele>697.3</ele>
        <time>2019-09-03T09:21:08Z</time>
      </trkpt>
      <trkpt lat="44.44299" lon="6.17445">
        <ele>696.9</ele>
        <time>2019-09-03T09:21:09Z</time>
      </trkpt>
      <trkpt lat="44.44301" lon="6.17446">
        <ele>696.3</ele>
        <time>2019-09-03T09:21:10Z</time>
      </trkpt>
      <trkpt lat="44.44304" lon="6.17447">
        <ele>695.8</ele>
        <time>2019-09-03T09:21:11Z</time>
      </trkpt>
      <trkpt lat="44.44332" lon="6.1745">
        <ele>690.5</ele>
        <time>2019-09-03T09:21:22Z</time>
      </trkpt>
      <trkpt lat="44.44363" lon="6.1744">
        <ele>688.2</ele>
        <time>2019-09-03T09:21:35Z</time>
      </trkpt>
      <trkpt lat="44.44374" lon="6.17435">
        <ele>687.5</ele>
        <time>2019-09-03T09:21:39Z</time>
      </trkpt>
      <trkpt lat="44.44377" lon="6.17433">
        <ele>687.4</ele>
        <time>2019-09-03T09:21:40Z</time>
      </trkpt>
      <trkpt lat="44.4438" lon="6.17432">
        <ele>687.2</ele>
        <time>2019-09-03T09:21:41Z</time>
      </trkpt>
      <trkpt lat="44.44383" lon="6.1743">
        <ele>687</ele>
        <time>2019-09-03T09:21:42Z</time>
      </trkpt>
      <trkpt lat="44.44386" lon="6.1743">
        <ele>686.8</ele>
        <time>2019-09-03T09:21:43Z</time>
      </trkpt>
      <trkpt lat="44.44389" lon="6.17429">
        <ele>686.6</ele>
        <time>2019-09-03T09:21:44Z</time>
      </trkpt>
      <trkpt lat="44.44391" lon="6.17428">
        <ele>686.5</ele>
        <time>2019-09-03T09:21:45Z</time>
      </trkpt>
      <trkpt lat="44.44393" lon="6.17428">
        <ele>686.4</ele>
        <time>2019-09-03T09:21:46Z</time>
      </trkpt>
      <trkpt lat="44.44395" lon="6.17427">
        <ele>686.2</ele>
        <time>2019-09-03T09:21:47Z</time>
      </trkpt>
      <trkpt lat="44.44397" lon="6.17428">
        <ele>686.1</ele>
        <time>2019-09-03T09:21:48Z</time>
      </trkpt>
      <trkpt lat="44.44399" lon="6.17428">
        <ele>685.9</ele>
        <time>2019-09-03T09:21:49Z</time>
      </trkpt>
      <trkpt lat="44.44401" lon="6.17429">
        <ele>685.7</ele>
        <time>2019-09-03T09:21:50Z</time>
      </trkpt>
      <trkpt lat="44.44403" lon="6.1743">
        <ele>685.5</ele>
        <time>2019-09-03T09:21:51Z</time>
      </trkpt>
      <trkpt lat="44.44406" lon="6.17431">
        <ele>685.3</ele>
        <time>2019-09-03T09:21:57Z</time>
      </trkpt>
      <trkpt lat="44.44404" lon="6.17435">
        <ele>685.3</ele>
        <time>2019-09-03T09:25:35Z</time>
      </trkpt>
      <trkpt lat="44.44399" lon="6.17433">
        <ele>685.7</ele>
        <time>2019-09-03T09:25:37Z</time>
      </trkpt>
      <trkpt lat="44.44397" lon="6.17431">
        <ele>685.9</ele>
        <time>2019-09-03T09:25:38Z</time>
      </trkpt>
      <trkpt lat="44.44395" lon="6.17429">
        <ele>686.2</ele>
        <time>2019-09-03T09:25:39Z</time>
      </trkpt>
      <trkpt lat="44.44392" lon="6.17428">
        <ele>686.4</ele>
        <time>2019-09-03T09:25:40Z</time>
      </trkpt>
      <trkpt lat="44.4436" lon="6.17424">
        <ele>688.9</ele>
        <time>2019-09-03T09:25:54Z</time>
      </trkpt>
      <trkpt lat="44.44354" lon="6.17396">
        <ele>696.3</ele>
        <time>2019-09-03T09:26:05Z</time>
      </trkpt>
      <trkpt lat="44.44378" lon="6.17375">
        <ele>701.9</ele>
        <time>2019-09-03T09:26:18Z</time>
      </trkpt>
      <trkpt lat="44.44387" lon="6.17366">
        <ele>704.1</ele>
        <time>2019-09-03T09:26:23Z</time>
      </trkpt>
      <trkpt lat="44.4439" lon="6.17366">
        <ele>704.1</ele>
        <time>2019-09-03T09:26:24Z</time>
      </trkpt>
      <trkpt lat="44.44393" lon="6.17364">
        <ele>704.5</ele>
        <time>2019-09-03T09:26:25Z</time>
      </trkpt>
      <trkpt lat="44.44396" lon="6.17363">
        <ele>704.4</ele>
        <time>2019-09-03T09:26:26Z</time>
      </trkpt>
      <trkpt lat="44.44399" lon="6.17362">
        <ele>704.5</ele>
        <time>2019-09-03T09:26:27Z</time>
      </trkpt>
      <trkpt lat="44.44401" lon="6.17361">
        <ele>705</ele>
        <time>2019-09-03T09:26:28Z</time>
      </trkpt>
      <trkpt lat="44.44403" lon="6.17359">
        <ele>705.3</ele>
        <time>2019-09-03T09:26:29Z</time>
      </trkpt>
      <trkpt lat="44.44405" lon="6.17358">
        <ele>705.4</ele>
        <time>2019-09-03T09:26:30Z</time>
      </trkpt>
      <trkpt lat="44.44407" lon="6.17358">
        <ele>705.5</ele>
        <time>2019-09-03T09:26:31Z</time>
      </trkpt>
      <trkpt lat="44.44409" lon="6.17356">
        <ele>705.8</ele>
        <time>2019-09-03T09:26:32Z</time>
      </trkpt>
      <trkpt lat="44.44411" lon="6.17354">
        <ele>706.5</ele>
        <time>2019-09-03T09:26:33Z</time>
      </trkpt>
      <trkpt lat="44.44413" lon="6.17352">
        <ele>706.8</ele>
        <time>2019-09-03T09:26:34Z</time>
      </trkpt>
      <trkpt lat="44.44415" lon="6.17351">
        <ele>707.2</ele>
        <time>2019-09-03T09:26:35Z</time>
      </trkpt>
      <trkpt lat="44.44418" lon="6.17349">
        <ele>707.6</ele>
        <time>2019-09-03T09:26:36Z</time>
      </trkpt>
      <trkpt lat="44.4442" lon="6.17348">
        <ele>707.9</ele>
        <time>2019-09-03T09:26:37Z</time>
      </trkpt>
      <trkpt lat="44.44438" lon="6.17344">
        <ele>707.1</ele>
        <time>2019-09-03T09:26:45Z</time>
      </trkpt>
      <trkpt lat="44.44451" lon="6.17328">
        <ele>709.9</ele>
        <time>2019-09-03T09:26:54Z</time>
      </trkpt>
      <trkpt lat="44.44446" lon="6.17295">
        <ele>720.4</ele>
        <time>2019-09-03T09:27:05Z</time>
      </trkpt>
      <trkpt lat="44.44449" lon="6.17291">
        <ele>721.2</ele>
        <time>2019-09-03T09:27:08Z</time>
      </trkpt>
      <trkpt lat="44.44465" lon="6.1728">
        <ele>721.4</ele>
        <time>2019-09-03T09:27:19Z</time>
      </trkpt>
      <trkpt lat="44.4448" lon="6.17294">
        <ele>714.9</ele>
        <time>2019-09-03T09:27:30Z</time>
      </trkpt>
      <trkpt lat="44.44483" lon="6.17296">
        <ele>713.9</ele>
        <time>2019-09-03T09:27:32Z</time>
      </trkpt>
      <trkpt lat="44.44501" lon="6.17299">
        <ele>710.1</ele>
        <time>2019-09-03T09:27:41Z</time>
      </trkpt>
      <trkpt lat="44.44503" lon="6.17298">
        <ele>710.5</ele>
        <time>2019-09-03T09:27:42Z</time>
      </trkpt>
      <trkpt lat="44.44504" lon="6.17296">
        <ele>711</ele>
        <time>2019-09-03T09:27:43Z</time>
      </trkpt>
      <trkpt lat="44.44505" lon="6.17294">
        <ele>711.5</ele>
        <time>2019-09-03T09:27:44Z</time>
      </trkpt>
      <trkpt lat="44.44506" lon="6.17291">
        <ele>712.1</ele>
        <time>2019-09-03T09:27:45Z</time>
      </trkpt>
      <trkpt lat="44.44506" lon="6.17289">
        <ele>712.7</ele>
        <time>2019-09-03T09:27:46Z</time>
      </trkpt>
      <trkpt lat="44.44507" lon="6.1726">
        <ele>719.8</ele>
        <time>2019-09-03T09:27:57Z</time>
      </trkpt>
      <trkpt lat="44.4451" lon="6.17242">
        <ele>725.4</ele>
        <time>2019-09-03T09:28:05Z</time>
      </trkpt>
      <trkpt lat="44.44511" lon="6.1724">
        <ele>726.4</ele>
        <time>2019-09-03T09:28:06Z</time>
      </trkpt>
      <trkpt lat="44.44512" lon="6.17237">
        <ele>727.2</ele>
        <time>2019-09-03T09:28:07Z</time>
      </trkpt>
      <trkpt lat="44.44526" lon="6.17224">
        <ele>732.8</ele>
        <time>2019-09-03T09:28:17Z</time>
      </trkpt>
      <trkpt lat="44.44547" lon="6.17232">
        <ele>730.7</ele>
        <time>2019-09-03T09:28:29Z</time>
      </trkpt>
      <trkpt lat="44.44548" lon="6.17234">
        <ele>730.3</ele>
        <time>2019-09-03T09:28:30Z</time>
      </trkpt>
      <trkpt lat="44.4455" lon="6.17235">
        <ele>729.8</ele>
        <time>2019-09-03T09:28:31Z</time>
      </trkpt>
      <trkpt lat="44.44565" lon="6.17265">
        <ele>720.4</ele>
        <time>2019-09-03T09:28:45Z</time>
      </trkpt>
      <trkpt lat="44.44587" lon="6.17263">
        <ele>720.6</ele>
        <time>2019-09-03T09:28:57Z</time>
      </trkpt>
      <trkpt lat="44.44589" lon="6.1723">
        <ele>731.8</ele>
        <time>2019-09-03T09:29:10Z</time>
      </trkpt>
      <trkpt lat="44.44592" lon="6.17195">
        <ele>743.1</ele>
        <time>2019-09-03T09:29:24Z</time>
      </trkpt>
      <trkpt lat="44.44595" lon="6.17192">
        <ele>743.2</ele>
        <time>2019-09-03T09:29:26Z</time>
      </trkpt>
      <trkpt lat="44.44596" lon="6.17192">
        <ele>742.8</ele>
        <time>2019-09-03T09:29:27Z</time>
      </trkpt>
      <trkpt lat="44.44617" lon="6.17184">
        <ele>738.7</ele>
        <time>2019-09-03T09:29:39Z</time>
      </trkpt>
      <trkpt lat="44.44619" lon="6.17183">
        <ele>738.4</ele>
        <time>2019-09-03T09:29:40Z</time>
      </trkpt>
      <trkpt lat="44.44621" lon="6.17182">
        <ele>738</ele>
        <time>2019-09-03T09:29:41Z</time>
      </trkpt>
      <trkpt lat="44.44623" lon="6.17181">
        <ele>737.8</ele>
        <time>2019-09-03T09:29:42Z</time>
      </trkpt>
      <trkpt lat="44.44625" lon="6.1718">
        <ele>737.7</ele>
        <time>2019-09-03T09:29:43Z</time>
      </trkpt>
      <trkpt lat="44.44627" lon="6.17178">
        <ele>737.6</ele>
        <time>2019-09-03T09:29:44Z</time>
      </trkpt>
      <trkpt lat="44.44628" lon="6.17176">
        <ele>737.5</ele>
        <time>2019-09-03T09:29:45Z</time>
      </trkpt>
      <trkpt lat="44.4463" lon="6.17175">
        <ele>737.4</ele>
        <time>2019-09-03T09:29:46Z</time>
      </trkpt>
      <trkpt lat="44.44631" lon="6.17174">
        <ele>737.3</ele>
        <time>2019-09-03T09:29:47Z</time>
      </trkpt>
      <trkpt lat="44.44636" lon="6.17168">
        <ele>737.2</ele>
        <time>2019-09-03T09:29:51Z</time>
      </trkpt>
      <trkpt lat="44.44637" lon="6.17159">
        <ele>739</ele>
        <time>2019-09-03T09:29:55Z</time>
      </trkpt>
      <trkpt lat="44.44637" lon="6.17157">
        <ele>739.6</ele>
        <time>2019-09-03T09:29:56Z</time>
      </trkpt>
      <trkpt lat="44.44637" lon="6.17154">
        <ele>740.4</ele>
        <time>2019-09-03T09:29:57Z</time>
      </trkpt>
      <trkpt lat="44.44637" lon="6.17151">
        <ele>741.1</ele>
        <time>2019-09-03T09:29:58Z</time>
      </trkpt>
      <trkpt lat="44.44638" lon="6.17149">
        <ele>741.6</ele>
        <time>2019-09-03T09:29:59Z</time>
      </trkpt>
      <trkpt lat="44.44638" lon="6.17147">
        <ele>741.9</ele>
        <time>2019-09-03T09:30:00Z</time>
      </trkpt>
      <trkpt lat="44.44638" lon="6.17145">
        <ele>742.3</ele>
        <time>2019-09-03T09:30:01Z</time>
      </trkpt>
      <trkpt lat="44.44637" lon="6.17145">
        <ele>742.9</ele>
        <time>2019-09-03T09:30:05Z</time>
      </trkpt>
      <trkpt lat="44.4463" lon="6.17148">
        <ele>744.6</ele>
        <time>2019-09-03T09:31:51Z</time>
      </trkpt>
      <trkpt lat="44.44628" lon="6.1715">
        <ele>744.6</ele>
        <time>2019-09-03T09:31:52Z</time>
      </trkpt>
      <trkpt lat="44.44626" lon="6.17153">
        <ele>744.5</ele>
        <time>2019-09-03T09:31:53Z</time>
      </trkpt>
      <trkpt lat="44.44625" lon="6.17156">
        <ele>744.2</ele>
        <time>2019-09-03T09:31:54Z</time>
      </trkpt>
      <trkpt lat="44.44624" lon="6.17158">
        <ele>744</ele>
        <time>2019-09-03T09:31:55Z</time>
      </trkpt>
      <trkpt lat="44.44622" lon="6.17161">
        <ele>743.8</ele>
        <time>2019-09-03T09:31:56Z</time>
      </trkpt>
      <trkpt lat="44.44621" lon="6.17164">
        <ele>743.7</ele>
        <time>2019-09-03T09:31:57Z</time>
      </trkpt>
      <trkpt lat="44.4462" lon="6.17166">
        <ele>743.6</ele>
        <time>2019-09-03T09:31:58Z</time>
      </trkpt>
      <trkpt lat="44.44593" lon="6.17169">
        <ele>751.8</ele>
        <time>2019-09-03T09:32:12Z</time>
      </trkpt>
      <trkpt lat="44.44566" lon="6.1717">
        <ele>754</ele>
        <time>2019-09-03T09:32:26Z</time>
      </trkpt>
      <trkpt lat="44.44541" lon="6.1716">
        <ele>756.4</ele>
        <time>2019-09-03T09:32:40Z</time>
      </trkpt>
      <trkpt lat="44.44519" lon="6.1715">
        <ele>759.2</ele>
        <time>2019-09-03T09:32:52Z</time>
      </trkpt>
      <trkpt lat="44.44491" lon="6.17143">
        <ele>761.9</ele>
        <time>2019-09-03T09:33:07Z</time>
      </trkpt>
      <trkpt lat="44.44462" lon="6.17145">
        <ele>763.8</ele>
        <time>2019-09-03T09:33:22Z</time>
      </trkpt>
      <trkpt lat="44.44422" lon="6.1714">
        <ele>768.7</ele>
        <time>2019-09-03T09:33:41Z</time>
      </trkpt>
      <trkpt lat="44.44398" lon="6.17159">
        <ele>767.1</ele>
        <time>2019-09-03T09:33:54Z</time>
      </trkpt>
      <trkpt lat="44.44377" lon="6.17178">
        <ele>765.9</ele>
        <time>2019-09-03T09:34:06Z</time>
      </trkpt>
      <trkpt lat="44.44359" lon="6.17203">
        <ele>762.1</ele>
        <time>2019-09-03T09:34:21Z</time>
      </trkpt>
      <trkpt lat="44.44352" lon="6.17182">
        <ele>769.7</ele>
        <time>2019-09-03T09:34:31Z</time>
      </trkpt>
      <trkpt lat="44.44351" lon="6.17177">
        <ele>771.2</ele>
        <time>2019-09-03T09:34:33Z</time>
      </trkpt>
      <trkpt lat="44.4435" lon="6.17175">
        <ele>772.1</ele>
        <time>2019-09-03T09:34:34Z</time>
      </trkpt>
      <trkpt lat="44.44349" lon="6.1717">
        <ele>773.8</ele>
        <time>2019-09-03T09:34:36Z</time>
      </trkpt>
      <trkpt lat="44.44348" lon="6.17169">
        <ele>774.5</ele>
        <time>2019-09-03T09:34:37Z</time>
      </trkpt>
      <trkpt lat="44.44347" lon="6.17166">
        <ele>775.3</ele>
        <time>2019-09-03T09:34:38Z</time>
      </trkpt>
      <trkpt lat="44.44345" lon="6.17165">
        <ele>776.2</ele>
        <time>2019-09-03T09:34:39Z</time>
      </trkpt>
      <trkpt lat="44.44344" lon="6.17163">
        <ele>777</ele>
        <time>2019-09-03T09:34:40Z</time>
      </trkpt>
      <trkpt lat="44.44343" lon="6.17161">
        <ele>777.8</ele>
        <time>2019-09-03T09:34:41Z</time>
      </trkpt>
      <trkpt lat="44.44322" lon="6.17141">
        <ele>785.9</ele>
        <time>2019-09-03T09:34:55Z</time>
      </trkpt>
      <trkpt lat="44.44301" lon="6.17146">
        <ele>784.4</ele>
        <time>2019-09-03T09:35:07Z</time>
      </trkpt>
      <trkpt lat="44.4429" lon="6.17126">
        <ele>791.3</ele>
        <time>2019-09-03T09:35:17Z</time>
      </trkpt>
      <trkpt lat="44.44276" lon="6.17117">
        <ele>794.9</ele>
        <time>2019-09-03T09:35:25Z</time>
      </trkpt>
      <trkpt lat="44.44275" lon="6.17118">
        <ele>794.5</ele>
        <time>2019-09-03T09:35:26Z</time>
      </trkpt>
      <trkpt lat="44.44274" lon="6.1712">
        <ele>794</ele>
        <time>2019-09-03T09:35:27Z</time>
      </trkpt>
      <trkpt lat="44.44254" lon="6.17123">
        <ele>793.3</ele>
        <time>2019-09-03T09:35:39Z</time>
      </trkpt>
      <trkpt lat="44.44245" lon="6.17102">
        <ele>802.6</ele>
        <time>2019-09-03T09:35:49Z</time>
      </trkpt>
      <trkpt lat="44.44231" lon="6.1708">
        <ele>814.4</ele>
        <time>2019-09-03T09:36:01Z</time>
      </trkpt>
      <trkpt lat="44.44229" lon="6.17079">
        <ele>814.9</ele>
        <time>2019-09-03T09:36:02Z</time>
      </trkpt>
      <trkpt lat="44.44209" lon="6.17091">
        <ele>814</ele>
        <time>2019-09-03T09:36:14Z</time>
      </trkpt>
      <trkpt lat="44.44188" lon="6.17101">
        <ele>814.6</ele>
        <time>2019-09-03T09:36:26Z</time>
      </trkpt>
      <trkpt lat="44.44164" lon="6.17099">
        <ele>820</ele>
        <time>2019-09-03T09:36:38Z</time>
      </trkpt>
      <trkpt lat="44.4414" lon="6.17109">
        <ele>819.3</ele>
        <time>2019-09-03T09:36:51Z</time>
      </trkpt>
      <trkpt lat="44.44117" lon="6.17096">
        <ele>825.2</ele>
        <time>2019-09-03T09:37:04Z</time>
      </trkpt>
      <trkpt lat="44.44099" lon="6.17084">
        <ele>829.7</ele>
        <time>2019-09-03T09:37:15Z</time>
      </trkpt>
      <trkpt lat="44.44097" lon="6.17085">
        <ele>829.7</ele>
        <time>2019-09-03T09:37:16Z</time>
      </trkpt>
      <trkpt lat="44.44078" lon="6.17111">
        <ele>824.9</ele>
        <time>2019-09-03T09:37:30Z</time>
      </trkpt>
      <trkpt lat="44.44052" lon="6.17119">
        <ele>822</ele>
        <time>2019-09-03T09:37:44Z</time>
      </trkpt>
      <trkpt lat="44.4402" lon="6.17123">
        <ele>820</ele>
        <time>2019-09-03T09:38:01Z</time>
      </trkpt>
      <trkpt lat="44.44017" lon="6.17116">
        <ele>821.1</ele>
        <time>2019-09-03T09:38:04Z</time>
      </trkpt>
      <trkpt lat="44.44017" lon="6.17113">
        <ele>821.5</ele>
        <time>2019-09-03T09:38:05Z</time>
      </trkpt>
      <trkpt lat="44.44018" lon="6.17111">
        <ele>822</ele>
        <time>2019-09-03T09:38:06Z</time>
      </trkpt>
      <trkpt lat="44.44041" lon="6.17099">
        <ele>825.2</ele>
        <time>2019-09-03T09:38:19Z</time>
      </trkpt>
      <trkpt lat="44.44061" lon="6.17082">
        <ele>829.8</ele>
        <time>2019-09-03T09:38:32Z</time>
      </trkpt>
      <trkpt lat="44.44076" lon="6.17059">
        <ele>839.3</ele>
        <time>2019-09-03T09:38:44Z</time>
      </trkpt>
      <trkpt lat="44.44097" lon="6.17041">
        <ele>846.1</ele>
        <time>2019-09-03T09:38:57Z</time>
      </trkpt>
      <trkpt lat="44.44125" lon="6.17048">
        <ele>842</ele>
        <time>2019-09-03T09:39:10Z</time>
      </trkpt>
      <trkpt lat="44.44152" lon="6.17036">
        <ele>845.5</ele>
        <time>2019-09-03T09:39:25Z</time>
      </trkpt>
      <trkpt lat="44.44184" lon="6.1703">
        <ele>844.7</ele>
        <time>2019-09-03T09:39:41Z</time>
      </trkpt>
      <trkpt lat="44.44195" lon="6.17007">
        <ele>852.9</ele>
        <time>2019-09-03T09:39:52Z</time>
      </trkpt>
      <trkpt lat="44.44199" lon="6.16987">
        <ele>861</ele>
        <time>2019-09-03T09:40:01Z</time>
      </trkpt>
      <trkpt lat="44.44202" lon="6.16978">
        <ele>864.1</ele>
        <time>2019-09-03T09:40:05Z</time>
      </trkpt>
      <trkpt lat="44.44228" lon="6.16978">
        <ele>860.6</ele>
        <time>2019-09-03T09:40:19Z</time>
      </trkpt>
      <trkpt lat="44.44255" lon="6.16985">
        <ele>853.6</ele>
        <time>2019-09-03T09:40:33Z</time>
      </trkpt>
      <trkpt lat="44.44275" lon="6.16973">
        <ele>854.2</ele>
        <time>2019-09-03T09:40:45Z</time>
      </trkpt>
      <trkpt lat="44.44275" lon="6.1697">
        <ele>855.2</ele>
        <time>2019-09-03T09:40:46Z</time>
      </trkpt>
      <trkpt lat="44.44274" lon="6.16968">
        <ele>856.4</ele>
        <time>2019-09-03T09:40:47Z</time>
      </trkpt>
      <trkpt lat="44.44273" lon="6.16965">
        <ele>857.5</ele>
        <time>2019-09-03T09:40:48Z</time>
      </trkpt>
      <trkpt lat="44.44272" lon="6.16963">
        <ele>858.6</ele>
        <time>2019-09-03T09:40:49Z</time>
      </trkpt>
      <trkpt lat="44.4427" lon="6.16961">
        <ele>859.6</ele>
        <time>2019-09-03T09:40:50Z</time>
      </trkpt>
      <trkpt lat="44.44268" lon="6.16961">
        <ele>860.4</ele>
        <time>2019-09-03T09:40:51Z</time>
      </trkpt>
      <trkpt lat="44.44267" lon="6.1696">
        <ele>860.8</ele>
        <time>2019-09-03T09:40:52Z</time>
      </trkpt>
      <trkpt lat="44.44265" lon="6.16961">
        <ele>861.2</ele>
        <time>2019-09-03T09:40:53Z</time>
      </trkpt>
      <trkpt lat="44.44263" lon="6.16961">
        <ele>861.5</ele>
        <time>2019-09-03T09:40:54Z</time>
      </trkpt>
      <trkpt lat="44.44234" lon="6.16962">
        <ele>866.3</ele>
        <time>2019-09-03T09:41:09Z</time>
      </trkpt>
      <trkpt lat="44.44203" lon="6.16941">
        <ele>879.5</ele>
        <time>2019-09-03T09:41:27Z</time>
      </trkpt>
      <trkpt lat="44.44178" lon="6.16945">
        <ele>881.4</ele>
        <time>2019-09-03T09:41:40Z</time>
      </trkpt>
      <trkpt lat="44.4416" lon="6.16976">
        <ele>870.5</ele>
        <time>2019-09-03T09:41:55Z</time>
      </trkpt>
      <trkpt lat="44.4413" lon="6.16973">
        <ele>873.2</ele>
        <time>2019-09-03T09:42:10Z</time>
      </trkpt>
      <trkpt lat="44.44104" lon="6.16962">
        <ele>879.3</ele>
        <time>2019-09-03T09:42:24Z</time>
      </trkpt>
      <trkpt lat="44.44081" lon="6.16947">
        <ele>887.6</ele>
        <time>2019-09-03T09:42:37Z</time>
      </trkpt>
      <trkpt lat="44.44058" lon="6.16958">
        <ele>878.1</ele>
        <time>2019-09-03T09:42:51Z</time>
      </trkpt>
      <trkpt lat="44.44042" lon="6.16964">
        <ele>872.3</ele>
        <time>2019-09-03T09:43:03Z</time>
      </trkpt>
      <trkpt lat="44.44031" lon="6.16935">
        <ele>881.7</ele>
        <time>2019-09-03T09:43:15Z</time>
      </trkpt>
      <trkpt lat="44.44007" lon="6.1692">
        <ele>881.9</ele>
        <time>2019-09-03T09:43:29Z</time>
      </trkpt>
      <trkpt lat="44.44003" lon="6.16886">
        <ele>890.7</ele>
        <time>2019-09-03T09:43:42Z</time>
      </trkpt>
      <trkpt lat="44.44015" lon="6.16856">
        <ele>902.9</ele>
        <time>2019-09-03T09:43:55Z</time>
      </trkpt>
      <trkpt lat="44.4401" lon="6.16822">
        <ele>911.8</ele>
        <time>2019-09-03T09:44:09Z</time>
      </trkpt>
      <trkpt lat="44.43984" lon="6.16796">
        <ele>912.6</ele>
        <time>2019-09-03T09:44:26Z</time>
      </trkpt>
      <trkpt lat="44.43961" lon="6.16787">
        <ele>910.5</ele>
        <time>2019-09-03T09:44:39Z</time>
      </trkpt>
      <trkpt lat="44.43951" lon="6.16763">
        <ele>915.5</ele>
        <time>2019-09-03T09:44:50Z</time>
      </trkpt>
      <trkpt lat="44.43931" lon="6.16734">
        <ele>920.2</ele>
        <time>2019-09-03T09:45:05Z</time>
      </trkpt>
      <trkpt lat="44.43908" lon="6.16707">
        <ele>924.2</ele>
        <time>2019-09-03T09:45:21Z</time>
      </trkpt>
      <trkpt lat="44.43885" lon="6.1671">
        <ele>920.5</ele>
        <time>2019-09-03T09:45:34Z</time>
      </trkpt>
      <trkpt lat="44.43872" lon="6.16684">
        <ele>926.6</ele>
        <time>2019-09-03T09:45:47Z</time>
      </trkpt>
      <trkpt lat="44.43856" lon="6.16664">
        <ele>930</ele>
        <time>2019-09-03T09:45:58Z</time>
      </trkpt>
      <trkpt lat="44.43844" lon="6.16641">
        <ele>935</ele>
        <time>2019-09-03T09:46:09Z</time>
      </trkpt>
      <trkpt lat="44.43844" lon="6.16638">
        <ele>935.7</ele>
        <time>2019-09-03T09:46:10Z</time>
      </trkpt>
      <trkpt lat="44.43843" lon="6.16635">
        <ele>936.4</ele>
        <time>2019-09-03T09:46:11Z</time>
      </trkpt>
      <trkpt lat="44.43843" lon="6.16633">
        <ele>937.1</ele>
        <time>2019-09-03T09:46:12Z</time>
      </trkpt>
      <trkpt lat="44.43843" lon="6.1663">
        <ele>937.9</ele>
        <time>2019-09-03T09:46:13Z</time>
      </trkpt>
      <trkpt lat="44.43843" lon="6.16628">
        <ele>938.6</ele>
        <time>2019-09-03T09:46:14Z</time>
      </trkpt>
      <trkpt lat="44.43843" lon="6.16625">
        <ele>939.3</ele>
        <time>2019-09-03T09:46:15Z</time>
      </trkpt>
      <trkpt lat="44.43829" lon="6.16599">
        <ele>944.3</ele>
        <time>2019-09-03T09:46:28Z</time>
      </trkpt>
      <trkpt lat="44.43805" lon="6.16604">
        <ele>940.6</ele>
        <time>2019-09-03T09:46:41Z</time>
      </trkpt>
      <trkpt lat="44.4378" lon="6.16601">
        <ele>939.1</ele>
        <time>2019-09-03T09:46:54Z</time>
      </trkpt>
      <trkpt lat="44.43754" lon="6.16588">
        <ele>940</ele>
        <time>2019-09-03T09:47:09Z</time>
      </trkpt>
      <trkpt lat="44.43724" lon="6.16578">
        <ele>935.1</ele>
        <time>2019-09-03T09:47:26Z</time>
      </trkpt>
      <trkpt lat="44.4371" lon="6.16551">
        <ele>936.5</ele>
        <time>2019-09-03T09:47:40Z</time>
      </trkpt>
      <trkpt lat="44.43708" lon="6.16548">
        <ele>936.6</ele>
        <time>2019-09-03T09:47:46Z</time>
      </trkpt>
      <trkpt lat="44.43717" lon="6.16536">
        <ele>941.4</ele>
        <time>2019-09-03T09:52:22Z</time>
      </trkpt>
      <trkpt lat="44.43747" lon="6.1654">
        <ele>949.1</ele>
        <time>2019-09-03T09:52:37Z</time>
      </trkpt>
      <trkpt lat="44.4377" lon="6.16541">
        <ele>952.9</ele>
        <time>2019-09-03T09:52:49Z</time>
      </trkpt>
      <trkpt lat="44.43796" lon="6.16542">
        <ele>956.9</ele>
        <time>2019-09-03T09:53:04Z</time>
      </trkpt>
      <trkpt lat="44.438" lon="6.16537">
        <ele>958.9</ele>
        <time>2019-09-03T09:53:07Z</time>
      </trkpt>
      <trkpt lat="44.43801" lon="6.16535">
        <ele>959.7</ele>
        <time>2019-09-03T09:53:08Z</time>
      </trkpt>
      <trkpt lat="44.43801" lon="6.16532">
        <ele>960.5</ele>
        <time>2019-09-03T09:53:09Z</time>
      </trkpt>
      <trkpt lat="44.43801" lon="6.1653">
        <ele>961.2</ele>
        <time>2019-09-03T09:53:10Z</time>
      </trkpt>
      <trkpt lat="44.43801" lon="6.16527">
        <ele>961.8</ele>
        <time>2019-09-03T09:53:11Z</time>
      </trkpt>
      <trkpt lat="44.438" lon="6.16525">
        <ele>962.3</ele>
        <time>2019-09-03T09:53:12Z</time>
      </trkpt>
      <trkpt lat="44.43798" lon="6.16523">
        <ele>962.6</ele>
        <time>2019-09-03T09:53:13Z</time>
      </trkpt>
      <trkpt lat="44.43797" lon="6.16521">
        <ele>962.8</ele>
        <time>2019-09-03T09:53:14Z</time>
      </trkpt>
      <trkpt lat="44.43795" lon="6.1652">
        <ele>962.8</ele>
        <time>2019-09-03T09:53:15Z</time>
      </trkpt>
      <trkpt lat="44.43793" lon="6.16519">
        <ele>962.8</ele>
        <time>2019-09-03T09:53:16Z</time>
      </trkpt>
      <trkpt lat="44.43792" lon="6.16518">
        <ele>962.8</ele>
        <time>2019-09-03T09:53:17Z</time>
      </trkpt>
      <trkpt lat="44.4379" lon="6.16517">
        <ele>962.7</ele>
        <time>2019-09-03T09:53:18Z</time>
      </trkpt>
      <trkpt lat="44.43779" lon="6.16511">
        <ele>961.8</ele>
        <time>2019-09-03T09:53:24Z</time>
      </trkpt>
      <trkpt lat="44.43778" lon="6.1651">
        <ele>961.9</ele>
        <time>2019-09-03T09:53:25Z</time>
      </trkpt>
      <trkpt lat="44.43776" lon="6.16509">
        <ele>961.8</ele>
        <time>2019-09-03T09:53:26Z</time>
      </trkpt>
      <trkpt lat="44.43758" lon="6.16489">
        <ele>962.9</ele>
        <time>2019-09-03T09:53:39Z</time>
      </trkpt>
      <trkpt lat="44.43746" lon="6.16464">
        <ele>966.5</ele>
        <time>2019-09-03T09:53:52Z</time>
      </trkpt>
      <trkpt lat="44.43728" lon="6.1644">
        <ele>968.4</ele>
        <time>2019-09-03T09:54:06Z</time>
      </trkpt>
      <trkpt lat="44.43712" lon="6.16421">
        <ele>969.4</ele>
        <time>2019-09-03T09:54:18Z</time>
      </trkpt>
      <trkpt lat="44.43711" lon="6.16419">
        <ele>969.8</ele>
        <time>2019-09-03T09:54:19Z</time>
      </trkpt>
      <trkpt lat="44.4371" lon="6.16417">
        <ele>970.1</ele>
        <time>2019-09-03T09:54:20Z</time>
      </trkpt>
      <trkpt lat="44.43709" lon="6.16415">
        <ele>970.5</ele>
        <time>2019-09-03T09:54:21Z</time>
      </trkpt>
      <trkpt lat="44.43709" lon="6.16413">
        <ele>970.8</ele>
        <time>2019-09-03T09:54:22Z</time>
      </trkpt>
      <trkpt lat="44.43708" lon="6.16411">
        <ele>971.1</ele>
        <time>2019-09-03T09:54:23Z</time>
      </trkpt>
      <trkpt lat="44.43707" lon="6.16409">
        <ele>971.4</ele>
        <time>2019-09-03T09:54:24Z</time>
      </trkpt>
      <trkpt lat="44.43706" lon="6.16406">
        <ele>971.7</ele>
        <time>2019-09-03T09:54:25Z</time>
      </trkpt>
      <trkpt lat="44.43701" lon="6.16392">
        <ele>973.9</ele>
        <time>2019-09-03T09:54:31Z</time>
      </trkpt>
      <trkpt lat="44.437" lon="6.16389">
        <ele>974.4</ele>
        <time>2019-09-03T09:54:32Z</time>
      </trkpt>
      <trkpt lat="44.437" lon="6.16387">
        <ele>974.9</ele>
        <time>2019-09-03T09:54:33Z</time>
      </trkpt>
      <trkpt lat="44.43697" lon="6.16366">
        <ele>979.1</ele>
        <time>2019-09-03T09:54:41Z</time>
      </trkpt>
      <trkpt lat="44.43697" lon="6.16363">
        <ele>979.7</ele>
        <time>2019-09-03T09:54:42Z</time>
      </trkpt>
      <trkpt lat="44.43697" lon="6.16361">
        <ele>980.1</ele>
        <time>2019-09-03T09:54:43Z</time>
      </trkpt>
      <trkpt lat="44.43696" lon="6.16359">
        <ele>980.5</ele>
        <time>2019-09-03T09:54:44Z</time>
      </trkpt>
      <trkpt lat="44.43696" lon="6.16356">
        <ele>981</ele>
        <time>2019-09-03T09:54:45Z</time>
      </trkpt>
      <trkpt lat="44.43696" lon="6.16354">
        <ele>981.6</ele>
        <time>2019-09-03T09:54:46Z</time>
      </trkpt>
      <trkpt lat="44.43696" lon="6.16351">
        <ele>982.4</ele>
        <time>2019-09-03T09:54:47Z</time>
      </trkpt>
      <trkpt lat="44.43697" lon="6.16348">
        <ele>983.1</ele>
        <time>2019-09-03T09:54:48Z</time>
      </trkpt>
      <trkpt lat="44.43697" lon="6.16346">
        <ele>983.7</ele>
        <time>2019-09-03T09:54:49Z</time>
      </trkpt>
      <trkpt lat="44.43697" lon="6.16344">
        <ele>984.1</ele>
        <time>2019-09-03T09:54:50Z</time>
      </trkpt>
      <trkpt lat="44.43696" lon="6.16342">
        <ele>984.6</ele>
        <time>2019-09-03T09:54:51Z</time>
      </trkpt>
      <trkpt lat="44.43696" lon="6.16339">
        <ele>985.1</ele>
        <time>2019-09-03T09:54:52Z</time>
      </trkpt>
      <trkpt lat="44.43696" lon="6.16335">
        <ele>986</ele>
        <time>2019-09-03T09:54:54Z</time>
      </trkpt>
      <trkpt lat="44.43695" lon="6.16333">
        <ele>986.1</ele>
        <time>2019-09-03T09:54:55Z</time>
      </trkpt>
      <trkpt lat="44.43694" lon="6.16331">
        <ele>986.4</ele>
        <time>2019-09-03T09:54:56Z</time>
      </trkpt>
      <trkpt lat="44.43694" lon="6.16329">
        <ele>986.7</ele>
        <time>2019-09-03T09:54:57Z</time>
      </trkpt>
      <trkpt lat="44.43693" lon="6.16326">
        <ele>987.2</ele>
        <time>2019-09-03T09:54:58Z</time>
      </trkpt>
      <trkpt lat="44.43692" lon="6.16324">
        <ele>987.4</ele>
        <time>2019-09-03T09:54:59Z</time>
      </trkpt>
      <trkpt lat="44.43691" lon="6.16322">
        <ele>987.6</ele>
        <time>2019-09-03T09:55:00Z</time>
      </trkpt>
      <trkpt lat="44.43686" lon="6.1631">
        <ele>988.4</ele>
        <time>2019-09-03T09:55:06Z</time>
      </trkpt>
      <trkpt lat="44.43685" lon="6.16308">
        <ele>988.7</ele>
        <time>2019-09-03T09:55:07Z</time>
      </trkpt>
      <trkpt lat="44.43684" lon="6.16307">
        <ele>988.7</ele>
        <time>2019-09-03T09:55:08Z</time>
      </trkpt>
      <trkpt lat="44.43683" lon="6.16304">
        <ele>988.9</ele>
        <time>2019-09-03T09:55:09Z</time>
      </trkpt>
      <trkpt lat="44.43683" lon="6.16302">
        <ele>989.3</ele>
        <time>2019-09-03T09:55:10Z</time>
      </trkpt>
      <trkpt lat="44.43682" lon="6.16299">
        <ele>989.5</ele>
        <time>2019-09-03T09:55:11Z</time>
      </trkpt>
      <trkpt lat="44.43682" lon="6.16297">
        <ele>990</ele>
        <time>2019-09-03T09:55:12Z</time>
      </trkpt>
      <trkpt lat="44.43681" lon="6.16294">
        <ele>990.3</ele>
        <time>2019-09-03T09:55:13Z</time>
      </trkpt>
      <trkpt lat="44.4368" lon="6.16292">
        <ele>990.5</ele>
        <time>2019-09-03T09:55:14Z</time>
      </trkpt>
      <trkpt lat="44.43676" lon="6.16262">
        <ele>995.2</ele>
        <time>2019-09-03T09:55:25Z</time>
      </trkpt>
      <trkpt lat="44.43673" lon="6.16241">
        <ele>998.3</ele>
        <time>2019-09-03T09:55:38Z</time>
      </trkpt>
      <trkpt lat="44.43673" lon="6.1624">
        <ele>998.5</ele>
        <time>2019-09-03T09:55:39Z</time>
      </trkpt>
      <trkpt lat="44.4368" lon="6.1624">
        <ele>1000.5</ele>
        <time>2019-09-03T09:55:59Z</time>
      </trkpt>
      <trkpt lat="44.43689" lon="6.16258">
        <ele>999.6</ele>
        <time>2019-09-03T09:56:18Z</time>
      </trkpt>
      <trkpt lat="44.43695" lon="6.16277">
        <ele>997.4</ele>
        <time>2019-09-03T09:56:36Z</time>
      </trkpt>
      <trkpt lat="44.43694" lon="6.16275">
        <ele>997.6</ele>
        <time>2019-09-03T09:56:39Z</time>
      </trkpt>
      <trkpt lat="44.4367" lon="6.16235">
        <ele>998.4</ele>
        <time>2019-09-03T10:06:33Z</time>
      </trkpt>
      <trkpt lat="44.43663" lon="6.16218">
        <ele>998.6</ele>
        <time>2019-09-03T10:06:40Z</time>
      </trkpt>
      <trkpt lat="44.43657" lon="6.16186">
        <ele>1001.2</ele>
        <time>2019-09-03T10:06:53Z</time>
      </trkpt>
      <trkpt lat="44.43656" lon="6.16183">
        <ele>1001.5</ele>
        <time>2019-09-03T10:06:54Z</time>
      </trkpt>
      <trkpt lat="44.43656" lon="6.16181">
        <ele>1001.6</ele>
        <time>2019-09-03T10:06:55Z</time>
      </trkpt>
      <trkpt lat="44.43655" lon="6.16178">
        <ele>1001.6</ele>
        <time>2019-09-03T10:06:56Z</time>
      </trkpt>
      <trkpt lat="44.43654" lon="6.16176">
        <ele>1001.6</ele>
        <time>2019-09-03T10:06:57Z</time>
      </trkpt>
      <trkpt lat="44.43653" lon="6.16174">
        <ele>1001.4</ele>
        <time>2019-09-03T10:06:58Z</time>
      </trkpt>
      <trkpt lat="44.43652" lon="6.16171">
        <ele>1001.4</ele>
        <time>2019-09-03T10:06:59Z</time>
      </trkpt>
      <trkpt lat="44.43638" lon="6.16148">
        <ele>994.8</ele>
        <time>2019-09-03T10:07:11Z</time>
      </trkpt>
      <trkpt lat="44.43638" lon="6.16145">
        <ele>995</ele>
        <time>2019-09-03T10:07:12Z</time>
      </trkpt>
      <trkpt lat="44.43639" lon="6.16143">
        <ele>995.4</ele>
        <time>2019-09-03T10:07:13Z</time>
      </trkpt>
      <trkpt lat="44.43641" lon="6.16142">
        <ele>996.4</ele>
        <time>2019-09-03T10:07:14Z</time>
      </trkpt>
      <trkpt lat="44.43643" lon="6.1614">
        <ele>997.4</ele>
        <time>2019-09-03T10:07:15Z</time>
      </trkpt>
      <trkpt lat="44.43645" lon="6.16139">
        <ele>998.3</ele>
        <time>2019-09-03T10:07:16Z</time>
      </trkpt>
      <trkpt lat="44.43647" lon="6.16139">
        <ele>999.4</ele>
        <time>2019-09-03T10:07:17Z</time>
      </trkpt>
      <trkpt lat="44.43649" lon="6.1614">
        <ele>1000.4</ele>
        <time>2019-09-03T10:07:18Z</time>
      </trkpt>
      <trkpt lat="44.4365" lon="6.16142">
        <ele>1001.2</ele>
        <time>2019-09-03T10:07:19Z</time>
      </trkpt>
      <trkpt lat="44.43652" lon="6.16144">
        <ele>1001.9</ele>
        <time>2019-09-03T10:07:20Z</time>
      </trkpt>
      <trkpt lat="44.43652" lon="6.16146">
        <ele>1002.4</ele>
        <time>2019-09-03T10:07:21Z</time>
      </trkpt>
      <trkpt lat="44.43653" lon="6.16149">
        <ele>1002.8</ele>
        <time>2019-09-03T10:07:22Z</time>
      </trkpt>
      <trkpt lat="44.43677" lon="6.16186">
        <ele>1009.4</ele>
        <time>2019-09-03T10:07:39Z</time>
      </trkpt>
      <trkpt lat="44.43702" lon="6.16212">
        <ele>1012.9</ele>
        <time>2019-09-03T10:07:55Z</time>
      </trkpt>
      <trkpt lat="44.43726" lon="6.16237">
        <ele>1014.6</ele>
        <time>2019-09-03T10:08:10Z</time>
      </trkpt>
      <trkpt lat="44.43745" lon="6.16264">
        <ele>1013.6</ele>
        <time>2019-09-03T10:08:24Z</time>
      </trkpt>
      <trkpt lat="44.43764" lon="6.16292">
        <ele>1014.6</ele>
        <time>2019-09-03T10:08:38Z</time>
      </trkpt>
      <trkpt lat="44.43784" lon="6.16316">
        <ele>1017.5</ele>
        <time>2019-09-03T10:08:52Z</time>
      </trkpt>
      <trkpt lat="44.43809" lon="6.16343">
        <ele>1020.2</ele>
        <time>2019-09-03T10:09:09Z</time>
      </trkpt>
      <trkpt lat="44.43836" lon="6.16363">
        <ele>1023.9</ele>
        <time>2019-09-03T10:09:25Z</time>
      </trkpt>
      <trkpt lat="44.43861" lon="6.16376">
        <ele>1028.9</ele>
        <time>2019-09-03T10:09:39Z</time>
      </trkpt>
      <trkpt lat="44.43882" lon="6.16386">
        <ele>1033.4</ele>
        <time>2019-09-03T10:09:52Z</time>
      </trkpt>
      <trkpt lat="44.43906" lon="6.1639">
        <ele>1041</ele>
        <time>2019-09-03T10:10:06Z</time>
      </trkpt>
      <trkpt lat="44.43907" lon="6.16392">
        <ele>1040.4</ele>
        <time>2019-09-03T10:10:07Z</time>
      </trkpt>
      <trkpt lat="44.43907" lon="6.16394">
        <ele>1039.7</ele>
        <time>2019-09-03T10:10:08Z</time>
      </trkpt>
      <trkpt lat="44.43909" lon="6.16397">
        <ele>1039.3</ele>
        <time>2019-09-03T10:10:09Z</time>
      </trkpt>
      <trkpt lat="44.43909" lon="6.16399">
        <ele>1038.8</ele>
        <time>2019-09-03T10:10:10Z</time>
      </trkpt>
      <trkpt lat="44.43923" lon="6.16427">
        <ele>1033</ele>
        <time>2019-09-03T10:10:23Z</time>
      </trkpt>
      <trkpt lat="44.43945" lon="6.16434">
        <ele>1038.1</ele>
        <time>2019-09-03T10:10:36Z</time>
      </trkpt>
      <trkpt lat="44.43971" lon="6.16429">
        <ele>1049.5</ele>
        <time>2019-09-03T10:10:51Z</time>
      </trkpt>
      <trkpt lat="44.43991" lon="6.16454">
        <ele>1046.8</ele>
        <time>2019-09-03T10:11:06Z</time>
      </trkpt>
      <trkpt lat="44.44018" lon="6.16461">
        <ele>1052.5</ele>
        <time>2019-09-03T10:11:21Z</time>
      </trkpt>
      <trkpt lat="44.44021" lon="6.16464">
        <ele>1052.3</ele>
        <time>2019-09-03T10:11:23Z</time>
      </trkpt>
      <trkpt lat="44.44023" lon="6.16466">
        <ele>1051.8</ele>
        <time>2019-09-03T10:11:24Z</time>
      </trkpt>
      <trkpt lat="44.44024" lon="6.16468">
        <ele>1051.4</ele>
        <time>2019-09-03T10:11:25Z</time>
      </trkpt>
      <trkpt lat="44.44054" lon="6.16487">
        <ele>1050.9</ele>
        <time>2019-09-03T10:11:42Z</time>
      </trkpt>
      <trkpt lat="44.44084" lon="6.16499">
        <ele>1052.5</ele>
        <time>2019-09-03T10:11:59Z</time>
      </trkpt>
      <trkpt lat="44.44111" lon="6.16499">
        <ele>1057.9</ele>
        <time>2019-09-03T10:12:14Z</time>
      </trkpt>
      <trkpt lat="44.44136" lon="6.16501">
        <ele>1061.5</ele>
        <time>2019-09-03T10:12:27Z</time>
      </trkpt>
      <trkpt lat="44.44164" lon="6.16511">
        <ele>1062.9</ele>
        <time>2019-09-03T10:12:43Z</time>
      </trkpt>
      <trkpt lat="44.44165" lon="6.16511">
        <ele>1062.9</ele>
        <time>2019-09-03T10:12:44Z</time>
      </trkpt>
      <trkpt lat="44.44196" lon="6.16517">
        <ele>1064.7</ele>
        <time>2019-09-03T10:12:59Z</time>
      </trkpt>
      <trkpt lat="44.44197" lon="6.16516">
        <ele>1065.5</ele>
        <time>2019-09-03T10:13:00Z</time>
      </trkpt>
      <trkpt lat="44.44199" lon="6.16514">
        <ele>1066.4</ele>
        <time>2019-09-03T10:13:01Z</time>
      </trkpt>
      <trkpt lat="44.442" lon="6.16512">
        <ele>1067.4</ele>
        <time>2019-09-03T10:13:02Z</time>
      </trkpt>
      <trkpt lat="44.442" lon="6.16509">
        <ele>1068.6</ele>
        <time>2019-09-03T10:13:03Z</time>
      </trkpt>
      <trkpt lat="44.442" lon="6.16507">
        <ele>1069.7</ele>
        <time>2019-09-03T10:13:04Z</time>
      </trkpt>
      <trkpt lat="44.442" lon="6.16504">
        <ele>1070.6</ele>
        <time>2019-09-03T10:13:05Z</time>
      </trkpt>
      <trkpt lat="44.44199" lon="6.16502">
        <ele>1071.4</ele>
        <time>2019-09-03T10:13:06Z</time>
      </trkpt>
      <trkpt lat="44.44197" lon="6.165">
        <ele>1072</ele>
        <time>2019-09-03T10:13:07Z</time>
      </trkpt>
      <trkpt lat="44.44195" lon="6.16499">
        <ele>1072.5</ele>
        <time>2019-09-03T10:13:08Z</time>
      </trkpt>
      <trkpt lat="44.44193" lon="6.16498">
        <ele>1072.7</ele>
        <time>2019-09-03T10:13:09Z</time>
      </trkpt>
      <trkpt lat="44.44192" lon="6.16497">
        <ele>1072.9</ele>
        <time>2019-09-03T10:13:10Z</time>
      </trkpt>
      <trkpt lat="44.44163" lon="6.1649">
        <ele>1072.4</ele>
        <time>2019-09-03T10:13:25Z</time>
      </trkpt>
      <trkpt lat="44.44134" lon="6.16473">
        <ele>1075.2</ele>
        <time>2019-09-03T10:13:42Z</time>
      </trkpt>
      <trkpt lat="44.44107" lon="6.16458">
        <ele>1076.7</ele>
        <time>2019-09-03T10:13:58Z</time>
      </trkpt>
      <trkpt lat="44.4408" lon="6.16442">
        <ele>1079</ele>
        <time>2019-09-03T10:14:14Z</time>
      </trkpt>
      <trkpt lat="44.44058" lon="6.16417">
        <ele>1083.4</ele>
        <time>2019-09-03T10:14:30Z</time>
      </trkpt>
      <trkpt lat="44.44042" lon="6.16388">
        <ele>1089.1</ele>
        <time>2019-09-03T10:14:44Z</time>
      </trkpt>
      <trkpt lat="44.44037" lon="6.16383">
        <ele>1089.3</ele>
        <time>2019-09-03T10:14:47Z</time>
      </trkpt>
      <trkpt lat="44.44035" lon="6.16382">
        <ele>1089</ele>
        <time>2019-09-03T10:14:48Z</time>
      </trkpt>
      <trkpt lat="44.44011" lon="6.16361">
        <ele>1089</ele>
        <time>2019-09-03T10:15:03Z</time>
      </trkpt>
      <trkpt lat="44.43987" lon="6.1633">
        <ele>1092.4</ele>
        <time>2019-09-03T10:15:21Z</time>
      </trkpt>
      <trkpt lat="44.43968" lon="6.16291">
        <ele>1099.9</ele>
        <time>2019-09-03T10:15:39Z</time>
      </trkpt>
      <trkpt lat="44.43949" lon="6.16267">
        <ele>1100.2</ele>
        <time>2019-09-03T10:15:53Z</time>
      </trkpt>
      <trkpt lat="44.43933" lon="6.16233">
        <ele>1104.9</ele>
        <time>2019-09-03T10:16:09Z</time>
      </trkpt>
      <trkpt lat="44.43912" lon="6.162">
        <ele>1106.7</ele>
        <time>2019-09-03T10:16:26Z</time>
      </trkpt>
      <trkpt lat="44.43893" lon="6.16165">
        <ele>1109.2</ele>
        <time>2019-09-03T10:16:43Z</time>
      </trkpt>
      <trkpt lat="44.43875" lon="6.16133">
        <ele>1109.9</ele>
        <time>2019-09-03T10:16:59Z</time>
      </trkpt>
      <trkpt lat="44.43861" lon="6.16096">
        <ele>1113.3</ele>
        <time>2019-09-03T10:17:15Z</time>
      </trkpt>
      <trkpt lat="44.43849" lon="6.1605">
        <ele>1114.1</ele>
        <time>2019-09-03T10:17:34Z</time>
      </trkpt>
      <trkpt lat="44.43847" lon="6.16023">
        <ele>1116.2</ele>
        <time>2019-09-03T10:17:45Z</time>
      </trkpt>
      <trkpt lat="44.43848" lon="6.16022">
        <ele>1117</ele>
        <time>2019-09-03T10:17:46Z</time>
      </trkpt>
      <trkpt lat="44.43849" lon="6.1602">
        <ele>1117.8</ele>
        <time>2019-09-03T10:17:47Z</time>
      </trkpt>
      <trkpt lat="44.43851" lon="6.16019">
        <ele>1118.7</ele>
        <time>2019-09-03T10:17:48Z</time>
      </trkpt>
      <trkpt lat="44.43852" lon="6.16019">
        <ele>1119.6</ele>
        <time>2019-09-03T10:17:49Z</time>
      </trkpt>
      <trkpt lat="44.43854" lon="6.16018">
        <ele>1120.4</ele>
        <time>2019-09-03T10:17:50Z</time>
      </trkpt>
      <trkpt lat="44.43855" lon="6.16019">
        <ele>1121.2</ele>
        <time>2019-09-03T10:17:51Z</time>
      </trkpt>
      <trkpt lat="44.43857" lon="6.16019">
        <ele>1121.9</ele>
        <time>2019-09-03T10:17:52Z</time>
      </trkpt>
      <trkpt lat="44.43858" lon="6.1602">
        <ele>1122.5</ele>
        <time>2019-09-03T10:17:53Z</time>
      </trkpt>
      <trkpt lat="44.43859" lon="6.16022">
        <ele>1122.8</ele>
        <time>2019-09-03T10:17:54Z</time>
      </trkpt>
      <trkpt lat="44.4386" lon="6.16025">
        <ele>1122.9</ele>
        <time>2019-09-03T10:17:55Z</time>
      </trkpt>
      <trkpt lat="44.43861" lon="6.16027">
        <ele>1122.8</ele>
        <time>2019-09-03T10:17:56Z</time>
      </trkpt>
      <trkpt lat="44.43861" lon="6.1603">
        <ele>1122.6</ele>
        <time>2019-09-03T10:17:57Z</time>
      </trkpt>
      <trkpt lat="44.43861" lon="6.16033">
        <ele>1122.3</ele>
        <time>2019-09-03T10:17:58Z</time>
      </trkpt>
      <trkpt lat="44.4386" lon="6.16036">
        <ele>1121.8</ele>
        <time>2019-09-03T10:17:59Z</time>
      </trkpt>
      <trkpt lat="44.4387" lon="6.16076">
        <ele>1122.3</ele>
        <time>2019-09-03T10:18:15Z</time>
      </trkpt>
      <trkpt lat="44.43887" lon="6.16108">
        <ele>1123.4</ele>
        <time>2019-09-03T10:18:30Z</time>
      </trkpt>
      <trkpt lat="44.43903" lon="6.1613">
        <ele>1124.9</ele>
        <time>2019-09-03T10:18:42Z</time>
      </trkpt>
      <trkpt lat="44.43931" lon="6.16162">
        <ele>1129.4</ele>
        <time>2019-09-03T10:19:01Z</time>
      </trkpt>
      <trkpt lat="44.43959" lon="6.16194">
        <ele>1131.6</ele>
        <time>2019-09-03T10:19:20Z</time>
      </trkpt>
      <trkpt lat="44.43986" lon="6.16223">
        <ele>1133.3</ele>
        <time>2019-09-03T10:19:37Z</time>
      </trkpt>
      <trkpt lat="44.44018" lon="6.16243">
        <ele>1137.4</ele>
        <time>2019-09-03T10:19:56Z</time>
      </trkpt>
      <trkpt lat="44.4405" lon="6.16254">
        <ele>1141.5</ele>
        <time>2019-09-03T10:20:13Z</time>
      </trkpt>
      <trkpt lat="44.44073" lon="6.1627">
        <ele>1142.2</ele>
        <time>2019-09-03T10:20:27Z</time>
      </trkpt>
      <trkpt lat="44.44113" lon="6.16288">
        <ele>1143.4</ele>
        <time>2019-09-03T10:20:48Z</time>
      </trkpt>
      <trkpt lat="44.44158" lon="6.16311">
        <ele>1144.3</ele>
        <time>2019-09-03T10:21:11Z</time>
      </trkpt>
      <trkpt lat="44.44195" lon="6.1632">
        <ele>1144.8</ele>
        <time>2019-09-03T10:21:29Z</time>
      </trkpt>
      <trkpt lat="44.44222" lon="6.16301">
        <ele>1151.8</ele>
        <time>2019-09-03T10:21:43Z</time>
      </trkpt>
      <trkpt lat="44.4425" lon="6.16272">
        <ele>1161.6</ele>
        <time>2019-09-03T10:21:58Z</time>
      </trkpt>
      <trkpt lat="44.44278" lon="6.16282">
        <ele>1161.8</ele>
        <time>2019-09-03T10:22:11Z</time>
      </trkpt>
      <trkpt lat="44.44314" lon="6.16309">
        <ele>1155.5</ele>
        <time>2019-09-03T10:22:28Z</time>
      </trkpt>
      <trkpt lat="44.44352" lon="6.16317">
        <ele>1154</ele>
        <time>2019-09-03T10:22:45Z</time>
      </trkpt>
      <trkpt lat="44.44379" lon="6.16306">
        <ele>1159.5</ele>
        <time>2019-09-03T10:22:59Z</time>
      </trkpt>
      <trkpt lat="44.4441" lon="6.16294">
        <ele>1165.1</ele>
        <time>2019-09-03T10:23:16Z</time>
      </trkpt>
      <trkpt lat="44.44433" lon="6.16267">
        <ele>1170</ele>
        <time>2019-09-03T10:23:32Z</time>
      </trkpt>
      <trkpt lat="44.44453" lon="6.16247">
        <ele>1169.3</ele>
        <time>2019-09-03T10:23:46Z</time>
      </trkpt>
      <trkpt lat="44.44479" lon="6.16223">
        <ele>1168.1</ele>
        <time>2019-09-03T10:24:03Z</time>
      </trkpt>
      <trkpt lat="44.44492" lon="6.16194">
        <ele>1174.6</ele>
        <time>2019-09-03T10:24:17Z</time>
      </trkpt>
      <trkpt lat="44.44506" lon="6.16174">
        <ele>1178.5</ele>
        <time>2019-09-03T10:24:29Z</time>
      </trkpt>
      <trkpt lat="44.4451" lon="6.16135">
        <ele>1192.7</ele>
        <time>2019-09-03T10:24:44Z</time>
      </trkpt>
      <trkpt lat="44.44529" lon="6.16113">
        <ele>1197.5</ele>
        <time>2019-09-03T10:24:57Z</time>
      </trkpt>
      <trkpt lat="44.44556" lon="6.16101">
        <ele>1197.5</ele>
        <time>2019-09-03T10:25:11Z</time>
      </trkpt>
      <trkpt lat="44.44559" lon="6.16097">
        <ele>1198.6</ele>
        <time>2019-09-03T10:25:13Z</time>
      </trkpt>
      <trkpt lat="44.44591" lon="6.16104">
        <ele>1190.9</ele>
        <time>2019-09-03T10:25:29Z</time>
      </trkpt>
      <trkpt lat="44.44614" lon="6.16092">
        <ele>1195.7</ele>
        <time>2019-09-03T10:25:43Z</time>
      </trkpt>
      <trkpt lat="44.44627" lon="6.16073">
        <ele>1203.8</ele>
        <time>2019-09-03T10:25:53Z</time>
      </trkpt>
      <trkpt lat="44.44629" lon="6.16072">
        <ele>1204.1</ele>
        <time>2019-09-03T10:25:54Z</time>
      </trkpt>
      <trkpt lat="44.44658" lon="6.16076">
        <ele>1200.2</ele>
        <time>2019-09-03T10:26:08Z</time>
      </trkpt>
      <trkpt lat="44.44686" lon="6.16077">
        <ele>1199.4</ele>
        <time>2019-09-03T10:26:23Z</time>
      </trkpt>
      <trkpt lat="44.44715" lon="6.16068">
        <ele>1201.1</ele>
        <time>2019-09-03T10:26:38Z</time>
      </trkpt>
      <trkpt lat="44.44732" lon="6.16043">
        <ele>1202.5</ele>
        <time>2019-09-03T10:26:52Z</time>
      </trkpt>
      <trkpt lat="44.44732" lon="6.16043">
        <ele>1202.6</ele>
        <time>2019-09-03T10:26:54Z</time>
      </trkpt>
      <trkpt lat="44.44733" lon="6.16038">
        <ele>1202.8</ele>
        <time>2019-09-03T10:34:01Z</time>
      </trkpt>
      <trkpt lat="44.44732" lon="6.16035">
        <ele>1203</ele>
        <time>2019-09-03T10:34:02Z</time>
      </trkpt>
      <trkpt lat="44.44732" lon="6.16032">
        <ele>1203.3</ele>
        <time>2019-09-03T10:34:03Z</time>
      </trkpt>
      <trkpt lat="44.44735" lon="6.15992">
        <ele>1205.1</ele>
        <time>2019-09-03T10:34:18Z</time>
      </trkpt>
      <trkpt lat="44.44732" lon="6.15982">
        <ele>1206.3</ele>
        <time>2019-09-03T10:34:22Z</time>
      </trkpt>
      <trkpt lat="44.44733" lon="6.1598">
        <ele>1206.4</ele>
        <time>2019-09-03T10:34:23Z</time>
      </trkpt>
      <trkpt lat="44.44734" lon="6.15978">
        <ele>1206.1</ele>
        <time>2019-09-03T10:34:24Z</time>
      </trkpt>
      <trkpt lat="44.44734" lon="6.15976">
        <ele>1206</ele>
        <time>2019-09-03T10:34:25Z</time>
      </trkpt>
      <trkpt lat="44.44734" lon="6.15973">
        <ele>1205.9</ele>
        <time>2019-09-03T10:34:26Z</time>
      </trkpt>
      <trkpt lat="44.44733" lon="6.1597">
        <ele>1206.4</ele>
        <time>2019-09-03T10:34:27Z</time>
      </trkpt>
      <trkpt lat="44.44732" lon="6.15968">
        <ele>1206.9</ele>
        <time>2019-09-03T10:34:28Z</time>
      </trkpt>
      <trkpt lat="44.44732" lon="6.15965">
        <ele>1207.3</ele>
        <time>2019-09-03T10:34:29Z</time>
      </trkpt>
      <trkpt lat="44.44729" lon="6.15952">
        <ele>1208.9</ele>
        <time>2019-09-03T10:34:34Z</time>
      </trkpt>
      <trkpt lat="44.44729" lon="6.15947">
        <ele>1209</ele>
        <time>2019-09-03T10:34:35Z</time>
      </trkpt>
      <trkpt lat="44.44727" lon="6.15943">
        <ele>1210</ele>
        <time>2019-09-03T10:34:36Z</time>
      </trkpt>
      <trkpt lat="44.4472" lon="6.15917">
        <ele>1214.7</ele>
        <time>2019-09-03T10:34:45Z</time>
      </trkpt>
      <trkpt lat="44.44719" lon="6.15914">
        <ele>1215</ele>
        <time>2019-09-03T10:34:46Z</time>
      </trkpt>
      <trkpt lat="44.44714" lon="6.15896">
        <ele>1215.7</ele>
        <time>2019-09-03T10:34:53Z</time>
      </trkpt>
      <trkpt lat="44.44714" lon="6.15893">
        <ele>1215.7</ele>
        <time>2019-09-03T10:34:54Z</time>
      </trkpt>
      <trkpt lat="44.44713" lon="6.1589">
        <ele>1215.7</ele>
        <time>2019-09-03T10:34:55Z</time>
      </trkpt>
      <trkpt lat="44.44713" lon="6.15888">
        <ele>1215.6</ele>
        <time>2019-09-03T10:34:56Z</time>
      </trkpt>
      <trkpt lat="44.44713" lon="6.15886">
        <ele>1215.6</ele>
        <time>2019-09-03T10:34:57Z</time>
      </trkpt>
      <trkpt lat="44.44713" lon="6.15884">
        <ele>1215.5</ele>
        <time>2019-09-03T10:34:58Z</time>
      </trkpt>
      <trkpt lat="44.44712" lon="6.15881">
        <ele>1215.4</ele>
        <time>2019-09-03T10:34:59Z</time>
      </trkpt>
      <trkpt lat="44.44712" lon="6.15878">
        <ele>1215.5</ele>
        <time>2019-09-03T10:35:00Z</time>
      </trkpt>
      <trkpt lat="44.44711" lon="6.15876">
        <ele>1215.4</ele>
        <time>2019-09-03T10:35:01Z</time>
      </trkpt>
      <trkpt lat="44.44711" lon="6.15873">
        <ele>1215.3</ele>
        <time>2019-09-03T10:35:02Z</time>
      </trkpt>
      <trkpt lat="44.44711" lon="6.1587">
        <ele>1215.3</ele>
        <time>2019-09-03T10:35:03Z</time>
      </trkpt>
      <trkpt lat="44.4471" lon="6.15868">
        <ele>1215.3</ele>
        <time>2019-09-03T10:35:04Z</time>
      </trkpt>
      <trkpt lat="44.44709" lon="6.15865">
        <ele>1215.5</ele>
        <time>2019-09-03T10:35:05Z</time>
      </trkpt>
      <trkpt lat="44.44707" lon="6.15862">
        <ele>1216</ele>
        <time>2019-09-03T10:35:06Z</time>
      </trkpt>
      <trkpt lat="44.44706" lon="6.15859">
        <ele>1216.2</ele>
        <time>2019-09-03T10:35:07Z</time>
      </trkpt>
      <trkpt lat="44.44694" lon="6.15823">
        <ele>1217.1</ele>
        <time>2019-09-03T10:35:21Z</time>
      </trkpt>
      <trkpt lat="44.44676" lon="6.15789">
        <ele>1217.4</ele>
        <time>2019-09-03T10:35:36Z</time>
      </trkpt>
      <trkpt lat="44.44652" lon="6.15762">
        <ele>1222.3</ele>
        <time>2019-09-03T10:35:51Z</time>
      </trkpt>
      <trkpt lat="44.44628" lon="6.15735">
        <ele>1227.3</ele>
        <time>2019-09-03T10:36:07Z</time>
      </trkpt>
      <trkpt lat="44.44608" lon="6.1571">
        <ele>1230.3</ele>
        <time>2019-09-03T10:36:20Z</time>
      </trkpt>
      <trkpt lat="44.44586" lon="6.15688">
        <ele>1234</ele>
        <time>2019-09-03T10:36:33Z</time>
      </trkpt>
      <trkpt lat="44.44561" lon="6.15661">
        <ele>1239.8</ele>
        <time>2019-09-03T10:36:48Z</time>
      </trkpt>
      <trkpt lat="44.44552" lon="6.15629">
        <ele>1238.4</ele>
        <time>2019-09-03T10:37:01Z</time>
      </trkpt>
      <trkpt lat="44.44539" lon="6.15598">
        <ele>1238.9</ele>
        <time>2019-09-03T10:37:13Z</time>
      </trkpt>
      <trkpt lat="44.44538" lon="6.15593">
        <ele>1238.2</ele>
        <time>2019-09-03T10:37:15Z</time>
      </trkpt>
      <trkpt lat="44.44538" lon="6.1559">
        <ele>1237.9</ele>
        <time>2019-09-03T10:37:16Z</time>
      </trkpt>
      <trkpt lat="44.44531" lon="6.15579">
        <ele>1238.7</ele>
        <time>2019-09-03T10:37:21Z</time>
      </trkpt>
      <trkpt lat="44.44524" lon="6.1557">
        <ele>1240</ele>
        <time>2019-09-03T10:37:25Z</time>
      </trkpt>
      <trkpt lat="44.4451" lon="6.15544">
        <ele>1241.1</ele>
        <time>2019-09-03T10:37:37Z</time>
      </trkpt>
      <trkpt lat="44.44508" lon="6.15542">
        <ele>1241.3</ele>
        <time>2019-09-03T10:37:38Z</time>
      </trkpt>
      <trkpt lat="44.4449" lon="6.15519">
        <ele>1242.9</ele>
        <time>2019-09-03T10:37:50Z</time>
      </trkpt>
      <trkpt lat="44.44473" lon="6.15497">
        <ele>1243.5</ele>
        <time>2019-09-03T10:38:01Z</time>
      </trkpt>
      <trkpt lat="44.44458" lon="6.15476">
        <ele>1245.9</ele>
        <time>2019-09-03T10:38:12Z</time>
      </trkpt>
      <trkpt lat="44.44438" lon="6.15463">
        <ele>1251</ele>
        <time>2019-09-03T10:38:24Z</time>
      </trkpt>
      <trkpt lat="44.44438" lon="6.15459">
        <ele>1250.6</ele>
        <time>2019-09-03T10:38:25Z</time>
      </trkpt>
      <trkpt lat="44.44438" lon="6.15455">
        <ele>1250.3</ele>
        <time>2019-09-03T10:38:26Z</time>
      </trkpt>
      <trkpt lat="44.44446" lon="6.15416">
        <ele>1244.7</ele>
        <time>2019-09-03T10:38:36Z</time>
      </trkpt>
      <trkpt lat="44.44455" lon="6.15378">
        <ele>1241.6</ele>
        <time>2019-09-03T10:38:48Z</time>
      </trkpt>
      <trkpt lat="44.44459" lon="6.15341">
        <ele>1240</ele>
        <time>2019-09-03T10:39:00Z</time>
      </trkpt>
      <trkpt lat="44.44457" lon="6.15326">
        <ele>1241.2</ele>
        <time>2019-09-03T10:39:05Z</time>
      </trkpt>
      <trkpt lat="44.44458" lon="6.15322">
        <ele>1241.1</ele>
        <time>2019-09-03T10:39:06Z</time>
      </trkpt>
      <trkpt lat="44.4446" lon="6.15319">
        <ele>1240.3</ele>
        <time>2019-09-03T10:39:07Z</time>
      </trkpt>
      <trkpt lat="44.44461" lon="6.15316">
        <ele>1239.7</ele>
        <time>2019-09-03T10:39:08Z</time>
      </trkpt>
      <trkpt lat="44.44462" lon="6.15312">
        <ele>1239.6</ele>
        <time>2019-09-03T10:39:09Z</time>
      </trkpt>
      <trkpt lat="44.44463" lon="6.15309">
        <ele>1239.3</ele>
        <time>2019-09-03T10:39:10Z</time>
      </trkpt>
      <trkpt lat="44.4447" lon="6.15285">
        <ele>1236.7</ele>
        <time>2019-09-03T10:39:20Z</time>
      </trkpt>
      <trkpt lat="44.4447" lon="6.15283">
        <ele>1236.6</ele>
        <time>2019-09-03T10:39:24Z</time>
      </trkpt>
      <trkpt lat="44.44465" lon="6.15262">
        <ele>1239.1</ele>
        <time>2019-09-03T10:40:05Z</time>
      </trkpt>
      <trkpt lat="44.44469" lon="6.15245">
        <ele>1237.4</ele>
        <time>2019-09-03T10:40:09Z</time>
      </trkpt>
      <trkpt lat="44.4447" lon="6.15241">
        <ele>1237</ele>
        <time>2019-09-03T10:40:10Z</time>
      </trkpt>
      <trkpt lat="44.4447" lon="6.15238">
        <ele>1236.7</ele>
        <time>2019-09-03T10:40:11Z</time>
      </trkpt>
      <trkpt lat="44.4447" lon="6.15234">
        <ele>1236.4</ele>
        <time>2019-09-03T10:40:12Z</time>
      </trkpt>
      <trkpt lat="44.44471" lon="6.15231">
        <ele>1235.8</ele>
        <time>2019-09-03T10:40:13Z</time>
      </trkpt>
      <trkpt lat="44.44472" lon="6.15227">
        <ele>1235.2</ele>
        <time>2019-09-03T10:40:14Z</time>
      </trkpt>
      <trkpt lat="44.44473" lon="6.15224">
        <ele>1234.6</ele>
        <time>2019-09-03T10:40:15Z</time>
      </trkpt>
      <trkpt lat="44.44476" lon="6.15204">
        <ele>1232.1</ele>
        <time>2019-09-03T10:40:21Z</time>
      </trkpt>
      <trkpt lat="44.44476" lon="6.152">
        <ele>1231.7</ele>
        <time>2019-09-03T10:40:22Z</time>
      </trkpt>
      <trkpt lat="44.44477" lon="6.1519">
        <ele>1230.8</ele>
        <time>2019-09-03T10:40:25Z</time>
      </trkpt>
      <trkpt lat="44.44477" lon="6.15187">
        <ele>1230.6</ele>
        <time>2019-09-03T10:40:26Z</time>
      </trkpt>
      <trkpt lat="44.44476" lon="6.15185">
        <ele>1230.7</ele>
        <time>2019-09-03T10:40:27Z</time>
      </trkpt>
      <trkpt lat="44.44477" lon="6.15184">
        <ele>1230.5</ele>
        <time>2019-09-03T10:40:31Z</time>
      </trkpt>
      <trkpt lat="44.44461" lon="6.15169">
        <ele>1237.2</ele>
        <time>2019-09-03T10:42:13Z</time>
      </trkpt>
      <trkpt lat="44.44455" lon="6.15159">
        <ele>1239.9</ele>
        <time>2019-09-03T10:42:18Z</time>
      </trkpt>
      <trkpt lat="44.44455" lon="6.15157">
        <ele>1239.9</ele>
        <time>2019-09-03T10:42:19Z</time>
      </trkpt>
      <trkpt lat="44.44455" lon="6.15154">
        <ele>1239.6</ele>
        <time>2019-09-03T10:42:20Z</time>
      </trkpt>
      <trkpt lat="44.44455" lon="6.1515">
        <ele>1239.6</ele>
        <time>2019-09-03T10:42:21Z</time>
      </trkpt>
      <trkpt lat="44.44455" lon="6.15147">
        <ele>1239.2</ele>
        <time>2019-09-03T10:42:22Z</time>
      </trkpt>
      <trkpt lat="44.44457" lon="6.15145">
        <ele>1238.6</ele>
        <time>2019-09-03T10:42:23Z</time>
      </trkpt>
      <trkpt lat="44.44457" lon="6.15143">
        <ele>1238.1</ele>
        <time>2019-09-03T10:42:24Z</time>
      </trkpt>
      <trkpt lat="44.44458" lon="6.1514">
        <ele>1237.7</ele>
        <time>2019-09-03T10:42:25Z</time>
      </trkpt>
      <trkpt lat="44.4446" lon="6.15125">
        <ele>1236.3</ele>
        <time>2019-09-03T10:42:32Z</time>
      </trkpt>
      <trkpt lat="44.44459" lon="6.15123">
        <ele>1236.5</ele>
        <time>2019-09-03T10:42:33Z</time>
      </trkpt>
      <trkpt lat="44.44458" lon="6.15117">
        <ele>1237</ele>
        <time>2019-09-03T10:42:36Z</time>
      </trkpt>
      <trkpt lat="44.44457" lon="6.15115">
        <ele>1237.3</ele>
        <time>2019-09-03T10:42:37Z</time>
      </trkpt>
      <trkpt lat="44.44456" lon="6.15113">
        <ele>1237.8</ele>
        <time>2019-09-03T10:42:39Z</time>
      </trkpt>
      <trkpt lat="44.44455" lon="6.15111">
        <ele>1238.1</ele>
        <time>2019-09-03T10:42:40Z</time>
      </trkpt>
      <trkpt lat="44.44454" lon="6.15109">
        <ele>1238.5</ele>
        <time>2019-09-03T10:42:41Z</time>
      </trkpt>
      <trkpt lat="44.4445" lon="6.15082">
        <ele>1239.9</ele>
        <time>2019-09-03T10:42:53Z</time>
      </trkpt>
      <trkpt lat="44.44448" lon="6.15078">
        <ele>1240.9</ele>
        <time>2019-09-03T10:42:54Z</time>
      </trkpt>
      <trkpt lat="44.44447" lon="6.15075">
        <ele>1241.4</ele>
        <time>2019-09-03T10:42:55Z</time>
      </trkpt>
      <trkpt lat="44.44447" lon="6.15072">
        <ele>1241.6</ele>
        <time>2019-09-03T10:42:56Z</time>
      </trkpt>
      <trkpt lat="44.44447" lon="6.1507">
        <ele>1241.7</ele>
        <time>2019-09-03T10:42:57Z</time>
      </trkpt>
      <trkpt lat="44.44446" lon="6.15067">
        <ele>1241.8</ele>
        <time>2019-09-03T10:42:58Z</time>
      </trkpt>
      <trkpt lat="44.44447" lon="6.15064">
        <ele>1241.5</ele>
        <time>2019-09-03T10:42:59Z</time>
      </trkpt>
      <trkpt lat="44.44448" lon="6.15062">
        <ele>1241</ele>
        <time>2019-09-03T10:43:00Z</time>
      </trkpt>
      <trkpt lat="44.44457" lon="6.15048">
        <ele>1237.1</ele>
        <time>2019-09-03T10:43:07Z</time>
      </trkpt>
      <trkpt lat="44.44457" lon="6.15045">
        <ele>1236.9</ele>
        <time>2019-09-03T10:43:08Z</time>
      </trkpt>
      <trkpt lat="44.44457" lon="6.15042">
        <ele>1236.9</ele>
        <time>2019-09-03T10:43:09Z</time>
      </trkpt>
      <trkpt lat="44.44458" lon="6.15039">
        <ele>1236.9</ele>
        <time>2019-09-03T10:43:10Z</time>
      </trkpt>
      <trkpt lat="44.44458" lon="6.15036">
        <ele>1236.8</ele>
        <time>2019-09-03T10:43:11Z</time>
      </trkpt>
      <trkpt lat="44.44458" lon="6.15033">
        <ele>1237.1</ele>
        <time>2019-09-03T10:43:12Z</time>
      </trkpt>
      <trkpt lat="44.44457" lon="6.1503">
        <ele>1237.6</ele>
        <time>2019-09-03T10:43:13Z</time>
      </trkpt>
      <trkpt lat="44.44456" lon="6.15027">
        <ele>1238.1</ele>
        <time>2019-09-03T10:43:14Z</time>
      </trkpt>
      <trkpt lat="44.44455" lon="6.15022">
        <ele>1238.7</ele>
        <time>2019-09-03T10:43:16Z</time>
      </trkpt>
      <trkpt lat="44.44453" lon="6.15019">
        <ele>1239.3</ele>
        <time>2019-09-03T10:43:17Z</time>
      </trkpt>
      <trkpt lat="44.44452" lon="6.15017">
        <ele>1240</ele>
        <time>2019-09-03T10:43:18Z</time>
      </trkpt>
      <trkpt lat="44.44451" lon="6.15015">
        <ele>1240.5</ele>
        <time>2019-09-03T10:43:19Z</time>
      </trkpt>
      <trkpt lat="44.4445" lon="6.15013">
        <ele>1241.1</ele>
        <time>2019-09-03T10:43:20Z</time>
      </trkpt>
      <trkpt lat="44.44448" lon="6.15011">
        <ele>1241.7</ele>
        <time>2019-09-03T10:43:21Z</time>
      </trkpt>
      <trkpt lat="44.44446" lon="6.1501">
        <ele>1242.7</ele>
        <time>2019-09-03T10:43:22Z</time>
      </trkpt>
      <trkpt lat="44.44429" lon="6.14993">
        <ele>1250.8</ele>
        <time>2019-09-03T10:43:33Z</time>
      </trkpt>
      <trkpt lat="44.44422" lon="6.14967">
        <ele>1254.6</ele>
        <time>2019-09-03T10:43:45Z</time>
      </trkpt>
      <trkpt lat="44.44428" lon="6.14934">
        <ele>1253.6</ele>
        <time>2019-09-03T10:43:58Z</time>
      </trkpt>
      <trkpt lat="44.44428" lon="6.14924">
        <ele>1253.9</ele>
        <time>2019-09-03T10:44:02Z</time>
      </trkpt>
      <trkpt lat="44.44426" lon="6.1492">
        <ele>1254.5</ele>
        <time>2019-09-03T10:44:04Z</time>
      </trkpt>
      <trkpt lat="44.44425" lon="6.14918">
        <ele>1254.9</ele>
        <time>2019-09-03T10:44:05Z</time>
      </trkpt>
      <trkpt lat="44.44418" lon="6.1488">
        <ele>1263.4</ele>
        <time>2019-09-03T10:44:20Z</time>
      </trkpt>
      <trkpt lat="44.44418" lon="6.14853">
        <ele>1268.3</ele>
        <time>2019-09-03T10:44:30Z</time>
      </trkpt>
      <trkpt lat="44.44418" lon="6.1485">
        <ele>1268.7</ele>
        <time>2019-09-03T10:44:31Z</time>
      </trkpt>
      <trkpt lat="44.44418" lon="6.14847">
        <ele>1269.3</ele>
        <time>2019-09-03T10:44:32Z</time>
      </trkpt>
      <trkpt lat="44.44417" lon="6.14844">
        <ele>1269.9</ele>
        <time>2019-09-03T10:44:33Z</time>
      </trkpt>
      <trkpt lat="44.44417" lon="6.14841">
        <ele>1270.6</ele>
        <time>2019-09-03T10:44:34Z</time>
      </trkpt>
      <trkpt lat="44.44417" lon="6.14838">
        <ele>1271.1</ele>
        <time>2019-09-03T10:44:35Z</time>
      </trkpt>
      <trkpt lat="44.44417" lon="6.14836">
        <ele>1271.5</ele>
        <time>2019-09-03T10:44:36Z</time>
      </trkpt>
      <trkpt lat="44.44428" lon="6.14804">
        <ele>1279.3</ele>
        <time>2019-09-03T10:44:49Z</time>
      </trkpt>
      <trkpt lat="44.44431" lon="6.14797">
        <ele>1281.2</ele>
        <time>2019-09-03T10:44:52Z</time>
      </trkpt>
      <trkpt lat="44.44432" lon="6.14795">
        <ele>1281.7</ele>
        <time>2019-09-03T10:44:53Z</time>
      </trkpt>
      <trkpt lat="44.44434" lon="6.14793">
        <ele>1282.2</ele>
        <time>2019-09-03T10:44:54Z</time>
      </trkpt>
      <trkpt lat="44.44436" lon="6.14782">
        <ele>1285.2</ele>
        <time>2019-09-03T10:44:59Z</time>
      </trkpt>
      <trkpt lat="44.44454" lon="6.14762">
        <ele>1289.8</ele>
        <time>2019-09-03T10:45:13Z</time>
      </trkpt>
      <trkpt lat="44.44473" lon="6.14782">
        <ele>1281.1</ele>
        <time>2019-09-03T10:45:25Z</time>
      </trkpt>
      <trkpt lat="44.44489" lon="6.14802">
        <ele>1272.1</ele>
        <time>2019-09-03T10:45:37Z</time>
      </trkpt>
      <trkpt lat="44.44491" lon="6.14802">
        <ele>1271.9</ele>
        <time>2019-09-03T10:45:38Z</time>
      </trkpt>
      <trkpt lat="44.44492" lon="6.14802">
        <ele>1271.7</ele>
        <time>2019-09-03T10:45:39Z</time>
      </trkpt>
      <trkpt lat="44.44508" lon="6.14792">
        <ele>1276.7</ele>
        <time>2019-09-03T10:45:50Z</time>
      </trkpt>
      <trkpt lat="44.44534" lon="6.14801">
        <ele>1280.9</ele>
        <time>2019-09-03T10:46:04Z</time>
      </trkpt>
      <trkpt lat="44.44554" lon="6.14812">
        <ele>1282.2</ele>
        <time>2019-09-03T10:46:16Z</time>
      </trkpt>
      <trkpt lat="44.44578" lon="6.14828">
        <ele>1282.6</ele>
        <time>2019-09-03T10:46:31Z</time>
      </trkpt>
      <trkpt lat="44.44598" lon="6.14828">
        <ele>1287.7</ele>
        <time>2019-09-03T10:46:43Z</time>
      </trkpt>
      <trkpt lat="44.44624" lon="6.14827">
        <ele>1294.5</ele>
        <time>2019-09-03T10:46:58Z</time>
      </trkpt>
      <trkpt lat="44.44649" lon="6.14834">
        <ele>1297.4</ele>
        <time>2019-09-03T10:47:13Z</time>
      </trkpt>
      <trkpt lat="44.44675" lon="6.1485">
        <ele>1298</ele>
        <time>2019-09-03T10:47:28Z</time>
      </trkpt>
      <trkpt lat="44.44697" lon="6.14869">
        <ele>1297.5</ele>
        <time>2019-09-03T10:47:42Z</time>
      </trkpt>
      <trkpt lat="44.44717" lon="6.14898">
        <ele>1295.1</ele>
        <time>2019-09-03T10:47:58Z</time>
      </trkpt>
      <trkpt lat="44.44734" lon="6.14925">
        <ele>1293.4</ele>
        <time>2019-09-03T10:48:12Z</time>
      </trkpt>
      <trkpt lat="44.44736" lon="6.14926">
        <ele>1293.4</ele>
        <time>2019-09-03T10:48:13Z</time>
      </trkpt>
      <trkpt lat="44.44737" lon="6.14928">
        <ele>1293.6</ele>
        <time>2019-09-03T10:48:14Z</time>
      </trkpt>
      <trkpt lat="44.44739" lon="6.14929">
        <ele>1293.7</ele>
        <time>2019-09-03T10:48:15Z</time>
      </trkpt>
      <trkpt lat="44.4474" lon="6.14931">
        <ele>1293.7</ele>
        <time>2019-09-03T10:48:16Z</time>
      </trkpt>
      <trkpt lat="44.44742" lon="6.14932">
        <ele>1293.6</ele>
        <time>2019-09-03T10:48:17Z</time>
      </trkpt>
      <trkpt lat="44.44767" lon="6.14938">
        <ele>1293.2</ele>
        <time>2019-09-03T10:48:31Z</time>
      </trkpt>
      <trkpt lat="44.4479" lon="6.14938">
        <ele>1291.5</ele>
        <time>2019-09-03T10:48:43Z</time>
      </trkpt>
      <trkpt lat="44.44805" lon="6.14919">
        <ele>1293.9</ele>
        <time>2019-09-03T10:48:56Z</time>
      </trkpt>
      <trkpt lat="44.44804" lon="6.14907">
        <ele>1296</ele>
        <time>2019-09-03T10:49:01Z</time>
      </trkpt>
      <trkpt lat="44.44803" lon="6.14904">
        <ele>1296.5</ele>
        <time>2019-09-03T10:49:02Z</time>
      </trkpt>
      <trkpt lat="44.44802" lon="6.14901">
        <ele>1297</ele>
        <time>2019-09-03T10:49:03Z</time>
      </trkpt>
      <trkpt lat="44.44801" lon="6.14898">
        <ele>1297.5</ele>
        <time>2019-09-03T10:49:04Z</time>
      </trkpt>
      <trkpt lat="44.44801" lon="6.14896">
        <ele>1298</ele>
        <time>2019-09-03T10:49:05Z</time>
      </trkpt>
      <trkpt lat="44.448" lon="6.14893">
        <ele>1298.4</ele>
        <time>2019-09-03T10:49:06Z</time>
      </trkpt>
      <trkpt lat="44.448" lon="6.14891">
        <ele>1298.9</ele>
        <time>2019-09-03T10:49:07Z</time>
      </trkpt>
      <trkpt lat="44.44799" lon="6.14888">
        <ele>1299.3</ele>
        <time>2019-09-03T10:49:08Z</time>
      </trkpt>
      <trkpt lat="44.44799" lon="6.14886">
        <ele>1299.8</ele>
        <time>2019-09-03T10:49:09Z</time>
      </trkpt>
      <trkpt lat="44.44798" lon="6.14883">
        <ele>1300.3</ele>
        <time>2019-09-03T10:49:10Z</time>
      </trkpt>
      <trkpt lat="44.44787" lon="6.1485">
        <ele>1307.3</ele>
        <time>2019-09-03T10:49:25Z</time>
      </trkpt>
      <trkpt lat="44.44777" lon="6.14826">
        <ele>1312.8</ele>
        <time>2019-09-03T10:49:36Z</time>
      </trkpt>
      <trkpt lat="44.44768" lon="6.14805">
        <ele>1317.9</ele>
        <time>2019-09-03T10:49:45Z</time>
      </trkpt>
      <trkpt lat="44.44767" lon="6.14804">
        <ele>1318.4</ele>
        <time>2019-09-03T10:49:46Z</time>
      </trkpt>
      <trkpt lat="44.44766" lon="6.14802">
        <ele>1319</ele>
        <time>2019-09-03T10:49:47Z</time>
      </trkpt>
      <trkpt lat="44.44746" lon="6.14787">
        <ele>1325.1</ele>
        <time>2019-09-03T10:50:01Z</time>
      </trkpt>
      <trkpt lat="44.44725" lon="6.14779">
        <ele>1326.6</ele>
        <time>2019-09-03T10:50:12Z</time>
      </trkpt>
      <trkpt lat="44.44693" lon="6.14779">
        <ele>1326.2</ele>
        <time>2019-09-03T10:50:28Z</time>
      </trkpt>
      <trkpt lat="44.44667" lon="6.14766">
        <ele>1331.8</ele>
        <time>2019-09-03T10:50:43Z</time>
      </trkpt>
      <trkpt lat="44.44644" lon="6.14751">
        <ele>1332.6</ele>
        <time>2019-09-03T10:50:57Z</time>
      </trkpt>
      <trkpt lat="44.44616" lon="6.14738">
        <ele>1329.6</ele>
        <time>2019-09-03T10:51:13Z</time>
      </trkpt>
      <trkpt lat="44.44592" lon="6.14713">
        <ele>1334.2</ele>
        <time>2019-09-03T10:51:30Z</time>
      </trkpt>
      <trkpt lat="44.44568" lon="6.14684">
        <ele>1339.1</ele>
        <time>2019-09-03T10:51:48Z</time>
      </trkpt>
      <trkpt lat="44.44547" lon="6.14654">
        <ele>1341.3</ele>
        <time>2019-09-03T10:52:05Z</time>
      </trkpt>
      <trkpt lat="44.44539" lon="6.14623">
        <ele>1346.4</ele>
        <time>2019-09-03T10:52:19Z</time>
      </trkpt>
      <trkpt lat="44.44527" lon="6.14588">
        <ele>1352.8</ele>
        <time>2019-09-03T10:52:35Z</time>
      </trkpt>
      <trkpt lat="44.44515" lon="6.14555">
        <ele>1355.2</ele>
        <time>2019-09-03T10:52:50Z</time>
      </trkpt>
      <trkpt lat="44.44498" lon="6.14529">
        <ele>1359.7</ele>
        <time>2019-09-03T10:53:04Z</time>
      </trkpt>
      <trkpt lat="44.44496" lon="6.14528">
        <ele>1360.2</ele>
        <time>2019-09-03T10:53:05Z</time>
      </trkpt>
      <trkpt lat="44.44495" lon="6.14527">
        <ele>1360.8</ele>
        <time>2019-09-03T10:53:06Z</time>
      </trkpt>
      <trkpt lat="44.44493" lon="6.14524">
        <ele>1361.5</ele>
        <time>2019-09-03T10:53:07Z</time>
      </trkpt>
      <trkpt lat="44.44492" lon="6.14522">
        <ele>1362.2</ele>
        <time>2019-09-03T10:53:08Z</time>
      </trkpt>
      <trkpt lat="44.44476" lon="6.14504">
        <ele>1368.2</ele>
        <time>2019-09-03T10:53:20Z</time>
      </trkpt>
      <trkpt lat="44.44459" lon="6.14526">
        <ele>1367.1</ele>
        <time>2019-09-03T10:53:32Z</time>
      </trkpt>
      <trkpt lat="44.44436" lon="6.14566">
        <ele>1364.3</ele>
        <time>2019-09-03T10:53:47Z</time>
      </trkpt>
      <trkpt lat="44.44407" lon="6.1459">
        <ele>1365.7</ele>
        <time>2019-09-03T10:54:01Z</time>
      </trkpt>
      <trkpt lat="44.44376" lon="6.14615">
        <ele>1366.9</ele>
        <time>2019-09-03T10:54:15Z</time>
      </trkpt>
      <trkpt lat="44.44349" lon="6.14649">
        <ele>1364.7</ele>
        <time>2019-09-03T10:54:30Z</time>
      </trkpt>
      <trkpt lat="44.44326" lon="6.14678">
        <ele>1363.2</ele>
        <time>2019-09-03T10:54:43Z</time>
      </trkpt>
      <trkpt lat="44.443" lon="6.14701">
        <ele>1363.2</ele>
        <time>2019-09-03T10:54:55Z</time>
      </trkpt>
      <trkpt lat="44.44284" lon="6.14732">
        <ele>1360.9</ele>
        <time>2019-09-03T10:55:05Z</time>
      </trkpt>
      <trkpt lat="44.44266" lon="6.14764">
        <ele>1361</ele>
        <time>2019-09-03T10:55:15Z</time>
      </trkpt>
      <trkpt lat="44.44254" lon="6.1481">
        <ele>1358.8</ele>
        <time>2019-09-03T10:55:28Z</time>
      </trkpt>
      <trkpt lat="44.44244" lon="6.14846">
        <ele>1355.9</ele>
        <time>2019-09-03T10:55:40Z</time>
      </trkpt>
      <trkpt lat="44.44236" lon="6.14856">
        <ele>1355</ele>
        <time>2019-09-03T10:55:49Z</time>
      </trkpt>
      <trkpt lat="44.44219" lon="6.14828">
        <ele>1356.3</ele>
        <time>2019-09-03T11:03:25Z</time>
      </trkpt>
      <trkpt lat="44.44218" lon="6.14826">
        <ele>1356.4</ele>
        <time>2019-09-03T11:03:26Z</time>
      </trkpt>
      <trkpt lat="44.44217" lon="6.14824">
        <ele>1356.5</ele>
        <time>2019-09-03T11:03:27Z</time>
      </trkpt>
      <trkpt lat="44.44216" lon="6.14822">
        <ele>1356.6</ele>
        <time>2019-09-03T11:03:28Z</time>
      </trkpt>
      <trkpt lat="44.44215" lon="6.14819">
        <ele>1356.7</ele>
        <time>2019-09-03T11:03:29Z</time>
      </trkpt>
      <trkpt lat="44.44196" lon="6.1479">
        <ele>1356.2</ele>
        <time>2019-09-03T11:03:39Z</time>
      </trkpt>
      <trkpt lat="44.44168" lon="6.14748">
        <ele>1351.4</ele>
        <time>2019-09-03T11:03:52Z</time>
      </trkpt>
      <trkpt lat="44.44153" lon="6.14703">
        <ele>1343.7</ele>
        <time>2019-09-03T11:04:04Z</time>
      </trkpt>
      <trkpt lat="44.44158" lon="6.14649">
        <ele>1347.4</ele>
        <time>2019-09-03T11:04:15Z</time>
      </trkpt>
      <trkpt lat="44.44155" lon="6.1461">
        <ele>1349.5</ele>
        <time>2019-09-03T11:04:26Z</time>
      </trkpt>
      <trkpt lat="44.44155" lon="6.14574">
        <ele>1353.7</ele>
        <time>2019-09-03T11:04:35Z</time>
      </trkpt>
      <trkpt lat="44.44148" lon="6.14562">
        <ele>1354.1</ele>
        <time>2019-09-03T11:04:39Z</time>
      </trkpt>
      <trkpt lat="44.44146" lon="6.14561">
        <ele>1353.5</ele>
        <time>2019-09-03T11:04:40Z</time>
      </trkpt>
      <trkpt lat="44.44143" lon="6.1456">
        <ele>1352.9</ele>
        <time>2019-09-03T11:04:41Z</time>
      </trkpt>
      <trkpt lat="44.44106" lon="6.14549">
        <ele>1343.4</ele>
        <time>2019-09-03T11:04:54Z</time>
      </trkpt>
      <trkpt lat="44.44087" lon="6.14515">
        <ele>1346.9</ele>
        <time>2019-09-03T11:05:05Z</time>
      </trkpt>
      <trkpt lat="44.44066" lon="6.14527">
        <ele>1339.9</ele>
        <time>2019-09-03T11:05:14Z</time>
      </trkpt>
      <trkpt lat="44.44038" lon="6.14548">
        <ele>1331.4</ele>
        <time>2019-09-03T11:05:26Z</time>
      </trkpt>
      <trkpt lat="44.44004" lon="6.14568">
        <ele>1323.5</ele>
        <time>2019-09-03T11:05:40Z</time>
      </trkpt>
      <trkpt lat="44.44001" lon="6.14568">
        <ele>1323.2</ele>
        <time>2019-09-03T11:05:41Z</time>
      </trkpt>
      <trkpt lat="44.43977" lon="6.14547">
        <ele>1320</ele>
        <time>2019-09-03T11:05:53Z</time>
      </trkpt>
      <trkpt lat="44.43968" lon="6.1452">
        <ele>1322.4</ele>
        <time>2019-09-03T11:05:58Z</time>
      </trkpt>
      <trkpt lat="44.43954" lon="6.14474">
        <ele>1330.2</ele>
        <time>2019-09-03T11:06:09Z</time>
      </trkpt>
      <trkpt lat="44.43953" lon="6.14457">
        <ele>1335</ele>
        <time>2019-09-03T11:06:14Z</time>
      </trkpt>
      <trkpt lat="44.43952" lon="6.14455">
        <ele>1335.4</ele>
        <time>2019-09-03T11:06:15Z</time>
      </trkpt>
      <trkpt lat="44.4395" lon="6.14454">
        <ele>1335.6</ele>
        <time>2019-09-03T11:06:16Z</time>
      </trkpt>
      <trkpt lat="44.43949" lon="6.14453">
        <ele>1335.6</ele>
        <time>2019-09-03T11:06:17Z</time>
      </trkpt>
      <trkpt lat="44.43946" lon="6.14452">
        <ele>1335.2</ele>
        <time>2019-09-03T11:06:18Z</time>
      </trkpt>
      <trkpt lat="44.43943" lon="6.14451">
        <ele>1334.5</ele>
        <time>2019-09-03T11:06:19Z</time>
      </trkpt>
      <trkpt lat="44.4394" lon="6.14452">
        <ele>1333.6</ele>
        <time>2019-09-03T11:06:20Z</time>
      </trkpt>
      <trkpt lat="44.43936" lon="6.14452">
        <ele>1332.4</ele>
        <time>2019-09-03T11:06:21Z</time>
      </trkpt>
      <trkpt lat="44.43933" lon="6.14453">
        <ele>1331.4</ele>
        <time>2019-09-03T11:06:22Z</time>
      </trkpt>
      <trkpt lat="44.4393" lon="6.14453">
        <ele>1330.4</ele>
        <time>2019-09-03T11:06:23Z</time>
      </trkpt>
      <trkpt lat="44.43927" lon="6.14454">
        <ele>1329.3</ele>
        <time>2019-09-03T11:06:24Z</time>
      </trkpt>
      <trkpt lat="44.43892" lon="6.14473">
        <ele>1315.9</ele>
        <time>2019-09-03T11:06:37Z</time>
      </trkpt>
      <trkpt lat="44.43853" lon="6.14471">
        <ele>1311</ele>
        <time>2019-09-03T11:06:47Z</time>
      </trkpt>
      <trkpt lat="44.4381" lon="6.14483">
        <ele>1301.8</ele>
        <time>2019-09-03T11:06:59Z</time>
      </trkpt>
      <trkpt lat="44.43799" lon="6.14482">
        <ele>1300.7</ele>
        <time>2019-09-03T11:07:08Z</time>
      </trkpt>
      <trkpt lat="44.43794" lon="6.14476">
        <ele>1300.8</ele>
        <time>2019-09-03T11:07:50Z</time>
      </trkpt>
      <trkpt lat="44.43789" lon="6.14438">
        <ele>1305.3</ele>
        <time>2019-09-03T11:08:00Z</time>
      </trkpt>
      <trkpt lat="44.43804" lon="6.14397">
        <ele>1314.5</ele>
        <time>2019-09-03T11:08:11Z</time>
      </trkpt>
      <trkpt lat="44.43812" lon="6.14355">
        <ele>1320.7</ele>
        <time>2019-09-03T11:08:23Z</time>
      </trkpt>
      <trkpt lat="44.4381" lon="6.14353">
        <ele>1320.5</ele>
        <time>2019-09-03T11:08:24Z</time>
      </trkpt>
      <trkpt lat="44.43808" lon="6.14351">
        <ele>1320.2</ele>
        <time>2019-09-03T11:08:25Z</time>
      </trkpt>
      <trkpt lat="44.43806" lon="6.14349">
        <ele>1319.6</ele>
        <time>2019-09-03T11:08:26Z</time>
      </trkpt>
      <trkpt lat="44.43803" lon="6.14348">
        <ele>1318.8</ele>
        <time>2019-09-03T11:08:27Z</time>
      </trkpt>
      <trkpt lat="44.43762" lon="6.14326">
        <ele>1309.4</ele>
        <time>2019-09-03T11:08:42Z</time>
      </trkpt>
      <trkpt lat="44.43744" lon="6.14289">
        <ele>1307.2</ele>
        <time>2019-09-03T11:08:55Z</time>
      </trkpt>
      <trkpt lat="44.43744" lon="6.14287">
        <ele>1307.3</ele>
        <time>2019-09-03T11:09:00Z</time>
      </trkpt>
      <trkpt lat="44.43744" lon="6.14278">
        <ele>1308.1</ele>
        <time>2019-09-03T11:09:27Z</time>
      </trkpt>
      <trkpt lat="44.43748" lon="6.14231">
        <ele>1311.8</ele>
        <time>2019-09-03T11:09:38Z</time>
      </trkpt>
      <trkpt lat="44.43764" lon="6.14179">
        <ele>1317.9</ele>
        <time>2019-09-03T11:09:51Z</time>
      </trkpt>
      <trkpt lat="44.4378" lon="6.14131">
        <ele>1325.3</ele>
        <time>2019-09-03T11:10:03Z</time>
      </trkpt>
      <trkpt lat="44.43788" lon="6.14083">
        <ele>1327.2</ele>
        <time>2019-09-03T11:10:15Z</time>
      </trkpt>
      <trkpt lat="44.43805" lon="6.14063">
        <ele>1334.1</ele>
        <time>2019-09-03T11:10:25Z</time>
      </trkpt>
      <trkpt lat="44.43809" lon="6.14059">
        <ele>1335.5</ele>
        <time>2019-09-03T11:10:27Z</time>
      </trkpt>
      <trkpt lat="44.43832" lon="6.1404">
        <ele>1342.1</ele>
        <time>2019-09-03T11:10:36Z</time>
      </trkpt>
      <trkpt lat="44.43855" lon="6.14009">
        <ele>1349.2</ele>
        <time>2019-09-03T11:10:48Z</time>
      </trkpt>
      <trkpt lat="44.43857" lon="6.14003">
        <ele>1349.5</ele>
        <time>2019-09-03T11:10:50Z</time>
      </trkpt>
      <trkpt lat="44.43856" lon="6.14001">
        <ele>1349.3</ele>
        <time>2019-09-03T11:10:51Z</time>
      </trkpt>
      <trkpt lat="44.43855" lon="6.13998">
        <ele>1349.2</ele>
        <time>2019-09-03T11:10:52Z</time>
      </trkpt>
      <trkpt lat="44.43853" lon="6.13997">
        <ele>1349.1</ele>
        <time>2019-09-03T11:10:53Z</time>
      </trkpt>
      <trkpt lat="44.4385" lon="6.13996">
        <ele>1348.6</ele>
        <time>2019-09-03T11:10:54Z</time>
      </trkpt>
      <trkpt lat="44.43847" lon="6.13995">
        <ele>1347.8</ele>
        <time>2019-09-03T11:10:55Z</time>
      </trkpt>
      <trkpt lat="44.43815" lon="6.13994">
        <ele>1341.8</ele>
        <time>2019-09-03T11:11:07Z</time>
      </trkpt>
      <trkpt lat="44.4379" lon="6.13986">
        <ele>1339.9</ele>
        <time>2019-09-03T11:11:18Z</time>
      </trkpt>
      <trkpt lat="44.43762" lon="6.13968">
        <ele>1340.4</ele>
        <time>2019-09-03T11:11:32Z</time>
      </trkpt>
      <trkpt lat="44.43766" lon="6.13947">
        <ele>1346.8</ele>
        <time>2019-09-03T11:11:40Z</time>
      </trkpt>
      <trkpt lat="44.43771" lon="6.13915">
        <ele>1355.8</ele>
        <time>2019-09-03T11:11:51Z</time>
      </trkpt>
      <trkpt lat="44.4377" lon="6.13913">
        <ele>1356.3</ele>
        <time>2019-09-03T11:11:52Z</time>
      </trkpt>
      <trkpt lat="44.43769" lon="6.13911">
        <ele>1356.4</ele>
        <time>2019-09-03T11:11:53Z</time>
      </trkpt>
      <trkpt lat="44.43767" lon="6.13909">
        <ele>1356.4</ele>
        <time>2019-09-03T11:11:54Z</time>
      </trkpt>
      <trkpt lat="44.43765" lon="6.13908">
        <ele>1356.3</ele>
        <time>2019-09-03T11:11:55Z</time>
      </trkpt>
      <trkpt lat="44.43763" lon="6.13907">
        <ele>1356.1</ele>
        <time>2019-09-03T11:11:56Z</time>
      </trkpt>
      <trkpt lat="44.43761" lon="6.13907">
        <ele>1355.9</ele>
        <time>2019-09-03T11:11:57Z</time>
      </trkpt>
      <trkpt lat="44.43759" lon="6.13907">
        <ele>1355.6</ele>
        <time>2019-09-03T11:11:58Z</time>
      </trkpt>
      <trkpt lat="44.43737" lon="6.139">
        <ele>1353.7</ele>
        <time>2019-09-03T11:12:10Z</time>
      </trkpt>
      <trkpt lat="44.43715" lon="6.13894">
        <ele>1351.6</ele>
        <time>2019-09-03T11:12:21Z</time>
      </trkpt>
      <trkpt lat="44.43688" lon="6.13875">
        <ele>1350.6</ele>
        <time>2019-09-03T11:12:34Z</time>
      </trkpt>
      <trkpt lat="44.4368" lon="6.13838">
        <ele>1354.1</ele>
        <time>2019-09-03T11:12:47Z</time>
      </trkpt>
      <trkpt lat="44.4368" lon="6.13803">
        <ele>1355.6</ele>
        <time>2019-09-03T11:12:59Z</time>
      </trkpt>
      <trkpt lat="44.43684" lon="6.13761">
        <ele>1357.7</ele>
        <time>2019-09-03T11:13:13Z</time>
      </trkpt>
      <trkpt lat="44.43691" lon="6.13732">
        <ele>1357.5</ele>
        <time>2019-09-03T11:13:23Z</time>
      </trkpt>
      <trkpt lat="44.43691" lon="6.13728">
        <ele>1356.9</ele>
        <time>2019-09-03T11:13:24Z</time>
      </trkpt>
      <trkpt lat="44.43689" lon="6.13722">
        <ele>1356</ele>
        <time>2019-09-03T11:13:25Z</time>
      </trkpt>
      <trkpt lat="44.43682" lon="6.13692">
        <ele>1350.9</ele>
        <time>2019-09-03T11:13:35Z</time>
      </trkpt>
      <trkpt lat="44.4368" lon="6.13691">
        <ele>1350.4</ele>
        <time>2019-09-03T11:13:36Z</time>
      </trkpt>
      <trkpt lat="44.43678" lon="6.1369">
        <ele>1350</ele>
        <time>2019-09-03T11:13:37Z</time>
      </trkpt>
      <trkpt lat="44.43676" lon="6.13691">
        <ele>1349.6</ele>
        <time>2019-09-03T11:13:43Z</time>
      </trkpt>
      <trkpt lat="44.43674" lon="6.13701">
        <ele>1350.3</ele>
        <time>2019-09-03T11:14:22Z</time>
      </trkpt>
      <trkpt lat="44.43661" lon="6.13731">
        <ele>1350.8</ele>
        <time>2019-09-03T11:14:34Z</time>
      </trkpt>
      <trkpt lat="44.43632" lon="6.13744">
        <ele>1346.3</ele>
        <time>2019-09-03T11:14:44Z</time>
      </trkpt>
      <trkpt lat="44.43609" lon="6.13767">
        <ele>1341</ele>
        <time>2019-09-03T11:14:53Z</time>
      </trkpt>
      <trkpt lat="44.43606" lon="6.13774">
        <ele>1339.9</ele>
        <time>2019-09-03T11:14:55Z</time>
      </trkpt>
      <trkpt lat="44.43599" lon="6.13789">
        <ele>1336.9</ele>
        <time>2019-09-03T11:15:02Z</time>
      </trkpt>
      <trkpt lat="44.43597" lon="6.13789">
        <ele>1336.5</ele>
        <time>2019-09-03T11:15:03Z</time>
      </trkpt>
      <trkpt lat="44.43595" lon="6.13789">
        <ele>1336</ele>
        <time>2019-09-03T11:15:04Z</time>
      </trkpt>
      <trkpt lat="44.43593" lon="6.13788">
        <ele>1335.6</ele>
        <time>2019-09-03T11:15:05Z</time>
      </trkpt>
      <trkpt lat="44.43591" lon="6.13787">
        <ele>1335.3</ele>
        <time>2019-09-03T11:15:06Z</time>
      </trkpt>
      <trkpt lat="44.4359" lon="6.13785">
        <ele>1335.1</ele>
        <time>2019-09-03T11:15:07Z</time>
      </trkpt>
      <trkpt lat="44.43588" lon="6.13783">
        <ele>1334.9</ele>
        <time>2019-09-03T11:15:08Z</time>
      </trkpt>
      <trkpt lat="44.43586" lon="6.13782">
        <ele>1334.7</ele>
        <time>2019-09-03T11:15:09Z</time>
      </trkpt>
      <trkpt lat="44.43585" lon="6.13779">
        <ele>1334.5</ele>
        <time>2019-09-03T11:15:10Z</time>
      </trkpt>
      <trkpt lat="44.43584" lon="6.13776">
        <ele>1334.5</ele>
        <time>2019-09-03T11:15:11Z</time>
      </trkpt>
      <trkpt lat="44.43582" lon="6.13773">
        <ele>1334.7</ele>
        <time>2019-09-03T11:15:12Z</time>
      </trkpt>
      <trkpt lat="44.43562" lon="6.13755">
        <ele>1335.1</ele>
        <time>2019-09-03T11:15:19Z</time>
      </trkpt>
      <trkpt lat="44.43543" lon="6.13759">
        <ele>1333.3</ele>
        <time>2019-09-03T11:15:26Z</time>
      </trkpt>
      <trkpt lat="44.43542" lon="6.13762">
        <ele>1332.8</ele>
        <time>2019-09-03T11:15:27Z</time>
      </trkpt>
      <trkpt lat="44.43541" lon="6.13765">
        <ele>1332.3</ele>
        <time>2019-09-03T11:15:28Z</time>
      </trkpt>
      <trkpt lat="44.4354" lon="6.13769">
        <ele>1331.7</ele>
        <time>2019-09-03T11:15:29Z</time>
      </trkpt>
      <trkpt lat="44.4354" lon="6.13772">
        <ele>1331.2</ele>
        <time>2019-09-03T11:15:30Z</time>
      </trkpt>
      <trkpt lat="44.4354" lon="6.13799">
        <ele>1327.3</ele>
        <time>2019-09-03T11:15:42Z</time>
      </trkpt>
      <trkpt lat="44.43535" lon="6.13806">
        <ele>1325.7</ele>
        <time>2019-09-03T11:15:46Z</time>
      </trkpt>
      <trkpt lat="44.43534" lon="6.13806">
        <ele>1325.4</ele>
        <time>2019-09-03T11:15:47Z</time>
      </trkpt>
      <trkpt lat="44.43532" lon="6.13806">
        <ele>1325.2</ele>
        <time>2019-09-03T11:15:48Z</time>
      </trkpt>
      <trkpt lat="44.4353" lon="6.13806">
        <ele>1325</ele>
        <time>2019-09-03T11:15:49Z</time>
      </trkpt>
      <trkpt lat="44.43528" lon="6.13806">
        <ele>1324.8</ele>
        <time>2019-09-03T11:15:50Z</time>
      </trkpt>
      <trkpt lat="44.43526" lon="6.13806">
        <ele>1324.5</ele>
        <time>2019-09-03T11:15:51Z</time>
      </trkpt>
      <trkpt lat="44.43516" lon="6.13807">
        <ele>1323</ele>
        <time>2019-09-03T11:16:00Z</time>
      </trkpt>
      <trkpt lat="44.43509" lon="6.13809">
        <ele>1321.8</ele>
        <time>2019-09-03T11:16:18Z</time>
      </trkpt>
      <trkpt lat="44.43481" lon="6.13831">
        <ele>1315.1</ele>
        <time>2019-09-03T11:16:27Z</time>
      </trkpt>
      <trkpt lat="44.43468" lon="6.13846">
        <ele>1310.2</ele>
        <time>2019-09-03T11:16:31Z</time>
      </trkpt>
      <trkpt lat="44.43461" lon="6.13852">
        <ele>1307.9</ele>
        <time>2019-09-03T11:16:33Z</time>
      </trkpt>
      <trkpt lat="44.43448" lon="6.1386">
        <ele>1304.6</ele>
        <time>2019-09-03T11:16:37Z</time>
      </trkpt>
      <trkpt lat="44.43417" lon="6.1386">
        <ele>1302.3</ele>
        <time>2019-09-03T11:16:46Z</time>
      </trkpt>
      <trkpt lat="44.4339" lon="6.1384">
        <ele>1301</ele>
        <time>2019-09-03T11:16:55Z</time>
      </trkpt>
      <trkpt lat="44.4337" lon="6.13819">
        <ele>1297.4</ele>
        <time>2019-09-03T11:17:03Z</time>
      </trkpt>
      <trkpt lat="44.43368" lon="6.1382">
        <ele>1296.8</ele>
        <time>2019-09-03T11:17:04Z</time>
      </trkpt>
      <trkpt lat="44.43366" lon="6.13822">
        <ele>1296.2</ele>
        <time>2019-09-03T11:17:05Z</time>
      </trkpt>
      <trkpt lat="44.43365" lon="6.13824">
        <ele>1295.8</ele>
        <time>2019-09-03T11:17:06Z</time>
      </trkpt>
      <trkpt lat="44.43364" lon="6.13828">
        <ele>1295.5</ele>
        <time>2019-09-03T11:17:07Z</time>
      </trkpt>
      <trkpt lat="44.43364" lon="6.13831">
        <ele>1295.4</ele>
        <time>2019-09-03T11:17:08Z</time>
      </trkpt>
      <trkpt lat="44.43364" lon="6.13834">
        <ele>1295.4</ele>
        <time>2019-09-03T11:17:09Z</time>
      </trkpt>
      <trkpt lat="44.43365" lon="6.13836">
        <ele>1295.1</ele>
        <time>2019-09-03T11:17:10Z</time>
      </trkpt>
      <trkpt lat="44.43373" lon="6.13859">
        <ele>1292.8</ele>
        <time>2019-09-03T11:17:18Z</time>
      </trkpt>
      <trkpt lat="44.43369" lon="6.13865">
        <ele>1290.7</ele>
        <time>2019-09-03T11:17:21Z</time>
      </trkpt>
      <trkpt lat="44.43367" lon="6.13866">
        <ele>1290.2</ele>
        <time>2019-09-03T11:17:22Z</time>
      </trkpt>
      <trkpt lat="44.43365" lon="6.13866">
        <ele>1289.8</ele>
        <time>2019-09-03T11:17:23Z</time>
      </trkpt>
      <trkpt lat="44.43364" lon="6.13865">
        <ele>1289.6</ele>
        <time>2019-09-03T11:17:24Z</time>
      </trkpt>
      <trkpt lat="44.43363" lon="6.13863">
        <ele>1289.7</ele>
        <time>2019-09-03T11:17:25Z</time>
      </trkpt>
      <trkpt lat="44.43362" lon="6.13861">
        <ele>1290</ele>
        <time>2019-09-03T11:17:26Z</time>
      </trkpt>
      <trkpt lat="44.43361" lon="6.13858">
        <ele>1290.3</ele>
        <time>2019-09-03T11:17:27Z</time>
      </trkpt>
      <trkpt lat="44.4336" lon="6.13855">
        <ele>1290.6</ele>
        <time>2019-09-03T11:17:28Z</time>
      </trkpt>
      <trkpt lat="44.43344" lon="6.13828">
        <ele>1289.9</ele>
        <time>2019-09-03T11:17:38Z</time>
      </trkpt>
      <trkpt lat="44.43342" lon="6.13828">
        <ele>1289.4</ele>
        <time>2019-09-03T11:17:39Z</time>
      </trkpt>
      <trkpt lat="44.4334" lon="6.13829">
        <ele>1288.9</ele>
        <time>2019-09-03T11:17:40Z</time>
      </trkpt>
      <trkpt lat="44.43339" lon="6.1383">
        <ele>1288.4</ele>
        <time>2019-09-03T11:17:41Z</time>
      </trkpt>
      <trkpt lat="44.43337" lon="6.13832">
        <ele>1288.1</ele>
        <time>2019-09-03T11:17:42Z</time>
      </trkpt>
      <trkpt lat="44.43337" lon="6.13834">
        <ele>1287.8</ele>
        <time>2019-09-03T11:17:43Z</time>
      </trkpt>
      <trkpt lat="44.43336" lon="6.13837">
        <ele>1287.4</ele>
        <time>2019-09-03T11:17:44Z</time>
      </trkpt>
      <trkpt lat="44.43337" lon="6.13839">
        <ele>1287.2</ele>
        <time>2019-09-03T11:17:45Z</time>
      </trkpt>
      <trkpt lat="44.43337" lon="6.13842">
        <ele>1287</ele>
        <time>2019-09-03T11:17:46Z</time>
      </trkpt>
      <trkpt lat="44.43338" lon="6.13845">
        <ele>1286.7</ele>
        <time>2019-09-03T11:17:47Z</time>
      </trkpt>
      <trkpt lat="44.43338" lon="6.13849">
        <ele>1286.3</ele>
        <time>2019-09-03T11:17:48Z</time>
      </trkpt>
      <trkpt lat="44.43339" lon="6.1386">
        <ele>1285.1</ele>
        <time>2019-09-03T11:17:51Z</time>
      </trkpt>
      <trkpt lat="44.43338" lon="6.13893">
        <ele>1280.7</ele>
        <time>2019-09-03T11:18:01Z</time>
      </trkpt>
      <trkpt lat="44.43336" lon="6.13894">
        <ele>1280.2</ele>
        <time>2019-09-03T11:18:02Z</time>
      </trkpt>
      <trkpt lat="44.43334" lon="6.13894">
        <ele>1279.8</ele>
        <time>2019-09-03T11:18:03Z</time>
      </trkpt>
      <trkpt lat="44.43332" lon="6.13894">
        <ele>1279.6</ele>
        <time>2019-09-03T11:18:04Z</time>
      </trkpt>
      <trkpt lat="44.4333" lon="6.13892">
        <ele>1279.4</ele>
        <time>2019-09-03T11:18:05Z</time>
      </trkpt>
      <trkpt lat="44.43328" lon="6.13891">
        <ele>1279.3</ele>
        <time>2019-09-03T11:18:06Z</time>
      </trkpt>
      <trkpt lat="44.43327" lon="6.13889">
        <ele>1279.2</ele>
        <time>2019-09-03T11:18:07Z</time>
      </trkpt>
      <trkpt lat="44.43325" lon="6.13887">
        <ele>1279.1</ele>
        <time>2019-09-03T11:18:08Z</time>
      </trkpt>
      <trkpt lat="44.43324" lon="6.13885">
        <ele>1279</ele>
        <time>2019-09-03T11:18:09Z</time>
      </trkpt>
      <trkpt lat="44.43322" lon="6.13883">
        <ele>1279</ele>
        <time>2019-09-03T11:18:10Z</time>
      </trkpt>
      <trkpt lat="44.4332" lon="6.13881">
        <ele>1278.9</ele>
        <time>2019-09-03T11:18:11Z</time>
      </trkpt>
      <trkpt lat="44.43319" lon="6.13878">
        <ele>1278.7</ele>
        <time>2019-09-03T11:18:12Z</time>
      </trkpt>
      <trkpt lat="44.43317" lon="6.13876">
        <ele>1278.7</ele>
        <time>2019-09-03T11:18:13Z</time>
      </trkpt>
      <trkpt lat="44.43316" lon="6.13874">
        <ele>1278.6</ele>
        <time>2019-09-03T11:18:14Z</time>
      </trkpt>
      <trkpt lat="44.43315" lon="6.13871">
        <ele>1278.5</ele>
        <time>2019-09-03T11:18:15Z</time>
      </trkpt>
      <trkpt lat="44.43313" lon="6.13869">
        <ele>1278.2</ele>
        <time>2019-09-03T11:18:16Z</time>
      </trkpt>
      <trkpt lat="44.43311" lon="6.13867">
        <ele>1277.9</ele>
        <time>2019-09-03T11:18:17Z</time>
      </trkpt>
      <trkpt lat="44.43309" lon="6.13866">
        <ele>1277.5</ele>
        <time>2019-09-03T11:18:18Z</time>
      </trkpt>
      <trkpt lat="44.43306" lon="6.13865">
        <ele>1277</ele>
        <time>2019-09-03T11:18:19Z</time>
      </trkpt>
      <trkpt lat="44.43304" lon="6.13866">
        <ele>1276.5</ele>
        <time>2019-09-03T11:18:20Z</time>
      </trkpt>
      <trkpt lat="44.43302" lon="6.13867">
        <ele>1275.9</ele>
        <time>2019-09-03T11:18:21Z</time>
      </trkpt>
      <trkpt lat="44.433" lon="6.13869">
        <ele>1275.4</ele>
        <time>2019-09-03T11:18:22Z</time>
      </trkpt>
      <trkpt lat="44.43298" lon="6.13871">
        <ele>1274.9</ele>
        <time>2019-09-03T11:18:23Z</time>
      </trkpt>
      <trkpt lat="44.43296" lon="6.13874">
        <ele>1274.4</ele>
        <time>2019-09-03T11:18:24Z</time>
      </trkpt>
      <trkpt lat="44.43295" lon="6.13877">
        <ele>1274.1</ele>
        <time>2019-09-03T11:18:25Z</time>
      </trkpt>
      <trkpt lat="44.43279" lon="6.13905">
        <ele>1271.5</ele>
        <time>2019-09-03T11:18:34Z</time>
      </trkpt>
      <trkpt lat="44.43266" lon="6.13918">
        <ele>1270.4</ele>
        <time>2019-09-03T11:18:39Z</time>
      </trkpt>
      <trkpt lat="44.43261" lon="6.13924">
        <ele>1269</ele>
        <time>2019-09-03T11:18:41Z</time>
      </trkpt>
      <trkpt lat="44.43241" lon="6.13954">
        <ele>1263.5</ele>
        <time>2019-09-03T11:18:50Z</time>
      </trkpt>
      <trkpt lat="44.43228" lon="6.13983">
        <ele>1259.2</ele>
        <time>2019-09-03T11:18:59Z</time>
      </trkpt>
      <trkpt lat="44.43212" lon="6.1401">
        <ele>1255.1</ele>
        <time>2019-09-03T11:19:10Z</time>
      </trkpt>
      <trkpt lat="44.43196" lon="6.14026">
        <ele>1253</ele>
        <time>2019-09-03T11:19:19Z</time>
      </trkpt>
      <trkpt lat="44.4318" lon="6.1402">
        <ele>1253.1</ele>
        <time>2019-09-03T11:19:28Z</time>
      </trkpt>
      <trkpt lat="44.43165" lon="6.13998">
        <ele>1252.7</ele>
        <time>2019-09-03T11:19:39Z</time>
      </trkpt>
      <trkpt lat="44.43162" lon="6.13998">
        <ele>1252.3</ele>
        <time>2019-09-03T11:19:40Z</time>
      </trkpt>
      <trkpt lat="44.4316" lon="6.13999">
        <ele>1251.9</ele>
        <time>2019-09-03T11:19:41Z</time>
      </trkpt>
      <trkpt lat="44.43157" lon="6.14001">
        <ele>1251.4</ele>
        <time>2019-09-03T11:19:42Z</time>
      </trkpt>
      <trkpt lat="44.43155" lon="6.14004">
        <ele>1251.1</ele>
        <time>2019-09-03T11:19:43Z</time>
      </trkpt>
      <trkpt lat="44.43154" lon="6.14007">
        <ele>1250.8</ele>
        <time>2019-09-03T11:19:44Z</time>
      </trkpt>
      <trkpt lat="44.43153" lon="6.1401">
        <ele>1250.6</ele>
        <time>2019-09-03T11:19:45Z</time>
      </trkpt>
      <trkpt lat="44.43153" lon="6.14013">
        <ele>1250.5</ele>
        <time>2019-09-03T11:19:46Z</time>
      </trkpt>
      <trkpt lat="44.43133" lon="6.14026">
        <ele>1247.1</ele>
        <time>2019-09-03T11:19:55Z</time>
      </trkpt>
      <trkpt lat="44.43111" lon="6.14021">
        <ele>1243.5</ele>
        <time>2019-09-03T11:20:04Z</time>
      </trkpt>
      <trkpt lat="44.43089" lon="6.14011">
        <ele>1240</ele>
        <time>2019-09-03T11:20:12Z</time>
      </trkpt>
      <trkpt lat="44.43081" lon="6.14006">
        <ele>1238.6</ele>
        <time>2019-09-03T11:20:15Z</time>
      </trkpt>
      <trkpt lat="44.43067" lon="6.14004">
        <ele>1235.6</ele>
        <time>2019-09-03T11:20:21Z</time>
      </trkpt>
      <trkpt lat="44.43065" lon="6.14005">
        <ele>1235.3</ele>
        <time>2019-09-03T11:20:22Z</time>
      </trkpt>
      <trkpt lat="44.43063" lon="6.14007">
        <ele>1234.9</ele>
        <time>2019-09-03T11:20:23Z</time>
      </trkpt>
      <trkpt lat="44.43041" lon="6.14024">
        <ele>1230.4</ele>
        <time>2019-09-03T11:20:34Z</time>
      </trkpt>
      <trkpt lat="44.43031" lon="6.14031">
        <ele>1228.3</ele>
        <time>2019-09-03T11:20:39Z</time>
      </trkpt>
      <trkpt lat="44.43012" lon="6.14037">
        <ele>1224.4</ele>
        <time>2019-09-03T11:20:48Z</time>
      </trkpt>
      <trkpt lat="44.42983" lon="6.14031">
        <ele>1219</ele>
        <time>2019-09-03T11:20:59Z</time>
      </trkpt>
      <trkpt lat="44.42974" lon="6.14034">
        <ele>1217.3</ele>
        <time>2019-09-03T11:21:03Z</time>
      </trkpt>
      <trkpt lat="44.4295" lon="6.14056">
        <ele>1212.1</ele>
        <time>2019-09-03T11:21:13Z</time>
      </trkpt>
      <trkpt lat="44.42927" lon="6.14059">
        <ele>1207.5</ele>
        <time>2019-09-03T11:21:22Z</time>
      </trkpt>
      <trkpt lat="44.42907" lon="6.14056">
        <ele>1203.4</ele>
        <time>2019-09-03T11:21:31Z</time>
      </trkpt>
      <trkpt lat="44.4289" lon="6.14039">
        <ele>1200.7</ele>
        <time>2019-09-03T11:21:41Z</time>
      </trkpt>
      <trkpt lat="44.42879" lon="6.14">
        <ele>1201.8</ele>
        <time>2019-09-03T11:21:51Z</time>
      </trkpt>
      <trkpt lat="44.4287" lon="6.13965">
        <ele>1198</ele>
        <time>2019-09-03T11:22:01Z</time>
      </trkpt>
      <trkpt lat="44.42863" lon="6.13925">
        <ele>1194.5</ele>
        <time>2019-09-03T11:22:12Z</time>
      </trkpt>
      <trkpt lat="44.42854" lon="6.13889">
        <ele>1189.3</ele>
        <time>2019-09-03T11:22:21Z</time>
      </trkpt>
      <trkpt lat="44.4285" lon="6.13865">
        <ele>1185.8</ele>
        <time>2019-09-03T11:22:29Z</time>
      </trkpt>
      <trkpt lat="44.42851" lon="6.13863">
        <ele>1185.7</ele>
        <time>2019-09-03T11:22:30Z</time>
      </trkpt>
      <trkpt lat="44.42853" lon="6.13861">
        <ele>1185.8</ele>
        <time>2019-09-03T11:22:31Z</time>
      </trkpt>
      <trkpt lat="44.42855" lon="6.13859">
        <ele>1185.9</ele>
        <time>2019-09-03T11:22:32Z</time>
      </trkpt>
      <trkpt lat="44.42857" lon="6.13856">
        <ele>1185.9</ele>
        <time>2019-09-03T11:22:33Z</time>
      </trkpt>
      <trkpt lat="44.42858" lon="6.13854">
        <ele>1185.9</ele>
        <time>2019-09-03T11:22:34Z</time>
      </trkpt>
      <trkpt lat="44.42861" lon="6.13845">
        <ele>1185.3</ele>
        <time>2019-09-03T11:22:37Z</time>
      </trkpt>
      <trkpt lat="44.4286" lon="6.13842">
        <ele>1184.8</ele>
        <time>2019-09-03T11:22:38Z</time>
      </trkpt>
      <trkpt lat="44.42859" lon="6.13839">
        <ele>1184.2</ele>
        <time>2019-09-03T11:22:39Z</time>
      </trkpt>
      <trkpt lat="44.42857" lon="6.13836">
        <ele>1183.7</ele>
        <time>2019-09-03T11:22:40Z</time>
      </trkpt>
      <trkpt lat="44.42856" lon="6.13834">
        <ele>1183.1</ele>
        <time>2019-09-03T11:22:41Z</time>
      </trkpt>
      <trkpt lat="44.42835" lon="6.13822">
        <ele>1176.7</ele>
        <time>2019-09-03T11:22:51Z</time>
      </trkpt>
      <trkpt lat="44.42813" lon="6.13817">
        <ele>1169.3</ele>
        <time>2019-09-03T11:23:00Z</time>
      </trkpt>
      <trkpt lat="44.42812" lon="6.13818">
        <ele>1169.1</ele>
        <time>2019-09-03T11:23:01Z</time>
      </trkpt>
      <trkpt lat="44.4281" lon="6.13821">
        <ele>1169.2</ele>
        <time>2019-09-03T11:23:02Z</time>
      </trkpt>
      <trkpt lat="44.42809" lon="6.13823">
        <ele>1169.5</ele>
        <time>2019-09-03T11:23:03Z</time>
      </trkpt>
      <trkpt lat="44.42809" lon="6.13826">
        <ele>1170</ele>
        <time>2019-09-03T11:23:04Z</time>
      </trkpt>
      <trkpt lat="44.42808" lon="6.13829">
        <ele>1170.5</ele>
        <time>2019-09-03T11:23:05Z</time>
      </trkpt>
      <trkpt lat="44.42808" lon="6.13832">
        <ele>1171.2</ele>
        <time>2019-09-03T11:23:06Z</time>
      </trkpt>
      <trkpt lat="44.42808" lon="6.13835">
        <ele>1171.8</ele>
        <time>2019-09-03T11:23:07Z</time>
      </trkpt>
      <trkpt lat="44.42809" lon="6.13839">
        <ele>1172.5</ele>
        <time>2019-09-03T11:23:08Z</time>
      </trkpt>
      <trkpt lat="44.42806" lon="6.13873">
        <ele>1176.4</ele>
        <time>2019-09-03T11:23:18Z</time>
      </trkpt>
      <trkpt lat="44.42785" lon="6.13877">
        <ele>1171.7</ele>
        <time>2019-09-03T11:23:26Z</time>
      </trkpt>
      <trkpt lat="44.42779" lon="6.13876">
        <ele>1169.9</ele>
        <time>2019-09-03T11:23:28Z</time>
      </trkpt>
      <trkpt lat="44.42741" lon="6.13872">
        <ele>1158.2</ele>
        <time>2019-09-03T11:23:41Z</time>
      </trkpt>
      <trkpt lat="44.42719" lon="6.13888">
        <ele>1151.3</ele>
        <time>2019-09-03T11:23:51Z</time>
      </trkpt>
      <trkpt lat="44.4272" lon="6.13938">
        <ele>1152.9</ele>
        <time>2019-09-03T11:24:01Z</time>
      </trkpt>
      <trkpt lat="44.42725" lon="6.13979">
        <ele>1151.1</ele>
        <time>2019-09-03T11:24:09Z</time>
      </trkpt>
      <trkpt lat="44.42734" lon="6.14017">
        <ele>1153.2</ele>
        <time>2019-09-03T11:24:17Z</time>
      </trkpt>
      <trkpt lat="44.42734" lon="6.14043">
        <ele>1152</ele>
        <time>2019-09-03T11:24:25Z</time>
      </trkpt>
      <trkpt lat="44.42733" lon="6.14045">
        <ele>1151.4</ele>
        <time>2019-09-03T11:24:26Z</time>
      </trkpt>
      <trkpt lat="44.42721" lon="6.14057">
        <ele>1146.1</ele>
        <time>2019-09-03T11:24:32Z</time>
      </trkpt>
      <trkpt lat="44.42711" lon="6.14101">
        <ele>1140.1</ele>
        <time>2019-09-03T11:24:45Z</time>
      </trkpt>
      <trkpt lat="44.42717" lon="6.14142">
        <ele>1137.3</ele>
        <time>2019-09-03T11:24:57Z</time>
      </trkpt>
      <trkpt lat="44.42716" lon="6.14152">
        <ele>1135.7</ele>
        <time>2019-09-03T11:25:06Z</time>
      </trkpt>
      <trkpt lat="44.42707" lon="6.14151">
        <ele>1133.3</ele>
        <time>2019-09-03T11:25:51Z</time>
      </trkpt>
      <trkpt lat="44.42705" lon="6.1415">
        <ele>1132.8</ele>
        <time>2019-09-03T11:25:52Z</time>
      </trkpt>
      <trkpt lat="44.42703" lon="6.14149">
        <ele>1132.5</ele>
        <time>2019-09-03T11:25:53Z</time>
      </trkpt>
      <trkpt lat="44.42701" lon="6.14148">
        <ele>1132.2</ele>
        <time>2019-09-03T11:25:54Z</time>
      </trkpt>
      <trkpt lat="44.427" lon="6.14146">
        <ele>1131.9</ele>
        <time>2019-09-03T11:25:55Z</time>
      </trkpt>
      <trkpt lat="44.42698" lon="6.14143">
        <ele>1131.7</ele>
        <time>2019-09-03T11:25:56Z</time>
      </trkpt>
      <trkpt lat="44.42697" lon="6.14141">
        <ele>1131.5</ele>
        <time>2019-09-03T11:25:57Z</time>
      </trkpt>
      <trkpt lat="44.42695" lon="6.14138">
        <ele>1131.2</ele>
        <time>2019-09-03T11:25:58Z</time>
      </trkpt>
      <trkpt lat="44.42693" lon="6.14135">
        <ele>1130.9</ele>
        <time>2019-09-03T11:25:59Z</time>
      </trkpt>
      <trkpt lat="44.42691" lon="6.14132">
        <ele>1130.5</ele>
        <time>2019-09-03T11:26:00Z</time>
      </trkpt>
      <trkpt lat="44.42674" lon="6.14119">
        <ele>1126.2</ele>
        <time>2019-09-03T11:26:09Z</time>
      </trkpt>
      <trkpt lat="44.42673" lon="6.14116">
        <ele>1126</ele>
        <time>2019-09-03T11:26:10Z</time>
      </trkpt>
      <trkpt lat="44.42672" lon="6.14114">
        <ele>1125.8</ele>
        <time>2019-09-03T11:26:11Z</time>
      </trkpt>
      <trkpt lat="44.42672" lon="6.14111">
        <ele>1125.8</ele>
        <time>2019-09-03T11:26:12Z</time>
      </trkpt>
      <trkpt lat="44.42672" lon="6.14108">
        <ele>1125.9</ele>
        <time>2019-09-03T11:26:13Z</time>
      </trkpt>
      <trkpt lat="44.42672" lon="6.14105">
        <ele>1126.1</ele>
        <time>2019-09-03T11:26:14Z</time>
      </trkpt>
      <trkpt lat="44.42673" lon="6.14102">
        <ele>1126.4</ele>
        <time>2019-09-03T11:26:15Z</time>
      </trkpt>
      <trkpt lat="44.42674" lon="6.14099">
        <ele>1127</ele>
        <time>2019-09-03T11:26:16Z</time>
      </trkpt>
      <trkpt lat="44.42675" lon="6.14096">
        <ele>1127.6</ele>
        <time>2019-09-03T11:26:17Z</time>
      </trkpt>
      <trkpt lat="44.42676" lon="6.14092">
        <ele>1128.3</ele>
        <time>2019-09-03T11:26:18Z</time>
      </trkpt>
      <trkpt lat="44.42677" lon="6.14088">
        <ele>1128.9</ele>
        <time>2019-09-03T11:26:19Z</time>
      </trkpt>
      <trkpt lat="44.42678" lon="6.14083">
        <ele>1129.4</ele>
        <time>2019-09-03T11:26:20Z</time>
      </trkpt>
      <trkpt lat="44.42679" lon="6.14079">
        <ele>1129.3</ele>
        <time>2019-09-03T11:26:21Z</time>
      </trkpt>
      <trkpt lat="44.42679" lon="6.14074">
        <ele>1129</ele>
        <time>2019-09-03T11:26:22Z</time>
      </trkpt>
      <trkpt lat="44.42678" lon="6.14071">
        <ele>1128.4</ele>
        <time>2019-09-03T11:26:23Z</time>
      </trkpt>
      <trkpt lat="44.42676" lon="6.14068">
        <ele>1127.6</ele>
        <time>2019-09-03T11:26:24Z</time>
      </trkpt>
      <trkpt lat="44.42674" lon="6.14067">
        <ele>1126.6</ele>
        <time>2019-09-03T11:26:25Z</time>
      </trkpt>
      <trkpt lat="44.42672" lon="6.14067">
        <ele>1125.6</ele>
        <time>2019-09-03T11:26:26Z</time>
      </trkpt>
      <trkpt lat="44.42669" lon="6.14068">
        <ele>1124.9</ele>
        <time>2019-09-03T11:26:27Z</time>
      </trkpt>
      <trkpt lat="44.42668" lon="6.1407">
        <ele>1124.2</ele>
        <time>2019-09-03T11:26:28Z</time>
      </trkpt>
      <trkpt lat="44.42666" lon="6.14073">
        <ele>1123.8</ele>
        <time>2019-09-03T11:26:29Z</time>
      </trkpt>
      <trkpt lat="44.42665" lon="6.14075">
        <ele>1123.6</ele>
        <time>2019-09-03T11:26:30Z</time>
      </trkpt>
      <trkpt lat="44.42664" lon="6.14078">
        <ele>1123.5</ele>
        <time>2019-09-03T11:26:31Z</time>
      </trkpt>
      <trkpt lat="44.42663" lon="6.14082">
        <ele>1123.3</ele>
        <time>2019-09-03T11:26:32Z</time>
      </trkpt>
      <trkpt lat="44.42661" lon="6.14086">
        <ele>1122.9</ele>
        <time>2019-09-03T11:26:33Z</time>
      </trkpt>
      <trkpt lat="44.42659" lon="6.14089">
        <ele>1122.2</ele>
        <time>2019-09-03T11:26:34Z</time>
      </trkpt>
      <trkpt lat="44.42657" lon="6.14092">
        <ele>1121.3</ele>
        <time>2019-09-03T11:26:35Z</time>
      </trkpt>
      <trkpt lat="44.42654" lon="6.14095">
        <ele>1120.4</ele>
        <time>2019-09-03T11:26:36Z</time>
      </trkpt>
      <trkpt lat="44.42651" lon="6.14098">
        <ele>1119.3</ele>
        <time>2019-09-03T11:26:37Z</time>
      </trkpt>
      <trkpt lat="44.42627" lon="6.14122">
        <ele>1112.2</ele>
        <time>2019-09-03T11:26:45Z</time>
      </trkpt>
      <trkpt lat="44.42609" lon="6.14151">
        <ele>1109.4</ele>
        <time>2019-09-03T11:26:55Z</time>
      </trkpt>
      <trkpt lat="44.42621" lon="6.14176">
        <ele>1110.5</ele>
        <time>2019-09-03T11:27:02Z</time>
      </trkpt>
      <trkpt lat="44.42627" lon="6.14185">
        <ele>1108.8</ele>
        <time>2019-09-03T11:27:06Z</time>
      </trkpt>
      <trkpt lat="44.42627" lon="6.14188">
        <ele>1107.9</ele>
        <time>2019-09-03T11:27:07Z</time>
      </trkpt>
      <trkpt lat="44.42626" lon="6.1419">
        <ele>1107.1</ele>
        <time>2019-09-03T11:27:08Z</time>
      </trkpt>
      <trkpt lat="44.42624" lon="6.14192">
        <ele>1106.4</ele>
        <time>2019-09-03T11:27:09Z</time>
      </trkpt>
      <trkpt lat="44.42622" lon="6.14192">
        <ele>1106</ele>
        <time>2019-09-03T11:27:10Z</time>
      </trkpt>
      <trkpt lat="44.4262" lon="6.14192">
        <ele>1105.7</ele>
        <time>2019-09-03T11:27:11Z</time>
      </trkpt>
      <trkpt lat="44.42618" lon="6.14191">
        <ele>1105.4</ele>
        <time>2019-09-03T11:27:12Z</time>
      </trkpt>
      <trkpt lat="44.42615" lon="6.1419">
        <ele>1105.2</ele>
        <time>2019-09-03T11:27:13Z</time>
      </trkpt>
      <trkpt lat="44.42593" lon="6.14185">
        <ele>1102.9</ele>
        <time>2019-09-03T11:27:19Z</time>
      </trkpt>
      <trkpt lat="44.42573" lon="6.14186">
        <ele>1099.5</ele>
        <time>2019-09-03T11:27:24Z</time>
      </trkpt>
      <trkpt lat="44.42551" lon="6.14186">
        <ele>1096</ele>
        <time>2019-09-03T11:27:30Z</time>
      </trkpt>
      <trkpt lat="44.42545" lon="6.14184">
        <ele>1095.1</ele>
        <time>2019-09-03T11:27:32Z</time>
      </trkpt>
      <trkpt lat="44.4252" lon="6.14176">
        <ele>1091.5</ele>
        <time>2019-09-03T11:27:40Z</time>
      </trkpt>
      <trkpt lat="44.4251" lon="6.14146">
        <ele>1086.3</ele>
        <time>2019-09-03T11:27:49Z</time>
      </trkpt>
      <trkpt lat="44.42508" lon="6.14145">
        <ele>1085.6</ele>
        <time>2019-09-03T11:27:50Z</time>
      </trkpt>
      <trkpt lat="44.42505" lon="6.14145">
        <ele>1085</ele>
        <time>2019-09-03T11:27:51Z</time>
      </trkpt>
      <trkpt lat="44.42503" lon="6.14146">
        <ele>1084.7</ele>
        <time>2019-09-03T11:27:52Z</time>
      </trkpt>
      <trkpt lat="44.42501" lon="6.14148">
        <ele>1084.8</ele>
        <time>2019-09-03T11:27:53Z</time>
      </trkpt>
      <trkpt lat="44.425" lon="6.14151">
        <ele>1085</ele>
        <time>2019-09-03T11:27:54Z</time>
      </trkpt>
      <trkpt lat="44.42499" lon="6.14155">
        <ele>1085.5</ele>
        <time>2019-09-03T11:27:55Z</time>
      </trkpt>
      <trkpt lat="44.42499" lon="6.14158">
        <ele>1086.1</ele>
        <time>2019-09-03T11:27:56Z</time>
      </trkpt>
      <trkpt lat="44.42499" lon="6.14162">
        <ele>1086.8</ele>
        <time>2019-09-03T11:27:57Z</time>
      </trkpt>
      <trkpt lat="44.42491" lon="6.14208">
        <ele>1084.9</ele>
        <time>2019-09-03T11:28:10Z</time>
      </trkpt>
      <trkpt lat="44.42481" lon="6.14247">
        <ele>1083.1</ele>
        <time>2019-09-03T11:28:21Z</time>
      </trkpt>
      <trkpt lat="44.42503" lon="6.14275">
        <ele>1078.8</ele>
        <time>2019-09-03T11:28:33Z</time>
      </trkpt>
      <trkpt lat="44.42516" lon="6.14285">
        <ele>1075.3</ele>
        <time>2019-09-03T11:28:40Z</time>
      </trkpt>
      <trkpt lat="44.42516" lon="6.14287">
        <ele>1074.5</ele>
        <time>2019-09-03T11:28:41Z</time>
      </trkpt>
      <trkpt lat="44.42516" lon="6.1429">
        <ele>1073.7</ele>
        <time>2019-09-03T11:28:42Z</time>
      </trkpt>
      <trkpt lat="44.42515" lon="6.14293">
        <ele>1072.9</ele>
        <time>2019-09-03T11:28:43Z</time>
      </trkpt>
      <trkpt lat="44.42514" lon="6.14295">
        <ele>1072.3</ele>
        <time>2019-09-03T11:28:44Z</time>
      </trkpt>
      <trkpt lat="44.42512" lon="6.14297">
        <ele>1071.8</ele>
        <time>2019-09-03T11:28:45Z</time>
      </trkpt>
      <trkpt lat="44.4251" lon="6.14298">
        <ele>1071.6</ele>
        <time>2019-09-03T11:28:46Z</time>
      </trkpt>
      <trkpt lat="44.42508" lon="6.14299">
        <ele>1071.4</ele>
        <time>2019-09-03T11:28:47Z</time>
      </trkpt>
      <trkpt lat="44.42477" lon="6.14314">
        <ele>1067.2</ele>
        <time>2019-09-03T11:28:59Z</time>
      </trkpt>
      <trkpt lat="44.42458" lon="6.14325">
        <ele>1064.6</ele>
        <time>2019-09-03T11:29:05Z</time>
      </trkpt>
      <trkpt lat="44.42443" lon="6.14336">
        <ele>1062.8</ele>
        <time>2019-09-03T11:29:10Z</time>
      </trkpt>
      <trkpt lat="44.42431" lon="6.14345">
        <ele>1060.6</ele>
        <time>2019-09-03T11:29:14Z</time>
      </trkpt>
      <trkpt lat="44.42423" lon="6.14353">
        <ele>1058.9</ele>
        <time>2019-09-03T11:29:17Z</time>
      </trkpt>
      <trkpt lat="44.42398" lon="6.14372">
        <ele>1052.7</ele>
        <time>2019-09-03T11:29:27Z</time>
      </trkpt>
      <trkpt lat="44.42392" lon="6.14376">
        <ele>1051.3</ele>
        <time>2019-09-03T11:29:30Z</time>
      </trkpt>
      <trkpt lat="44.42375" lon="6.14383">
        <ele>1048.5</ele>
        <time>2019-09-03T11:29:36Z</time>
      </trkpt>
      <trkpt lat="44.42368" lon="6.14393">
        <ele>1045.9</ele>
        <time>2019-09-03T11:29:41Z</time>
      </trkpt>
      <trkpt lat="44.42368" lon="6.14396">
        <ele>1045.4</ele>
        <time>2019-09-03T11:29:42Z</time>
      </trkpt>
      <trkpt lat="44.4237" lon="6.14398">
        <ele>1045</ele>
        <time>2019-09-03T11:29:43Z</time>
      </trkpt>
      <trkpt lat="44.42371" lon="6.144">
        <ele>1044.6</ele>
        <time>2019-09-03T11:29:44Z</time>
      </trkpt>
      <trkpt lat="44.42373" lon="6.14402">
        <ele>1044.4</ele>
        <time>2019-09-03T11:29:45Z</time>
      </trkpt>
      <trkpt lat="44.42375" lon="6.14403">
        <ele>1044.4</ele>
        <time>2019-09-03T11:29:46Z</time>
      </trkpt>
      <trkpt lat="44.42377" lon="6.14403">
        <ele>1044.4</ele>
        <time>2019-09-03T11:29:47Z</time>
      </trkpt>
      <trkpt lat="44.42379" lon="6.14403">
        <ele>1044.5</ele>
        <time>2019-09-03T11:29:48Z</time>
      </trkpt>
      <trkpt lat="44.42382" lon="6.14403">
        <ele>1044.7</ele>
        <time>2019-09-03T11:29:49Z</time>
      </trkpt>
      <trkpt lat="44.4241" lon="6.1441">
        <ele>1044.4</ele>
        <time>2019-09-03T11:30:00Z</time>
      </trkpt>
      <trkpt lat="44.42433" lon="6.1442">
        <ele>1041.1</ele>
        <time>2019-09-03T11:30:09Z</time>
      </trkpt>
      <trkpt lat="44.42451" lon="6.14432">
        <ele>1036.6</ele>
        <time>2019-09-03T11:30:19Z</time>
      </trkpt>
      <trkpt lat="44.42451" lon="6.14435">
        <ele>1035.9</ele>
        <time>2019-09-03T11:30:20Z</time>
      </trkpt>
      <trkpt lat="44.4245" lon="6.14437">
        <ele>1035.3</ele>
        <time>2019-09-03T11:30:21Z</time>
      </trkpt>
      <trkpt lat="44.42449" lon="6.14439">
        <ele>1034.8</ele>
        <time>2019-09-03T11:30:22Z</time>
      </trkpt>
      <trkpt lat="44.42448" lon="6.1444">
        <ele>1034.5</ele>
        <time>2019-09-03T11:30:23Z</time>
      </trkpt>
      <trkpt lat="44.42446" lon="6.14441">
        <ele>1034.3</ele>
        <time>2019-09-03T11:30:24Z</time>
      </trkpt>
      <trkpt lat="44.42444" lon="6.14442">
        <ele>1034.3</ele>
        <time>2019-09-03T11:30:25Z</time>
      </trkpt>
      <trkpt lat="44.42441" lon="6.14442">
        <ele>1034.4</ele>
        <time>2019-09-03T11:30:26Z</time>
      </trkpt>
      <trkpt lat="44.42439" lon="6.14441">
        <ele>1034.5</ele>
        <time>2019-09-03T11:30:27Z</time>
      </trkpt>
      <trkpt lat="44.42423" lon="6.14447">
        <ele>1033.6</ele>
        <time>2019-09-03T11:30:35Z</time>
      </trkpt>
      <trkpt lat="44.42423" lon="6.1445">
        <ele>1032.8</ele>
        <time>2019-09-03T11:30:36Z</time>
      </trkpt>
      <trkpt lat="44.42423" lon="6.14452">
        <ele>1032</ele>
        <time>2019-09-03T11:30:37Z</time>
      </trkpt>
      <trkpt lat="44.42424" lon="6.14455">
        <ele>1031.3</ele>
        <time>2019-09-03T11:30:38Z</time>
      </trkpt>
      <trkpt lat="44.42425" lon="6.14457">
        <ele>1030.6</ele>
        <time>2019-09-03T11:30:39Z</time>
      </trkpt>
      <trkpt lat="44.42427" lon="6.14459">
        <ele>1030.1</ele>
        <time>2019-09-03T11:30:40Z</time>
      </trkpt>
      <trkpt lat="44.42429" lon="6.1446">
        <ele>1029.6</ele>
        <time>2019-09-03T11:30:41Z</time>
      </trkpt>
      <trkpt lat="44.42432" lon="6.14461">
        <ele>1029.2</ele>
        <time>2019-09-03T11:30:42Z</time>
      </trkpt>
      <trkpt lat="44.42434" lon="6.14461">
        <ele>1029</ele>
        <time>2019-09-03T11:30:43Z</time>
      </trkpt>
      <trkpt lat="44.42437" lon="6.14462">
        <ele>1028.8</ele>
        <time>2019-09-03T11:30:44Z</time>
      </trkpt>
      <trkpt lat="44.42464" lon="6.14464">
        <ele>1027.2</ele>
        <time>2019-09-03T11:30:54Z</time>
      </trkpt>
      <trkpt lat="44.42467" lon="6.14464">
        <ele>1027.3</ele>
        <time>2019-09-03T11:30:55Z</time>
      </trkpt>
      <trkpt lat="44.42486" lon="6.1446">
        <ele>1027.7</ele>
        <time>2019-09-03T11:31:03Z</time>
      </trkpt>
      <trkpt lat="44.425" lon="6.14467">
        <ele>1025.3</ele>
        <time>2019-09-03T11:31:12Z</time>
      </trkpt>
      <trkpt lat="44.425" lon="6.14469">
        <ele>1024.7</ele>
        <time>2019-09-03T11:31:13Z</time>
      </trkpt>
      <trkpt lat="44.42499" lon="6.14472">
        <ele>1024.1</ele>
        <time>2019-09-03T11:31:14Z</time>
      </trkpt>
      <trkpt lat="44.42498" lon="6.14475">
        <ele>1023.4</ele>
        <time>2019-09-03T11:31:15Z</time>
      </trkpt>
      <trkpt lat="44.42496" lon="6.14477">
        <ele>1023</ele>
        <time>2019-09-03T11:31:16Z</time>
      </trkpt>
      <trkpt lat="44.42493" lon="6.14478">
        <ele>1022.6</ele>
        <time>2019-09-03T11:31:17Z</time>
      </trkpt>
      <trkpt lat="44.42465" lon="6.14505">
        <ele>1016.1</ele>
        <time>2019-09-03T11:31:30Z</time>
      </trkpt>
      <trkpt lat="44.42451" lon="6.14518">
        <ele>1012.1</ele>
        <time>2019-09-03T11:31:37Z</time>
      </trkpt>
      <trkpt lat="44.4243" lon="6.14527">
        <ele>1009.1</ele>
        <time>2019-09-03T11:31:46Z</time>
      </trkpt>
      <trkpt lat="44.42409" lon="6.1453">
        <ele>1006.7</ele>
        <time>2019-09-03T11:31:55Z</time>
      </trkpt>
      <trkpt lat="44.42403" lon="6.14532">
        <ele>1005.1</ele>
        <time>2019-09-03T11:31:58Z</time>
      </trkpt>
      <trkpt lat="44.424" lon="6.14536">
        <ele>1003.6</ele>
        <time>2019-09-03T11:32:00Z</time>
      </trkpt>
      <trkpt lat="44.424" lon="6.14538">
        <ele>1002.7</ele>
        <time>2019-09-03T11:32:01Z</time>
      </trkpt>
      <trkpt lat="44.424" lon="6.14541">
        <ele>1001.8</ele>
        <time>2019-09-03T11:32:02Z</time>
      </trkpt>
      <trkpt lat="44.42402" lon="6.14543">
        <ele>1001.2</ele>
        <time>2019-09-03T11:32:03Z</time>
      </trkpt>
      <trkpt lat="44.42403" lon="6.14545">
        <ele>1001</ele>
        <time>2019-09-03T11:32:04Z</time>
      </trkpt>
      <trkpt lat="44.42405" lon="6.14546">
        <ele>1001</ele>
        <time>2019-09-03T11:32:05Z</time>
      </trkpt>
      <trkpt lat="44.42407" lon="6.14547">
        <ele>1000.9</ele>
        <time>2019-09-03T11:32:06Z</time>
      </trkpt>
      <trkpt lat="44.4241" lon="6.14548">
        <ele>1000.9</ele>
        <time>2019-09-03T11:32:07Z</time>
      </trkpt>
      <trkpt lat="44.42412" lon="6.14548">
        <ele>1001</ele>
        <time>2019-09-03T11:32:08Z</time>
      </trkpt>
      <trkpt lat="44.42414" lon="6.14549">
        <ele>1001.1</ele>
        <time>2019-09-03T11:32:09Z</time>
      </trkpt>
      <trkpt lat="44.42416" lon="6.14549">
        <ele>1001.3</ele>
        <time>2019-09-03T11:32:10Z</time>
      </trkpt>
      <trkpt lat="44.42418" lon="6.1455">
        <ele>1001.3</ele>
        <time>2019-09-03T11:32:11Z</time>
      </trkpt>
      <trkpt lat="44.42435" lon="6.14562">
        <ele>997.7</ele>
        <time>2019-09-03T11:32:22Z</time>
      </trkpt>
      <trkpt lat="44.42435" lon="6.14562">
        <ele>997.8</ele>
        <time>2019-09-03T11:32:25Z</time>
      </trkpt>
      <trkpt lat="44.4243" lon="6.14571">
        <ele>994.7</ele>
        <time>2019-09-03T11:33:12Z</time>
      </trkpt>
      <trkpt lat="44.42399" lon="6.14567">
        <ele>993</ele>
        <time>2019-09-03T11:33:26Z</time>
      </trkpt>
      <trkpt lat="44.42397" lon="6.14566">
        <ele>992.8</ele>
        <time>2019-09-03T11:33:27Z</time>
      </trkpt>
      <trkpt lat="44.42381" lon="6.14572">
        <ele>988.5</ele>
        <time>2019-09-03T11:33:35Z</time>
      </trkpt>
      <trkpt lat="44.4238" lon="6.14578">
        <ele>986.2</ele>
        <time>2019-09-03T11:33:37Z</time>
      </trkpt>
      <trkpt lat="44.42381" lon="6.14581">
        <ele>985.4</ele>
        <time>2019-09-03T11:33:38Z</time>
      </trkpt>
      <trkpt lat="44.42383" lon="6.14582">
        <ele>985.1</ele>
        <time>2019-09-03T11:33:39Z</time>
      </trkpt>
      <trkpt lat="44.42385" lon="6.14584">
        <ele>985</ele>
        <time>2019-09-03T11:33:40Z</time>
      </trkpt>
      <trkpt lat="44.42388" lon="6.14585">
        <ele>985.1</ele>
        <time>2019-09-03T11:33:41Z</time>
      </trkpt>
      <trkpt lat="44.4239" lon="6.14585">
        <ele>985.3</ele>
        <time>2019-09-03T11:33:42Z</time>
      </trkpt>
      <trkpt lat="44.42406" lon="6.14595">
        <ele>984.7</ele>
        <time>2019-09-03T11:33:50Z</time>
      </trkpt>
      <trkpt lat="44.42406" lon="6.14598">
        <ele>984.1</ele>
        <time>2019-09-03T11:33:51Z</time>
      </trkpt>
      <trkpt lat="44.42406" lon="6.146">
        <ele>983.3</ele>
        <time>2019-09-03T11:33:52Z</time>
      </trkpt>
      <trkpt lat="44.42406" lon="6.14602">
        <ele>982.6</ele>
        <time>2019-09-03T11:33:53Z</time>
      </trkpt>
      <trkpt lat="44.42405" lon="6.14604">
        <ele>982</ele>
        <time>2019-09-03T11:33:54Z</time>
      </trkpt>
      <trkpt lat="44.42403" lon="6.14605">
        <ele>981.3</ele>
        <time>2019-09-03T11:33:55Z</time>
      </trkpt>
      <trkpt lat="44.42401" lon="6.14606">
        <ele>980.8</ele>
        <time>2019-09-03T11:33:56Z</time>
      </trkpt>
      <trkpt lat="44.42399" lon="6.14606">
        <ele>980.6</ele>
        <time>2019-09-03T11:33:57Z</time>
      </trkpt>
      <trkpt lat="44.42397" lon="6.14605">
        <ele>980.6</ele>
        <time>2019-09-03T11:33:58Z</time>
      </trkpt>
      <trkpt lat="44.42373" lon="6.14599">
        <ele>978.8</ele>
        <time>2019-09-03T11:34:09Z</time>
      </trkpt>
      <trkpt lat="44.4235" lon="6.14582">
        <ele>980</ele>
        <time>2019-09-03T11:34:20Z</time>
      </trkpt>
      <trkpt lat="44.42348" lon="6.14583">
        <ele>979.4</ele>
        <time>2019-09-03T11:34:21Z</time>
      </trkpt>
      <trkpt lat="44.42347" lon="6.14585">
        <ele>978.6</ele>
        <time>2019-09-03T11:34:22Z</time>
      </trkpt>
      <trkpt lat="44.42347" lon="6.14588">
        <ele>977.8</ele>
        <time>2019-09-03T11:34:23Z</time>
      </trkpt>
      <trkpt lat="44.42347" lon="6.14591">
        <ele>977.1</ele>
        <time>2019-09-03T11:34:24Z</time>
      </trkpt>
      <trkpt lat="44.42348" lon="6.14594">
        <ele>976.5</ele>
        <time>2019-09-03T11:34:25Z</time>
      </trkpt>
      <trkpt lat="44.42349" lon="6.14596">
        <ele>976</ele>
        <time>2019-09-03T11:34:26Z</time>
      </trkpt>
      <trkpt lat="44.4235" lon="6.14599">
        <ele>975.5</ele>
        <time>2019-09-03T11:34:27Z</time>
      </trkpt>
      <trkpt lat="44.42352" lon="6.14601">
        <ele>975.1</ele>
        <time>2019-09-03T11:34:28Z</time>
      </trkpt>
      <trkpt lat="44.42371" lon="6.14625">
        <ele>971.3</ele>
        <time>2019-09-03T11:34:39Z</time>
      </trkpt>
      <trkpt lat="44.42372" lon="6.14627">
        <ele>970.6</ele>
        <time>2019-09-03T11:34:40Z</time>
      </trkpt>
      <trkpt lat="44.42371" lon="6.1463">
        <ele>970</ele>
        <time>2019-09-03T11:34:41Z</time>
      </trkpt>
      <trkpt lat="44.4237" lon="6.14631">
        <ele>969.3</ele>
        <time>2019-09-03T11:34:42Z</time>
      </trkpt>
      <trkpt lat="44.42368" lon="6.14632">
        <ele>968.8</ele>
        <time>2019-09-03T11:34:43Z</time>
      </trkpt>
      <trkpt lat="44.42366" lon="6.14633">
        <ele>968.5</ele>
        <time>2019-09-03T11:34:44Z</time>
      </trkpt>
      <trkpt lat="44.42364" lon="6.14632">
        <ele>968.4</ele>
        <time>2019-09-03T11:34:45Z</time>
      </trkpt>
      <trkpt lat="44.42362" lon="6.14631">
        <ele>968.4</ele>
        <time>2019-09-03T11:34:46Z</time>
      </trkpt>
      <trkpt lat="44.4236" lon="6.1463">
        <ele>968.5</ele>
        <time>2019-09-03T11:34:47Z</time>
      </trkpt>
      <trkpt lat="44.42342" lon="6.14622">
        <ele>968.4</ele>
        <time>2019-09-03T11:34:54Z</time>
      </trkpt>
      <trkpt lat="44.42311" lon="6.14601">
        <ele>966.8</ele>
        <time>2019-09-03T11:35:07Z</time>
      </trkpt>
      <trkpt lat="44.42295" lon="6.1459">
        <ele>964.8</ele>
        <time>2019-09-03T11:35:15Z</time>
      </trkpt>
      <trkpt lat="44.42294" lon="6.14591">
        <ele>964.1</ele>
        <time>2019-09-03T11:35:16Z</time>
      </trkpt>
      <trkpt lat="44.42293" lon="6.14592">
        <ele>963.5</ele>
        <time>2019-09-03T11:35:17Z</time>
      </trkpt>
      <trkpt lat="44.42292" lon="6.14594">
        <ele>963</ele>
        <time>2019-09-03T11:35:18Z</time>
      </trkpt>
      <trkpt lat="44.42292" lon="6.14597">
        <ele>962.3</ele>
        <time>2019-09-03T11:35:19Z</time>
      </trkpt>
      <trkpt lat="44.42292" lon="6.146">
        <ele>961.9</ele>
        <time>2019-09-03T11:35:20Z</time>
      </trkpt>
      <trkpt lat="44.42293" lon="6.14603">
        <ele>961.7</ele>
        <time>2019-09-03T11:35:21Z</time>
      </trkpt>
      <trkpt lat="44.42295" lon="6.14605">
        <ele>961.5</ele>
        <time>2019-09-03T11:35:22Z</time>
      </trkpt>
      <trkpt lat="44.42296" lon="6.14608">
        <ele>961.4</ele>
        <time>2019-09-03T11:35:23Z</time>
      </trkpt>
      <trkpt lat="44.42298" lon="6.1461">
        <ele>961.3</ele>
        <time>2019-09-03T11:35:29Z</time>
      </trkpt>
      <trkpt lat="44.4229" lon="6.14619">
        <ele>957.7</ele>
        <time>2019-09-03T11:36:56Z</time>
      </trkpt>
      <trkpt lat="44.42258" lon="6.14589">
        <ele>954.5</ele>
        <time>2019-09-03T11:37:10Z</time>
      </trkpt>
      <trkpt lat="44.42243" lon="6.14576">
        <ele>952.7</ele>
        <time>2019-09-03T11:37:18Z</time>
      </trkpt>
      <trkpt lat="44.42242" lon="6.14575">
        <ele>952.6</ele>
        <time>2019-09-03T11:37:23Z</time>
      </trkpt>
      <trkpt lat="44.42235" lon="6.1457">
        <ele>951.8</ele>
        <time>2019-09-03T11:37:33Z</time>
      </trkpt>
      <trkpt lat="44.42232" lon="6.14568">
        <ele>951.4</ele>
        <time>2019-09-03T11:37:34Z</time>
      </trkpt>
      <trkpt lat="44.42212" lon="6.14533">
        <ele>951.1</ele>
        <time>2019-09-03T11:37:46Z</time>
      </trkpt>
      <trkpt lat="44.42197" lon="6.14499">
        <ele>950.4</ele>
        <time>2019-09-03T11:37:57Z</time>
      </trkpt>
      <trkpt lat="44.4219" lon="6.14489">
        <ele>948.9</ele>
        <time>2019-09-03T11:38:01Z</time>
      </trkpt>
      <trkpt lat="44.42188" lon="6.14487">
        <ele>947.9</ele>
        <time>2019-09-03T11:38:02Z</time>
      </trkpt>
      <trkpt lat="44.42185" lon="6.14487">
        <ele>946.7</ele>
        <time>2019-09-03T11:38:03Z</time>
      </trkpt>
      <trkpt lat="44.42182" lon="6.14487">
        <ele>945.4</ele>
        <time>2019-09-03T11:38:04Z</time>
      </trkpt>
      <trkpt lat="44.4218" lon="6.14487">
        <ele>944.1</ele>
        <time>2019-09-03T11:38:05Z</time>
      </trkpt>
      <trkpt lat="44.42177" lon="6.14488">
        <ele>942.5</ele>
        <time>2019-09-03T11:38:06Z</time>
      </trkpt>
      <trkpt lat="44.42175" lon="6.14489">
        <ele>941.1</ele>
        <time>2019-09-03T11:38:07Z</time>
      </trkpt>
      <trkpt lat="44.42172" lon="6.14491">
        <ele>939.3</ele>
        <time>2019-09-03T11:38:08Z</time>
      </trkpt>
      <trkpt lat="44.4217" lon="6.14493">
        <ele>937.6</ele>
        <time>2019-09-03T11:38:09Z</time>
      </trkpt>
      <trkpt lat="44.42167" lon="6.14495">
        <ele>936.1</ele>
        <time>2019-09-03T11:38:10Z</time>
      </trkpt>
      <trkpt lat="44.42165" lon="6.14497">
        <ele>935.1</ele>
        <time>2019-09-03T11:38:11Z</time>
      </trkpt>
      <trkpt lat="44.42162" lon="6.14499">
        <ele>934.2</ele>
        <time>2019-09-03T11:38:12Z</time>
      </trkpt>
      <trkpt lat="44.42161" lon="6.14501">
        <ele>933.5</ele>
        <time>2019-09-03T11:38:13Z</time>
      </trkpt>
      <trkpt lat="44.42159" lon="6.14504">
        <ele>932.9</ele>
        <time>2019-09-03T11:38:14Z</time>
      </trkpt>
      <trkpt lat="44.42149" lon="6.14524">
        <ele>929.3</ele>
        <time>2019-09-03T11:38:20Z</time>
      </trkpt>
      <trkpt lat="44.42138" lon="6.1455">
        <ele>925.3</ele>
        <time>2019-09-03T11:38:27Z</time>
      </trkpt>
      <trkpt lat="44.42133" lon="6.14558">
        <ele>923.8</ele>
        <time>2019-09-03T11:38:34Z</time>
      </trkpt>
      <trkpt lat="44.42133" lon="6.14558">
        <ele>923.8</ele>
        <time>2019-09-03T11:38:35Z</time>
      </trkpt>
      <trkpt lat="44.42129" lon="6.14564">
        <ele>922.6</ele>
        <time>2019-09-03T11:38:47Z</time>
      </trkpt>
      <trkpt lat="44.42128" lon="6.14568">
        <ele>922.1</ele>
        <time>2019-09-03T11:38:48Z</time>
      </trkpt>
      <trkpt lat="44.42128" lon="6.14573">
        <ele>921.7</ele>
        <time>2019-09-03T11:38:49Z</time>
      </trkpt>
      <trkpt lat="44.42127" lon="6.14578">
        <ele>921.2</ele>
        <time>2019-09-03T11:38:50Z</time>
      </trkpt>
      <trkpt lat="44.42126" lon="6.14584">
        <ele>920.7</ele>
        <time>2019-09-03T11:38:51Z</time>
      </trkpt>
      <trkpt lat="44.42125" lon="6.1459">
        <ele>920.4</ele>
        <time>2019-09-03T11:38:52Z</time>
      </trkpt>
      <trkpt lat="44.42124" lon="6.14596">
        <ele>920.1</ele>
        <time>2019-09-03T11:38:53Z</time>
      </trkpt>
      <trkpt lat="44.42094" lon="6.14707">
        <ele>913.6</ele>
        <time>2019-09-03T11:39:07Z</time>
      </trkpt>
      <trkpt lat="44.42083" lon="6.14757">
        <ele>910.5</ele>
        <time>2019-09-03T11:39:13Z</time>
      </trkpt>
      <trkpt lat="44.42084" lon="6.14765">
        <ele>910</ele>
        <time>2019-09-03T11:39:14Z</time>
      </trkpt>
      <trkpt lat="44.42085" lon="6.14772">
        <ele>909.6</ele>
        <time>2019-09-03T11:39:15Z</time>
      </trkpt>
      <trkpt lat="44.42088" lon="6.14779">
        <ele>909.5</ele>
        <time>2019-09-03T11:39:16Z</time>
      </trkpt>
      <trkpt lat="44.42092" lon="6.14784">
        <ele>909.6</ele>
        <time>2019-09-03T11:39:17Z</time>
      </trkpt>
      <trkpt lat="44.42098" lon="6.14787">
        <ele>909.9</ele>
        <time>2019-09-03T11:39:18Z</time>
      </trkpt>
      <trkpt lat="44.42103" lon="6.14789">
        <ele>910.4</ele>
        <time>2019-09-03T11:39:19Z</time>
      </trkpt>
      <trkpt lat="44.4211" lon="6.1479">
        <ele>911</ele>
        <time>2019-09-03T11:39:20Z</time>
      </trkpt>
      <trkpt lat="44.42116" lon="6.14789">
        <ele>911.8</ele>
        <time>2019-09-03T11:39:21Z</time>
      </trkpt>
      <trkpt lat="44.42123" lon="6.14788">
        <ele>912.6</ele>
        <time>2019-09-03T11:39:22Z</time>
      </trkpt>
      <trkpt lat="44.4213" lon="6.14789">
        <ele>913.4</ele>
        <time>2019-09-03T11:39:23Z</time>
      </trkpt>
      <trkpt lat="44.42137" lon="6.14791">
        <ele>913.9</ele>
        <time>2019-09-03T11:39:24Z</time>
      </trkpt>
      <trkpt lat="44.42144" lon="6.14796">
        <ele>914</ele>
        <time>2019-09-03T11:39:25Z</time>
      </trkpt>
      <trkpt lat="44.4215" lon="6.14803">
        <ele>913.7</ele>
        <time>2019-09-03T11:39:26Z</time>
      </trkpt>
      <trkpt lat="44.42155" lon="6.14812">
        <ele>913</ele>
        <time>2019-09-03T11:39:27Z</time>
      </trkpt>
      <trkpt lat="44.42157" lon="6.14821">
        <ele>911.9</ele>
        <time>2019-09-03T11:39:28Z</time>
      </trkpt>
      <trkpt lat="44.42158" lon="6.14831">
        <ele>910.7</ele>
        <time>2019-09-03T11:39:29Z</time>
      </trkpt>
      <trkpt lat="44.42159" lon="6.1484">
        <ele>910.9</ele>
        <time>2019-09-03T11:39:30Z</time>
      </trkpt>
      <trkpt lat="44.42162" lon="6.14886">
        <ele>914.3</ele>
        <time>2019-09-03T11:39:35Z</time>
      </trkpt>
      <trkpt lat="44.42161" lon="6.14895">
        <ele>914.8</ele>
        <time>2019-09-03T11:39:36Z</time>
      </trkpt>
      <trkpt lat="44.42159" lon="6.14904">
        <ele>915.2</ele>
        <time>2019-09-03T11:39:37Z</time>
      </trkpt>
      <trkpt lat="44.42156" lon="6.1491">
        <ele>915.3</ele>
        <time>2019-09-03T11:39:38Z</time>
      </trkpt>
      <trkpt lat="44.42153" lon="6.14916">
        <ele>915.1</ele>
        <time>2019-09-03T11:39:39Z</time>
      </trkpt>
      <trkpt lat="44.42148" lon="6.14921">
        <ele>914.9</ele>
        <time>2019-09-03T11:39:40Z</time>
      </trkpt>
      <trkpt lat="44.42143" lon="6.14924">
        <ele>914.7</ele>
        <time>2019-09-03T11:39:41Z</time>
      </trkpt>
      <trkpt lat="44.42138" lon="6.14927">
        <ele>914.4</ele>
        <time>2019-09-03T11:39:42Z</time>
      </trkpt>
      <trkpt lat="44.42133" lon="6.14929">
        <ele>913.9</ele>
        <time>2019-09-03T11:39:43Z</time>
      </trkpt>
      <trkpt lat="44.42128" lon="6.14931">
        <ele>913.5</ele>
        <time>2019-09-03T11:39:44Z</time>
      </trkpt>
      <trkpt lat="44.42073" lon="6.1495">
        <ele>908.9</ele>
        <time>2019-09-03T11:39:57Z</time>
      </trkpt>
      <trkpt lat="44.42042" lon="6.14982">
        <ele>910</ele>
        <time>2019-09-03T11:40:07Z</time>
      </trkpt>
      <trkpt lat="44.42003" lon="6.15092">
        <ele>908.5</ele>
        <time>2019-09-03T11:40:23Z</time>
      </trkpt>
      <trkpt lat="44.41963" lon="6.15204">
        <ele>904</ele>
        <time>2019-09-03T11:40:35Z</time>
      </trkpt>
      <trkpt lat="44.41939" lon="6.15315">
        <ele>899</ele>
        <time>2019-09-03T11:40:44Z</time>
      </trkpt>
      <trkpt lat="44.41937" lon="6.15329">
        <ele>898.6</ele>
        <time>2019-09-03T11:40:45Z</time>
      </trkpt>
      <trkpt lat="44.41919" lon="6.15446">
        <ele>891.5</ele>
        <time>2019-09-03T11:40:53Z</time>
      </trkpt>
      <trkpt lat="44.41912" lon="6.15493">
        <ele>890.3</ele>
        <time>2019-09-03T11:40:56Z</time>
      </trkpt>
      <trkpt lat="44.41902" lon="6.15568">
        <ele>887.7</ele>
        <time>2019-09-03T11:41:01Z</time>
      </trkpt>
      <trkpt lat="44.41897" lon="6.15633">
        <ele>885.7</ele>
        <time>2019-09-03T11:41:06Z</time>
      </trkpt>
      <trkpt lat="44.41899" lon="6.1565">
        <ele>885.5</ele>
        <time>2019-09-03T11:41:08Z</time>
      </trkpt>
      <trkpt lat="44.41905" lon="6.1575">
        <ele>881.9</ele>
        <time>2019-09-03T11:41:19Z</time>
      </trkpt>
      <trkpt lat="44.41902" lon="6.15792">
        <ele>879.7</ele>
        <time>2019-09-03T11:41:24Z</time>
      </trkpt>
      <trkpt lat="44.41895" lon="6.15896">
        <ele>876.9</ele>
        <time>2019-09-03T11:41:36Z</time>
      </trkpt>
      <trkpt lat="44.4188" lon="6.15991">
        <ele>875.1</ele>
        <time>2019-09-03T11:41:49Z</time>
      </trkpt>
      <trkpt lat="44.41866" lon="6.16054">
        <ele>873.8</ele>
        <time>2019-09-03T11:42:01Z</time>
      </trkpt>
      <trkpt lat="44.41859" lon="6.16079">
        <ele>872.9</ele>
        <time>2019-09-03T11:42:09Z</time>
      </trkpt>
      <trkpt lat="44.41858" lon="6.16091">
        <ele>872.5</ele>
        <time>2019-09-03T11:42:12Z</time>
      </trkpt>
      <trkpt lat="44.41857" lon="6.16103">
        <ele>872</ele>
        <time>2019-09-03T11:42:14Z</time>
      </trkpt>
      <trkpt lat="44.41857" lon="6.16108">
        <ele>871.7</ele>
        <time>2019-09-03T11:42:15Z</time>
      </trkpt>
      <trkpt lat="44.41858" lon="6.16122">
        <ele>871.2</ele>
        <time>2019-09-03T11:42:22Z</time>
      </trkpt>
      <trkpt lat="44.41853" lon="6.16131">
        <ele>870.2</ele>
        <time>2019-09-03T11:43:15Z</time>
      </trkpt>
      <trkpt lat="44.4184" lon="6.16161">
        <ele>867.2</ele>
        <time>2019-09-03T11:43:25Z</time>
      </trkpt>
      <trkpt lat="44.41832" lon="6.16185">
        <ele>865.2</ele>
        <time>2019-09-03T11:43:32Z</time>
      </trkpt>
      <trkpt lat="44.41831" lon="6.16188">
        <ele>864.9</ele>
        <time>2019-09-03T11:43:33Z</time>
      </trkpt>
      <trkpt lat="44.41829" lon="6.16193">
        <ele>864.5</ele>
        <time>2019-09-03T11:43:34Z</time>
      </trkpt>
      <trkpt lat="44.41827" lon="6.16199">
        <ele>864</ele>
        <time>2019-09-03T11:43:35Z</time>
      </trkpt>
      <trkpt lat="44.41825" lon="6.16205">
        <ele>863.6</ele>
        <time>2019-09-03T11:43:36Z</time>
      </trkpt>
      <trkpt lat="44.41823" lon="6.16211">
        <ele>863.1</ele>
        <time>2019-09-03T11:43:37Z</time>
      </trkpt>
      <trkpt lat="44.41821" lon="6.16217">
        <ele>862.6</ele>
        <time>2019-09-03T11:43:38Z</time>
      </trkpt>
      <trkpt lat="44.41819" lon="6.16222">
        <ele>862.2</ele>
        <time>2019-09-03T11:43:39Z</time>
      </trkpt>
      <trkpt lat="44.41809" lon="6.16252">
        <ele>860</ele>
        <time>2019-09-03T11:43:46Z</time>
      </trkpt>
      <trkpt lat="44.41781" lon="6.16288">
        <ele>855</ele>
        <time>2019-09-03T11:43:58Z</time>
      </trkpt>
      <trkpt lat="44.41779" lon="6.16334">
        <ele>852.7</ele>
        <time>2019-09-03T11:44:08Z</time>
      </trkpt>
      <trkpt lat="44.41772" lon="6.16367">
        <ele>849.7</ele>
        <time>2019-09-03T11:44:16Z</time>
      </trkpt>
      <trkpt lat="44.41744" lon="6.16396">
        <ele>844.3</ele>
        <time>2019-09-03T11:44:27Z</time>
      </trkpt>
      <trkpt lat="44.41718" lon="6.16423">
        <ele>842.4</ele>
        <time>2019-09-03T11:44:37Z</time>
      </trkpt>
      <trkpt lat="44.41715" lon="6.16434">
        <ele>842</ele>
        <time>2019-09-03T11:44:40Z</time>
      </trkpt>
      <trkpt lat="44.41712" lon="6.16471">
        <ele>840.8</ele>
        <time>2019-09-03T11:44:49Z</time>
      </trkpt>
      <trkpt lat="44.41711" lon="6.1649">
        <ele>840.2</ele>
        <time>2019-09-03T11:45:00Z</time>
      </trkpt>
      <trkpt lat="44.41717" lon="6.16493">
        <ele>839.8</ele>
        <time>2019-09-03T11:45:10Z</time>
      </trkpt>
      <trkpt lat="44.41719" lon="6.16495">
        <ele>839.7</ele>
        <time>2019-09-03T11:45:11Z</time>
      </trkpt>
      <trkpt lat="44.41722" lon="6.16496">
        <ele>839.5</ele>
        <time>2019-09-03T11:45:12Z</time>
      </trkpt>
      <trkpt lat="44.41725" lon="6.16497">
        <ele>839.3</ele>
        <time>2019-09-03T11:45:13Z</time>
      </trkpt>
      <trkpt lat="44.41767" lon="6.16536">
        <ele>837.8</ele>
        <time>2019-09-03T11:45:26Z</time>
      </trkpt>
      <trkpt lat="44.41806" lon="6.16599">
        <ele>835.9</ele>
        <time>2019-09-03T11:45:41Z</time>
      </trkpt>
      <trkpt lat="44.41812" lon="6.1663">
        <ele>834.8</ele>
        <time>2019-09-03T11:45:47Z</time>
      </trkpt>
      <trkpt lat="44.41814" lon="6.16635">
        <ele>834.6</ele>
        <time>2019-09-03T11:45:48Z</time>
      </trkpt>
      <trkpt lat="44.41816" lon="6.1664">
        <ele>834.3</ele>
        <time>2019-09-03T11:45:49Z</time>
      </trkpt>
      <trkpt lat="44.41818" lon="6.16644">
        <ele>834.1</ele>
        <time>2019-09-03T11:45:50Z</time>
      </trkpt>
      <trkpt lat="44.4182" lon="6.16649">
        <ele>833.8</ele>
        <time>2019-09-03T11:45:51Z</time>
      </trkpt>
      <trkpt lat="44.41823" lon="6.16653">
        <ele>833.4</ele>
        <time>2019-09-03T11:45:52Z</time>
      </trkpt>
      <trkpt lat="44.41826" lon="6.16656">
        <ele>833</ele>
        <time>2019-09-03T11:45:53Z</time>
      </trkpt>
      <trkpt lat="44.41829" lon="6.16661">
        <ele>832.6</ele>
        <time>2019-09-03T11:45:54Z</time>
      </trkpt>
      <trkpt lat="44.41832" lon="6.16665">
        <ele>832.2</ele>
        <time>2019-09-03T11:45:55Z</time>
      </trkpt>
      <trkpt lat="44.41834" lon="6.16669">
        <ele>832.1</ele>
        <time>2019-09-03T11:45:56Z</time>
      </trkpt>
      <trkpt lat="44.4184" lon="6.16723">
        <ele>830.8</ele>
        <time>2019-09-03T11:46:07Z</time>
      </trkpt>
      <trkpt lat="44.41842" lon="6.16775">
        <ele>828.6</ele>
        <time>2019-09-03T11:46:18Z</time>
      </trkpt>
      <trkpt lat="44.41839" lon="6.16792">
        <ele>827.5</ele>
        <time>2019-09-03T11:46:21Z</time>
      </trkpt>
      <trkpt lat="44.41834" lon="6.16834">
        <ele>825</ele>
        <time>2019-09-03T11:46:29Z</time>
      </trkpt>
      <trkpt lat="44.41832" lon="6.16837">
        <ele>824.9</ele>
        <time>2019-09-03T11:46:30Z</time>
      </trkpt>
      <trkpt lat="44.4183" lon="6.1684">
        <ele>825.1</ele>
        <time>2019-09-03T11:46:31Z</time>
      </trkpt>
      <trkpt lat="44.41812" lon="6.16872">
        <ele>825.4</ele>
        <time>2019-09-03T11:46:42Z</time>
      </trkpt>
      <trkpt lat="44.41802" lon="6.169">
        <ele>825.3</ele>
        <time>2019-09-03T11:46:49Z</time>
      </trkpt>
      <trkpt lat="44.41798" lon="6.16901">
        <ele>825.5</ele>
        <time>2019-09-03T11:46:50Z</time>
      </trkpt>
      <trkpt lat="44.41795" lon="6.169">
        <ele>825.8</ele>
        <time>2019-09-03T11:46:51Z</time>
      </trkpt>
      <trkpt lat="44.41791" lon="6.16899">
        <ele>826.2</ele>
        <time>2019-09-03T11:46:52Z</time>
      </trkpt>
      <trkpt lat="44.41788" lon="6.16897">
        <ele>826.5</ele>
        <time>2019-09-03T11:46:53Z</time>
      </trkpt>
      <trkpt lat="44.4175" lon="6.16849">
        <ele>831.4</ele>
        <time>2019-09-03T11:47:08Z</time>
      </trkpt>
      <trkpt lat="44.41711" lon="6.16824">
        <ele>836.1</ele>
        <time>2019-09-03T11:47:21Z</time>
      </trkpt>
      <trkpt lat="44.41684" lon="6.16848">
        <ele>839.7</ele>
        <time>2019-09-03T11:47:33Z</time>
      </trkpt>
      <trkpt lat="44.41703" lon="6.16898">
        <ele>840.4</ele>
        <time>2019-09-03T11:47:46Z</time>
      </trkpt>
      <trkpt lat="44.4174" lon="6.16953">
        <ele>836.7</ele>
        <time>2019-09-03T11:48:03Z</time>
      </trkpt>
      <trkpt lat="44.41763" lon="6.17022">
        <ele>840.2</ele>
        <time>2019-09-03T11:48:21Z</time>
      </trkpt>
      <trkpt lat="44.41775" lon="6.17088">
        <ele>843</ele>
        <time>2019-09-03T11:48:37Z</time>
      </trkpt>
      <trkpt lat="44.41782" lon="6.17159">
        <ele>847.1</ele>
        <time>2019-09-03T11:48:54Z</time>
      </trkpt>
      <trkpt lat="44.41802" lon="6.17208">
        <ele>848.7</ele>
        <time>2019-09-03T11:49:08Z</time>
      </trkpt>
      <trkpt lat="44.4183" lon="6.1727">
        <ele>851.7</ele>
        <time>2019-09-03T11:49:26Z</time>
      </trkpt>
      <trkpt lat="44.41842" lon="6.17328">
        <ele>857.2</ele>
        <time>2019-09-03T11:49:41Z</time>
      </trkpt>
      <trkpt lat="44.41861" lon="6.17389">
        <ele>857</ele>
        <time>2019-09-03T11:49:58Z</time>
      </trkpt>
      <trkpt lat="44.41873" lon="6.17433">
        <ele>857.3</ele>
        <time>2019-09-03T11:50:10Z</time>
      </trkpt>
      <trkpt lat="44.41865" lon="6.17477">
        <ele>859.6</ele>
        <time>2019-09-03T11:50:23Z</time>
      </trkpt>
      <trkpt lat="44.41824" lon="6.1747">
        <ele>863.9</ele>
        <time>2019-09-03T11:50:37Z</time>
      </trkpt>
      <trkpt lat="44.41768" lon="6.17457">
        <ele>865.9</ele>
        <time>2019-09-03T11:50:57Z</time>
      </trkpt>
      <trkpt lat="44.41724" lon="6.17445">
        <ele>868.6</ele>
        <time>2019-09-03T11:51:13Z</time>
      </trkpt>
      <trkpt lat="44.41682" lon="6.17425">
        <ele>874.7</ele>
        <time>2019-09-03T11:51:29Z</time>
      </trkpt>
      <trkpt lat="44.41648" lon="6.17415">
        <ele>878.6</ele>
        <time>2019-09-03T11:51:42Z</time>
      </trkpt>
      <trkpt lat="44.416" lon="6.17399">
        <ele>883</ele>
        <time>2019-09-03T11:52:00Z</time>
      </trkpt>
      <trkpt lat="44.41542" lon="6.17381">
        <ele>882.7</ele>
        <time>2019-09-03T11:52:21Z</time>
      </trkpt>
      <trkpt lat="44.41501" lon="6.17326">
        <ele>888.3</ele>
        <time>2019-09-03T11:52:41Z</time>
      </trkpt>
      <trkpt lat="44.41464" lon="6.17258">
        <ele>891.6</ele>
        <time>2019-09-03T11:53:03Z</time>
      </trkpt>
      <trkpt lat="44.41427" lon="6.17193">
        <ele>891.4</ele>
        <time>2019-09-03T11:53:24Z</time>
      </trkpt>
      <trkpt lat="44.41406" lon="6.17128">
        <ele>895.2</ele>
        <time>2019-09-03T11:53:42Z</time>
      </trkpt>
      <trkpt lat="44.41376" lon="6.17065">
        <ele>897.4</ele>
        <time>2019-09-03T11:54:01Z</time>
      </trkpt>
      <trkpt lat="44.41347" lon="6.16997">
        <ele>902.1</ele>
        <time>2019-09-03T11:54:21Z</time>
      </trkpt>
      <trkpt lat="44.413" lon="6.16942">
        <ele>905</ele>
        <time>2019-09-03T11:54:42Z</time>
      </trkpt>
      <trkpt lat="44.4125" lon="6.1692">
        <ele>905.6</ele>
        <time>2019-09-03T11:55:00Z</time>
      </trkpt>
      <trkpt lat="44.412" lon="6.16922">
        <ele>907.6</ele>
        <time>2019-09-03T11:55:18Z</time>
      </trkpt>
      <trkpt lat="44.41147" lon="6.16929">
        <ele>908.4</ele>
        <time>2019-09-03T11:55:37Z</time>
      </trkpt>
      <trkpt lat="44.41099" lon="6.16922">
        <ele>910.2</ele>
        <time>2019-09-03T11:55:55Z</time>
      </trkpt>
      <trkpt lat="44.41066" lon="6.16885">
        <ele>915.5</ele>
        <time>2019-09-03T11:56:11Z</time>
      </trkpt>
      <trkpt lat="44.41021" lon="6.16854">
        <ele>918.7</ele>
        <time>2019-09-03T11:56:31Z</time>
      </trkpt>
      <trkpt lat="44.40972" lon="6.16825">
        <ele>920.8</ele>
        <time>2019-09-03T11:56:50Z</time>
      </trkpt>
      <trkpt lat="44.40957" lon="6.16813">
        <ele>922.7</ele>
        <time>2019-09-03T11:56:54Z</time>
      </trkpt>
      <trkpt lat="44.40939" lon="6.16801">
        <ele>925</ele>
        <time>2019-09-03T11:56:58Z</time>
      </trkpt>
      <trkpt lat="44.40923" lon="6.16794">
        <ele>926.4</ele>
        <time>2019-09-03T11:57:01Z</time>
      </trkpt>
      <trkpt lat="44.40918" lon="6.16793">
        <ele>926.7</ele>
        <time>2019-09-03T11:57:02Z</time>
      </trkpt>
      <trkpt lat="44.4088" lon="6.16792">
        <ele>930.1</ele>
        <time>2019-09-03T11:57:09Z</time>
      </trkpt>
      <trkpt lat="44.40875" lon="6.16794">
        <ele>930.1</ele>
        <time>2019-09-03T11:57:10Z</time>
      </trkpt>
      <trkpt lat="44.40857" lon="6.168">
        <ele>929.8</ele>
        <time>2019-09-03T11:57:14Z</time>
      </trkpt>
      <trkpt lat="44.40849" lon="6.16802">
        <ele>929.6</ele>
        <time>2019-09-03T11:57:16Z</time>
      </trkpt>
      <trkpt lat="44.40793" lon="6.16818">
        <ele>925.8</ele>
        <time>2019-09-03T11:57:31Z</time>
      </trkpt>
      <trkpt lat="44.40758" lon="6.16809">
        <ele>928</ele>
        <time>2019-09-03T11:57:42Z</time>
      </trkpt>
      <trkpt lat="44.40739" lon="6.16789">
        <ele>932</ele>
        <time>2019-09-03T11:57:50Z</time>
      </trkpt>
      <trkpt lat="44.40713" lon="6.16759">
        <ele>934.3</ele>
        <time>2019-09-03T11:58:01Z</time>
      </trkpt>
      <trkpt lat="44.40687" lon="6.16736">
        <ele>933.5</ele>
        <time>2019-09-03T11:58:12Z</time>
      </trkpt>
      <trkpt lat="44.40675" lon="6.16741">
        <ele>931.1</ele>
        <time>2019-09-03T11:58:16Z</time>
      </trkpt>
      <trkpt lat="44.40661" lon="6.16761">
        <ele>931.4</ele>
        <time>2019-09-03T11:58:30Z</time>
      </trkpt>
      <trkpt lat="44.40656" lon="6.16786">
        <ele>934.7</ele>
        <time>2019-09-03T11:59:45Z</time>
      </trkpt>
      <trkpt lat="44.40671" lon="6.16794">
        <ele>931.6</ele>
        <time>2019-09-03T11:59:50Z</time>
      </trkpt>
      <trkpt lat="44.40676" lon="6.16797">
        <ele>931.7</ele>
        <time>2019-09-03T11:59:52Z</time>
      </trkpt>
      <trkpt lat="44.40678" lon="6.16799">
        <ele>931.7</ele>
        <time>2019-09-03T11:59:53Z</time>
      </trkpt>
      <trkpt lat="44.4068" lon="6.16802">
        <ele>931.7</ele>
        <time>2019-09-03T11:59:54Z</time>
      </trkpt>
      <trkpt lat="44.40682" lon="6.16804">
        <ele>931.7</ele>
        <time>2019-09-03T11:59:55Z</time>
      </trkpt>
      <trkpt lat="44.40683" lon="6.16806">
        <ele>931.6</ele>
        <time>2019-09-03T11:59:59Z</time>
      </trkpt>
      <trkpt lat="44.40687" lon="6.1682">
        <ele>931.4</ele>
        <time>2019-09-03T12:01:58Z</time>
      </trkpt>
      <trkpt lat="44.40686" lon="6.16824">
        <ele>931.5</ele>
        <time>2019-09-03T12:01:59Z</time>
      </trkpt>
      <trkpt lat="44.40685" lon="6.16829">
        <ele>931.6</ele>
        <time>2019-09-03T12:02:00Z</time>
      </trkpt>
      <trkpt lat="44.40681" lon="6.16872">
        <ele>936.7</ele>
        <time>2019-09-03T12:02:09Z</time>
      </trkpt>
      <trkpt lat="44.4069" lon="6.16893">
        <ele>937.6</ele>
        <time>2019-09-03T12:02:14Z</time>
      </trkpt>
      <trkpt lat="44.40699" lon="6.16903">
        <ele>937.1</ele>
        <time>2019-09-03T12:02:17Z</time>
      </trkpt>
      <trkpt lat="44.40699" lon="6.16945">
        <ele>941.2</ele>
        <time>2019-09-03T12:02:25Z</time>
      </trkpt>
      <trkpt lat="44.40696" lon="6.16955">
        <ele>942.8</ele>
        <time>2019-09-03T12:02:27Z</time>
      </trkpt>
      <trkpt lat="44.40695" lon="6.16976">
        <ele>945.3</ele>
        <time>2019-09-03T12:02:31Z</time>
      </trkpt>
      <trkpt lat="44.40695" lon="6.16982">
        <ele>945.8</ele>
        <time>2019-09-03T12:02:32Z</time>
      </trkpt>
      <trkpt lat="44.40704" lon="6.17026">
        <ele>946.7</ele>
        <time>2019-09-03T12:02:41Z</time>
      </trkpt>
      <trkpt lat="44.40705" lon="6.17032">
        <ele>946.7</ele>
        <time>2019-09-03T12:02:42Z</time>
      </trkpt>
      <trkpt lat="44.40707" lon="6.17037">
        <ele>946.7</ele>
        <time>2019-09-03T12:02:43Z</time>
      </trkpt>
      <trkpt lat="44.40708" lon="6.17042">
        <ele>946.7</ele>
        <time>2019-09-03T12:02:44Z</time>
      </trkpt>
      <trkpt lat="44.40716" lon="6.17083">
        <ele>946.6</ele>
        <time>2019-09-03T12:02:52Z</time>
      </trkpt>
      <trkpt lat="44.40702" lon="6.1713">
        <ele>951.7</ele>
        <time>2019-09-03T12:03:02Z</time>
      </trkpt>
      <trkpt lat="44.40676" lon="6.17155">
        <ele>956.6</ele>
        <time>2019-09-03T12:03:10Z</time>
      </trkpt>
      <trkpt lat="44.40675" lon="6.1716">
        <ele>956.9</ele>
        <time>2019-09-03T12:03:11Z</time>
      </trkpt>
      <trkpt lat="44.40673" lon="6.17164">
        <ele>957.1</ele>
        <time>2019-09-03T12:03:12Z</time>
      </trkpt>
      <trkpt lat="44.40673" lon="6.17168">
        <ele>957.2</ele>
        <time>2019-09-03T12:03:13Z</time>
      </trkpt>
      <trkpt lat="44.40674" lon="6.17172">
        <ele>957.6</ele>
        <time>2019-09-03T12:03:14Z</time>
      </trkpt>
      <trkpt lat="44.40675" lon="6.17176">
        <ele>957.8</ele>
        <time>2019-09-03T12:03:15Z</time>
      </trkpt>
      <trkpt lat="44.40677" lon="6.1718">
        <ele>957.9</ele>
        <time>2019-09-03T12:03:16Z</time>
      </trkpt>
      <trkpt lat="44.4068" lon="6.17183">
        <ele>957.9</ele>
        <time>2019-09-03T12:03:17Z</time>
      </trkpt>
      <trkpt lat="44.40683" lon="6.17187">
        <ele>957.8</ele>
        <time>2019-09-03T12:03:18Z</time>
      </trkpt>
      <trkpt lat="44.40692" lon="6.17228">
        <ele>961</ele>
        <time>2019-09-03T12:03:27Z</time>
      </trkpt>
      <trkpt lat="44.40687" lon="6.17242">
        <ele>963.2</ele>
        <time>2019-09-03T12:03:30Z</time>
      </trkpt>
      <trkpt lat="44.40682" lon="6.17282">
        <ele>966.1</ele>
        <time>2019-09-03T12:03:38Z</time>
      </trkpt>
      <trkpt lat="44.40683" lon="6.17296">
        <ele>966.6</ele>
        <time>2019-09-03T12:03:41Z</time>
      </trkpt>
      <trkpt lat="44.40699" lon="6.17322">
        <ele>966.8</ele>
        <time>2019-09-03T12:03:49Z</time>
      </trkpt>
      <trkpt lat="44.40725" lon="6.17334">
        <ele>966</ele>
        <time>2019-09-03T12:03:57Z</time>
      </trkpt>
      <trkpt lat="44.40727" lon="6.17338">
        <ele>965.5</ele>
        <time>2019-09-03T12:03:58Z</time>
      </trkpt>
      <trkpt lat="44.40728" lon="6.17341">
        <ele>965</ele>
        <time>2019-09-03T12:03:59Z</time>
      </trkpt>
      <trkpt lat="44.40729" lon="6.17346">
        <ele>964.5</ele>
        <time>2019-09-03T12:04:00Z</time>
      </trkpt>
      <trkpt lat="44.40728" lon="6.17349">
        <ele>964.1</ele>
        <time>2019-09-03T12:04:01Z</time>
      </trkpt>
      <trkpt lat="44.40727" lon="6.17353">
        <ele>963.7</ele>
        <time>2019-09-03T12:04:02Z</time>
      </trkpt>
      <trkpt lat="44.40725" lon="6.17355">
        <ele>963.5</ele>
        <time>2019-09-03T12:04:03Z</time>
      </trkpt>
      <trkpt lat="44.40722" lon="6.17357">
        <ele>963.4</ele>
        <time>2019-09-03T12:04:04Z</time>
      </trkpt>
      <trkpt lat="44.40719" lon="6.17357">
        <ele>963.5</ele>
        <time>2019-09-03T12:04:05Z</time>
      </trkpt>
      <trkpt lat="44.40716" lon="6.17357">
        <ele>963.7</ele>
        <time>2019-09-03T12:04:06Z</time>
      </trkpt>
      <trkpt lat="44.40674" lon="6.17343">
        <ele>967.3</ele>
        <time>2019-09-03T12:04:19Z</time>
      </trkpt>
      <trkpt lat="44.40629" lon="6.1733">
        <ele>972.3</ele>
        <time>2019-09-03T12:04:33Z</time>
      </trkpt>
      <trkpt lat="44.40595" lon="6.17319">
        <ele>975.7</ele>
        <time>2019-09-03T12:04:43Z</time>
      </trkpt>
      <trkpt lat="44.40545" lon="6.17302">
        <ele>979</ele>
        <time>2019-09-03T12:04:58Z</time>
      </trkpt>
      <trkpt lat="44.40501" lon="6.17281">
        <ele>982.6</ele>
        <time>2019-09-03T12:05:11Z</time>
      </trkpt>
      <trkpt lat="44.40484" lon="6.17265">
        <ele>984.3</ele>
        <time>2019-09-03T12:05:16Z</time>
      </trkpt>
      <trkpt lat="44.4043" lon="6.17206">
        <ele>990.7</ele>
        <time>2019-09-03T12:05:33Z</time>
      </trkpt>
      <trkpt lat="44.40418" lon="6.17199">
        <ele>992</ele>
        <time>2019-09-03T12:05:36Z</time>
      </trkpt>
      <trkpt lat="44.40367" lon="6.17195">
        <ele>997.8</ele>
        <time>2019-09-03T12:05:49Z</time>
      </trkpt>
      <trkpt lat="44.40329" lon="6.17191">
        <ele>1001.9</ele>
        <time>2019-09-03T12:05:59Z</time>
      </trkpt>
      <trkpt lat="44.40294" lon="6.1718">
        <ele>1003.6</ele>
        <time>2019-09-03T12:06:09Z</time>
      </trkpt>
      <trkpt lat="44.40254" lon="6.17174">
        <ele>1003.9</ele>
        <time>2019-09-03T12:06:21Z</time>
      </trkpt>
      <trkpt lat="44.40203" lon="6.17171">
        <ele>1006</ele>
        <time>2019-09-03T12:06:37Z</time>
      </trkpt>
      <trkpt lat="44.40148" lon="6.1717">
        <ele>1008</ele>
        <time>2019-09-03T12:06:55Z</time>
      </trkpt>
      <trkpt lat="44.401" lon="6.17169">
        <ele>1009.3</ele>
        <time>2019-09-03T12:07:12Z</time>
      </trkpt>
      <trkpt lat="44.40049" lon="6.17154">
        <ele>1013.9</ele>
        <time>2019-09-03T12:07:30Z</time>
      </trkpt>
      <trkpt lat="44.40023" lon="6.17113">
        <ele>1019</ele>
        <time>2019-09-03T12:07:44Z</time>
      </trkpt>
      <trkpt lat="44.39997" lon="6.17062">
        <ele>1021.9</ele>
        <time>2019-09-03T12:08:01Z</time>
      </trkpt>
      <trkpt lat="44.39971" lon="6.17035">
        <ele>1021.7</ele>
        <time>2019-09-03T12:08:11Z</time>
      </trkpt>
      <trkpt lat="44.39967" lon="6.17032">
        <ele>1021.5</ele>
        <time>2019-09-03T12:08:12Z</time>
      </trkpt>
      <trkpt lat="44.39962" lon="6.1703">
        <ele>1021.4</ele>
        <time>2019-09-03T12:08:13Z</time>
      </trkpt>
      <trkpt lat="44.39944" lon="6.17019">
        <ele>1020.5</ele>
        <time>2019-09-03T12:08:17Z</time>
      </trkpt>
      <trkpt lat="44.39939" lon="6.17018">
        <ele>1020.2</ele>
        <time>2019-09-03T12:08:18Z</time>
      </trkpt>
      <trkpt lat="44.39933" lon="6.17018">
        <ele>1019.9</ele>
        <time>2019-09-03T12:08:19Z</time>
      </trkpt>
      <trkpt lat="44.39928" lon="6.17018">
        <ele>1019.5</ele>
        <time>2019-09-03T12:08:20Z</time>
      </trkpt>
      <trkpt lat="44.39923" lon="6.1702">
        <ele>1019.1</ele>
        <time>2019-09-03T12:08:21Z</time>
      </trkpt>
      <trkpt lat="44.39917" lon="6.17022">
        <ele>1018.7</ele>
        <time>2019-09-03T12:08:22Z</time>
      </trkpt>
      <trkpt lat="44.39911" lon="6.17025">
        <ele>1018.7</ele>
        <time>2019-09-03T12:08:23Z</time>
      </trkpt>
      <trkpt lat="44.39853" lon="6.17039">
        <ele>1018.2</ele>
        <time>2019-09-03T12:08:32Z</time>
      </trkpt>
      <trkpt lat="44.39821" lon="6.17036">
        <ele>1017.1</ele>
        <time>2019-09-03T12:08:39Z</time>
      </trkpt>
      <trkpt lat="44.39819" lon="6.17038">
        <ele>1016.8</ele>
        <time>2019-09-03T12:08:40Z</time>
      </trkpt>
      <trkpt lat="44.39818" lon="6.17041">
        <ele>1016.6</ele>
        <time>2019-09-03T12:08:41Z</time>
      </trkpt>
      <trkpt lat="44.39812" lon="6.17065">
        <ele>1015.3</ele>
        <time>2019-09-03T12:08:46Z</time>
      </trkpt>
      <trkpt lat="44.39809" lon="6.17071">
        <ele>1014.8</ele>
        <time>2019-09-03T12:08:47Z</time>
      </trkpt>
      <trkpt lat="44.39807" lon="6.17077">
        <ele>1014.3</ele>
        <time>2019-09-03T12:08:48Z</time>
      </trkpt>
      <trkpt lat="44.3979" lon="6.17117">
        <ele>1011.7</ele>
        <time>2019-09-03T12:08:58Z</time>
      </trkpt>
      <trkpt lat="44.3979" lon="6.1712">
        <ele>1011.7</ele>
        <time>2019-09-03T12:08:59Z</time>
      </trkpt>
      <trkpt lat="44.39792" lon="6.17124">
        <ele>1011.8</ele>
        <time>2019-09-03T12:09:00Z</time>
      </trkpt>
      <trkpt lat="44.39801" lon="6.1713">
        <ele>1012.7</ele>
        <time>2019-09-03T12:09:08Z</time>
      </trkpt>
    </trkseg>
  </trk>
</gpx>